[[{"header":{"parameterUnit":"m.s-1","parameterCategory":1,"la1":30.6,"la2":28.766,"lo1":-90.7593,"lo2":-88.6598,"dy":0.0162,"dx":0.0183,"nx":116,"ny":114,"refTime":"2023-08-20T06:00:00:Z","depth":0,"parameterNumber":2,"parameterNumberName":"U-component_of_WINDS"},"data":[0.0,0.0,0.0,0.0,0.0,0.0,0.0,0.0,0.0,0.0,0.0,0.0,0.0,0.0,0.0,0.0,0.0,0.0,0.0,0.0,0.0,0.0,0.0,0.0,0.0,0.0,0.0,0.0,0.0,0.0,0.0,0.0,0.0,0.0,0.0,0.0,0.0,0.0,0.0,0.0,0.0,0.0,0.0,0.0,0.0,0.0,0.0,0.0,0.0,0.0,0.0,0.0,0.0,0.0,0.0,0.0,0.0,0.0,0.0,0.0,0.0,0.0,0.0,0.0,0.0,0.0,0.0,0.0,0.0,0.0,0.0,0.0,0.0,0.0,0.0,0.0,0.0,0.0,0.0,0.0,0.0,0.0,0.0,0.0,0.0,0.0,0.0,0.0,0.0,0.0,0.0,0.0,0.0,0.0,0.0,0.0,0.0,0.0,0.0,0.0,0.0,0.0,0.0,0.0,0.0,0.0,0.0,0.0,0.0,0.0,0.0,0.0,0.0,0.0,0.0,0.0,0.0,0.0,0.0,0.0,0.0,0.0,0.0,0.0,0.0,0.0,0.0,0.0,0.0,0.0,0.0,0.0,0.0,0.0,0.0,0.0,0.0,0.0,0.0,0.0,0.0,0.0,0.0,0.0,0.0,0.0,0.0,0.0,0.0,0.0,0.0,0.0,0.0,0.0,0.0,0.0,0.0,0.0,0.0,0.0,0.0,0.0,0.0,0.0,0.0,0.0,0.0,0.0,0.0,0.0,0.0,0.0,0.0,0.0,0.0,0.0,0.0,0.0,0.0,0.0,0.0,0.0,0.0,0.0,0.0,0.0,0.0,0.0,0.0,0.0,0.0,0.0,0.0,0.0,0.0,0.0,0.0,0.0,0.0,0.0,0.0,0.0,0.0,0.0,0.0,0.0,0.0,0.0,0.0,0.0,0.0,0.0,0.0,0.0,0.0,0.0,0.0,0.0,0.0,0.0,0.0,0.0,0.0,0.0,0.0,0.0,0.0,0.0,0.0,0.0,0.0,0.0,0.0,0.0,0.0,0.0,0.0,0.0,0.0,0.0,0.0,0.0,0.0,0.0,0.0,0.0,0.0,0.0,0.0,0.0,0.0,0.0,0.0,0.0,0.0,0.0,0.0,0.0,0.0,0.0,0.0,0.0,0.0,0.0,0.0,0.0,0.0,0.0,0.0,0.0,0.0,0.0,0.0,0.0,0.0,0.0,0.0,0.0,0.0,0.0,0.0,0.0,0.0,0.0,0.0,0.0,0.0,0.0,0.0,0.0,0.0,0.0,0.0,0.0,0.0,0.0,0.0,0.0,0.0,0.0,0.0,0.0,0.0,0.0,0.0,0.0,0.0,0.0,0.0,0.0,0.0,0.0,0.0,0.0,0.0,0.0,0.0,0.0,0.0,0.0,0.0,0.0,0.0,0.0,0.0,0.0,0.0,0.0,0.0,0.0,0.0,0.0,0.0,0.0,0.0,0.0,0.0,0.0,0.0,0.0,0.0,0.0,0.0,0.0,0.0,0.0,0.0,0.0,0.0,0.0,0.0,0.0,0.0,0.0,0.0,0.0,0.0,0.0,0.0,0.0,0.0,0.0,0.0,0.0,0.0,0.0,0.0,0.0,0.0,0.0,0.0,0.0,0.0,0.0,0.0,0.0,0.0,0.0,0.0,0.0,0.0,0.0,0.0,0.0,0.0,0.0,0.0,0.0,0.0,0.0,0.0,0.0,0.0,0.0,0.0,0.0,0.0,0.0,0.0,0.0,0.0,0.0,0.0,0.0,0.0,0.0,0.0,0.0,0.0,0.0,0.0,0.0,0.0,0.0,0.0,0.0,0.0,0.0,0.0,0.0,0.0,0.0,0.0,0.0,0.0,0.0,0.0,0.0,0.0,0.0,0.0,0.0,0.0,0.0,0.0,0.0,0.0,0.0,0.0,0.0,0.0,0.0,0.0,0.0,0.0,0.0,0.0,0.0,0.0,0.0,0.0,0.0,0.0,0.0,0.0,0.0,0.0,0.0,0.0,0.0,0.0,0.0,0.0,0.0,0.0,0.0,0.0,0.0,0.0,0.0,0.0,0.0,0.0,0.0,0.0,0.0,0.0,0.0,0.0,0.0,0.0,0.0,0.0,0.0,0.0,0.0,0.0,0.0,0.0,0.0,0.0,0.0,0.0,0.0,0.0,0.0,0.0,0.0,0.0,0.0,0.0,0.0,0.0,0.0,0.0,0.0,0.0,0.0,0.0,0.0,0.0,0.0,0.0,0.0,0.0,0.0,0.0,0.0,0.0,0.0,0.0,0.0,0.0,0.0,0.0,0.0,0.0,0.0,0.0,0.0,0.0,0.0,0.0,0.0,0.0,0.0,0.0,0.0,0.0,0.0,0.0,0.0,0.0,0.0,0.0,0.0,0.0,0.0,0.0,0.0,0.0,0.0,0.0,0.0,0.0,0.0,0.0,0.0,0.0,0.0,0.0,0.0,0.0,0.0,0.0,0.0,0.0,0.0,0.0,0.0,0.0,0.0,0.0,0.0,0.0,0.0,0.0,0.0,0.0,0.0,0.0,0.0,0.0,0.0,0.0,0.0,0.0,0.0,0.0,0.0,0.0,0.0,0.0,0.0,0.0,0.0,0.0,0.0,0.0,0.0,0.0,0.0,0.0,0.0,0.0,0.0,0.0,0.0,0.0,0.0,0.0,0.0,0.0,0.0,0.0,0.0,0.0,0.0,0.0,0.0,0.0,0.0,0.0,0.0,0.0,0.0,0.0,0.0,0.0,0.0,0.0,0.0,0.0,0.0,0.0,0.0,0.0,0.0,0.0,0.0,0.0,0.0,0.0,0.0,0.0,0.0,0.0,0.0,0.0,0.0,0.0,0.0,0.0,0.0,0.0,0.0,0.0,0.0,0.0,0.0,0.0,0.0,0.0,0.0,0.0,0.0,0.0,0.0,0.0,0.0,0.0,0.0,0.0,0.0,0.0,0.0,0.0,0.0,0.0,0.0,0.0,0.0,0.0,0.0,0.0,0.0,0.0,0.0,0.0,0.0,0.0,0.0,0.0,0.0,0.0,0.0,0.0,0.0,0.0,0.0,0.0,0.0,0.0,0.0,0.0,0.0,0.0,0.0,0.0,0.0,0.0,0.0,0.0,0.0,0.0,0.0,0.0,0.0,0.0,0.0,0.0,0.0,0.0,0.0,0.0,0.0,0.0,0.0,0.0,0.0,0.0,0.0,0.0,0.0,0.0,0.0,0.0,0.0,0.0,0.0,0.0,0.0,0.0,0.0,0.0,0.0,0.0,0.0,0.0,0.0,0.0,0.0,0.0,0.0,0.0,0.0,0.0,0.0,0.0,0.0,0.0,0.0,0.0,0.0,0.0,0.0,0.0,0.0,0.0,0.0,0.0,0.0,0.0,0.0,0.0,0.0,0.0,0.0,0.0,0.0,0.0,0.0,0.0,0.0,0.0,0.0,0.0,0.0,0.0,0.0,0.0,0.0,0.0,0.0,0.0,0.0,0.0,0.0,0.0,0.0,0.0,0.0,0.0,0.0,0.0,0.0,0.0,0.0,0.0,0.0,0.0,0.0,0.0,0.0,0.0,0.0,0.0,0.0,0.0,0.0,0.0,0.0,0.0,0.0,0.0,0.0,0.0,0.0,0.0,0.0,0.0,0.0,0.0,0.0,0.0,0.0,0.0,0.0,0.0,0.0,0.0,0.0,0.0,0.0,0.0,0.0,0.0,0.0,0.0,0.0,0.0,0.0,0.0,0.0,0.0,0.0,0.0,0.0,0.0,0.0,0.0,0.0,0.0,0.0,0.0,0.0,0.0,0.0,0.0,0.0,0.0,0.0,0.0,0.0,0.0,0.0,0.0,0.0,0.0,0.0,0.0,0.0,0.0,0.0,0.0,0.0,0.0,0.0,0.0,0.0,0.0,0.0,0.0,0.0,0.0,0.0,0.0,0.0,0.0,0.0,0.0,0.0,0.0,0.0,0.0,0.0,0.0,0.0,0.0,0.0,0.0,0.0,0.0,0.0,0.0,0.0,0.0,0.0,0.0,0.0,0.0,0.0,0.0,0.0,0.0,0.0,0.0,0.0,0.0,0.0,0.0,0.0,0.0,0.0,0.0,0.0,0.0,0.0,0.0,0.0,0.0,0.0,0.0,0.0,0.0,0.0,0.0,0.0,0.0,0.0,0.0,0.0,0.0,0.0,0.0,0.0,0.0,0.0,0.0,0.0,0.0,0.0,0.0,0.0,0.0,0.0,0.0,0.0,0.0,0.0,0.0,0.0,0.0,0.0,0.0,0.0,0.0,0.0,0.0,0.0,0.0,0.0,0.0,0.0,0.0,0.0,0.0,0.0,0.0,0.0,0.0,0.0,0.0,0.0,0.0,0.0,0.0,0.0,0.0,0.0,0.0,0.0,0.0,0.0,0.0,0.0,0.0,0.0,0.0,0.0,0.0,0.0,0.0,0.0,0.0,0.0,0.0,0.0,0.0,0.0,0.0,0.0,0.0,0.0,0.0,0.0,0.0,0.0,0.0,0.0,0.0,0.0,0.0,0.0,0.0,0.0,0.0,0.0,0.0,0.0,0.0,0.0,0.0,0.0,0.0,0.0,0.0,0.0,0.0,0.0,0.0,0.0,0.0,0.0,0.0,0.0,0.0,0.0,0.0,0.0,0.0,0.0,0.0,0.0,0.0,0.0,0.0,0.0,0.0,0.0,0.0,0.0,0.0,0.0,0.0,0.0,0.0,0.0,0.0,0.0,0.0,0.0,0.0,0.0,0.0,0.0,0.0,0.0,0.0,0.0,0.0,0.0,0.0,0.0,0.0,0.0,0.0,0.0,0.0,0.0,0.0,0.0,0.0,0.0,0.0,0.0,0.0,0.0,0.0,0.0,0.0,0.0,0.0,0.0,0.0,0.0,0.0,0.0,0.0,0.0,0.0,0.0,0.0,0.0,0.0,0.0,0.0,0.0,0.0,0.0,0.0,0.0,0.0,0.0,0.0,0.0,0.0,0.0,0.0,0.0,0.0,0.0,0.0,0.0,0.0,0.0,0.0,0.0,0.0,0.0,0.0,0.0,0.0,0.0,0.0,0.0,0.0,0.0,0.0,0.0,0.0,0.0,0.0,0.0,0.0,0.0,0.0,0.0,0.0,0.0,0.0,0.0,0.0,0.0,0.0,0.0,0.0,0.0,0.0,0.0,0.0,0.0,0.0,0.0,0.0,0.0,0.0,0.0,0.0,0.0,0.0,0.0,0.0,0.0,0.0,0.0,0.0,0.0,0.0,0.0,0.0,0.0,0.0,0.0,0.0,0.0,0.0,0.0,0.0,0.0,0.0,0.0,0.0,0.0,0.0,0.0,0.0,0.0,0.0,0.0,0.0,0.0,0.0,0.0,0.0,0.0,0.0,0.0,0.0,0.0,0.0,0.0,0.0,0.0,0.0,0.0,0.0,0.0,0.0,0.0,0.0,0.0,0.0,0.0,0.0,0.0,0.0,0.0,0.0,0.0,0.0,0.0,0.0,0.0,0.0,0.0,0.0,0.0,0.0,0.0,0.0,0.0,0.0,0.0,0.0,0.0,0.0,0.0,0.0,0.0,0.0,0.0,0.0,0.0,0.0,0.0,0.0,0.0,0.0,0.0,0.0,0.0,0.0,0.0,0.0,0.0,0.0,0.0,0.0,0.0,0.0,0.0,0.0,0.0,0.0,0.0,0.0,0.0,0.0,0.0,0.0,0.0,0.0,0.0,0.0,0.0,0.0,0.0,0.0,0.0,0.0,0.0,0.0,0.0,0.0,0.0,0.0,0.0,0.0,0.0,0.0,0.0,0.0,0.0,0.0,0.0,0.0,0.0,0.0,0.0,0.0,0.0,0.0,0.0,0.0,0.0,0.0,0.0,0.0,0.0,0.0,0.0,0.0,0.0,0.0,0.0,0.0,0.0,0.0,0.0,0.0,0.0,0.0,0.0,0.0,0.0,0.0,0.0,0.0,0.0,0.0,0.0,0.0,0.0,0.0,0.0,0.0,0.0,0.0,0.0,0.0,0.0,0.0,0.0,0.0,0.0,0.0,0.0,0.0,0.0,-3.3807,0.0,0.0,0.0,0.0,0.0,0.0,0.0,0.0,0.0,0.0,0.0,0.0,0.0,0.0,0.0,0.0,0.0,0.0,0.0,0.0,0.0,0.0,0.0,0.0,0.0,0.0,0.0,0.0,0.0,0.0,0.0,0.0,0.0,0.0,0.0,0.0,0.0,0.0,0.0,0.0,0.0,-3.6621,-3.6621,-3.6406,-3.5996,0.0,0.0,0.0,0.0,0.0,0.0,0.0,0.0,0.0,0.0,0.0,0.0,0.0,0.0,0.0,0.0,0.0,0.0,0.0,0.0,0.0,0.0,0.0,0.0,0.0,0.0,0.0,0.0,0.0,0.0,0.0,0.0,0.0,0.0,0.0,0.0,0.0,0.0,0.0,0.0,0.0,0.0,0.0,0.0,0.0,0.0,0.0,0.0,0.0,0.0,0.0,0.0,0.0,0.0,0.0,0.0,0.0,0.0,0.0,0.0,0.0,0.0,0.0,0.0,0.0,0.0,0.0,0.0,0.0,0.0,0.0,-3.3807,0.0,0.0,0.0,0.0,0.0,0.0,0.0,0.0,0.0,0.0,0.0,0.0,0.0,0.0,0.0,0.0,0.0,0.0,0.0,0.0,0.0,0.0,0.0,0.0,-3.5552,-3.5663,-3.5833,0.0,0.0,0.0,0.0,0.0,0.0,0.0,0.0,0.0,0.0,0.0,0.0,0.0,-3.7539,-3.7539,-3.7148,-3.6445,-3.6133,0.0,0.0,0.0,0.0,0.0,0.0,0.0,0.0,0.0,0.0,0.0,0.0,0.0,0.0,0.0,0.0,0.0,0.0,0.0,0.0,0.0,0.0,0.0,0.0,0.0,0.0,0.0,0.0,0.0,0.0,0.0,0.0,0.0,0.0,0.0,0.0,0.0,0.0,0.0,0.0,0.0,0.0,0.0,0.0,0.0,0.0,0.0,0.0,0.0,0.0,0.0,0.0,0.0,0.0,0.0,0.0,0.0,0.0,0.0,0.0,0.0,0.0,0.0,-3.4311,-3.4135,-3.4123,-3.3902,-3.3807,-3.3807,-3.3807,-3.3807,-3.3807,-3.3807,0.0,0.0,0.0,0.0,0.0,0.0,0.0,0.0,0.0,0.0,0.0,0.0,0.0,0.0,0.0,0.0,0.0,0.0,0.0,0.0,0.0,-3.55,-3.5522,-3.5601,-3.6363,-3.6899,0.0,0.0,0.0,0.0,0.0,0.0,0.0,0.0,0.0,0.0,0.0,-3.8535,-3.8437,-3.8437,-3.8379,-3.8184,-3.668,-3.5996,-3.5996,0.0,0.0,0.0,0.0,0.0,0.0,0.0,0.0,0.0,0.0,0.0,0.0,0.0,0.0,0.0,0.0,0.0,0.0,0.0,0.0,0.0,0.0,0.0,0.0,0.0,0.0,0.0,0.0,0.0,0.0,0.0,0.0,0.0,0.0,0.0,0.0,0.0,0.0,0.0,0.0,0.0,-3.55,-3.55,0.0,0.0,0.0,0.0,0.0,0.0,0.0,0.0,0.0,0.0,0.0,0.0,0.0,-3.5391,-3.5391,-3.4935,-3.4694,-3.4684,-3.4123,-3.3855,-3.3855,-3.3815,-3.3807,-3.3807,-3.3807,0.0,-3.3807,-3.3807,0.0,0.0,0.0,0.0,0.0,0.0,0.0,0.0,0.0,0.0,0.0,0.0,0.0,0.0,0.0,0.0,0.0,0.0,0.0,0.0,0.0,-3.5904,-3.6228,-3.6311,-3.7119,-3.7689,-3.7866,0.0,0.0,0.0,0.0,0.0,0.0,0.0,0.0,0.0,-4.0059,-3.9805,-3.9336,-3.9336,-3.9062,-3.8574,-3.7793,-3.7187,-3.6699,-3.6211,0.0,0.0,0.0,0.0,0.0,0.0,0.0,0.0,0.0,0.0,0.0,0.0,0.0,0.0,0.0,0.0,0.0,0.0,0.0,0.0,0.0,0.0,0.0,0.0,0.0,0.0,0.0,0.0,0.0,0.0,0.0,0.0,0.0,0.0,0.0,0.0,0.0,0.0,0.0,-3.55,-3.55,-3.55,-3.55,-3.55,0.0,0.0,0.0,0.0,0.0,0.0,0.0,0.0,0.0,-3.55,-3.55,-3.55,-3.55,-3.5273,-3.5376,-3.5815,-3.5407,-3.5456,-3.5937,-3.5768,-3.5444,-3.4972,-3.4972,-3.4717,-3.4291,-3.3941,-3.3807,-3.3807,0.0,0.0,0.0,0.0,-3.3807,-3.3807,0.0,0.0,0.0,0.0,0.0,0.0,0.0,0.0,0.0,0.0,0.0,0.0,-3.5808,-3.6538,-3.7076,-3.7196,-3.798,-3.8559,-3.8721,-3.8974,0.0,0.0,0.0,0.0,0.0,0.0,0.0,-4.1191,-4.1191,-4.0879,-4.0234,-4.0234,-3.9883,-3.9258,-3.9023,-3.8457,-3.7578,-3.6699,-3.6328,-3.6309,0.0,0.0,0.0,0.0,0.0,0.0,0.0,0.0,0.0,0.0,0.0,0.0,0.0,0.0,0.0,0.0,0.0,0.0,0.0,0.0,0.0,0.0,0.0,0.0,0.0,0.0,0.0,0.0,0.0,0.0,0.0,0.0,0.0,0.0,0.0,0.0,0.0,-3.55,-3.55,-3.55,-3.55,-3.55,0.0,0.0,0.0,0.0,0.0,0.0,-3.55,-3.5692,-3.5808,-3.5808,-3.6019,-3.6135,-3.6135,-3.6073,-3.6339,-3.6934,-3.6665,-3.6872,-3.7481,-3.7285,-3.6841,-3.6226,-3.6226,-3.5895,-3.5258,-3.4399,-3.4043,-3.4043,-3.4043,-3.4043,-3.403,-3.3941,-3.3902,-3.3889,0.0,0.0,0.0,0.0,0.0,0.0,0.0,0.0,0.0,0.0,0.0,-3.6635,-3.6635,-3.7411,-3.7963,-3.8028,-3.8946,-3.9552,-3.9624,-4.0521,-4.1074,-4.1133,0.0,0.0,0.0,0.0,0.0,-4.1191,-4.1191,-4.1172,-4.1133,-4.1133,-4.1113,-4.1035,-4.0195,-3.9355,-3.8476,-3.7598,-3.7226,-3.7168,-3.6328,0.0,0.0,0.0,0.0,0.0,0.0,0.0,0.0,0.0,0.0,0.0,0.0,0.0,0.0,0.0,0.0,0.0,0.0,0.0,0.0,0.0,0.0,0.0,0.0,0.0,0.0,0.0,0.0,0.0,0.0,0.0,0.0,0.0,0.0,0.0,0.0,0.0,0.0,-3.55,-3.55,0.0,0.0,0.0,0.0,-3.55,-3.55,-3.55,-3.55,-3.6212,-3.6635,-3.6635,-3.745,-3.7873,-3.7873,-3.7617,-3.7514,-3.7552,-3.7279,-3.7175,-3.7213,-3.7221,-3.7173,-3.7135,-3.7135,-3.7116,-3.6955,-3.5325,-3.4653,-3.4653,-3.4653,-3.4653,-3.4622,-3.43,-3.4183,-3.4147,0.0,0.0,0.0,0.0,0.0,0.0,0.0,0.0,0.0,-3.55,-3.6192,-3.6692,-3.6692,-3.7988,-3.8845,-3.887,-3.967,-4.0239,-4.039,-4.0741,-4.1023,0.0,0.0,0.0,0.0,0.0,-4.1191,-4.1191,-4.1191,-4.1191,-4.1191,-4.1191,-4.1191,-4.1191,-4.0879,-4.0566,-4.0176,-3.873,-3.8144,-3.8066,-3.7187,-3.6836,0.0,0.0,0.0,0.0,0.0,0.0,0.0,0.0,0.0,0.0,0.0,0.0,0.0,0.0,0.0,0.0,0.0,0.0,0.0,0.0,0.0,0.0,0.0,0.0,0.0,0.0,0.0,0.0,0.0,0.0,0.0,0.0,0.0,0.0,0.0,0.0,0.0,-3.6212,-3.6269,0.0,-3.7046,-3.7103,-3.7103,-3.7103,-3.7103,-3.7103,-3.7103,-3.7373,-3.7546,-3.7546,-3.7834,-3.8007,-3.8007,-3.7901,-3.8139,-3.8695,-3.861,-3.8825,-3.9322,-3.9322,-3.9035,-3.8557,-3.8557,-3.8223,-3.7668,-3.7067,-3.6281,-3.5469,-3.5469,-3.5157,-3.4684,-3.4561,-3.4529,-3.4508,0.0,0.0,0.0,0.0,0.0,0.0,0.0,0.0,-3.5596,-3.5865,-3.6635,-3.7257,-3.7546,-3.8854,-3.9711,-3.9776,-4.0281,-4.0679,-4.0857,-4.0914,-4.1002,0.0,-4.1191,0.0,0.0,-4.1191,-4.1191,-4.1191,-4.1191,-4.1191,-4.1191,-4.1191,-4.1191,-4.1191,-4.1191,-4.1191,-4.1113,-3.9961,-3.9316,-3.8965,-3.8086,-3.7734,-3.7676,0.0,0.0,0.0,0.0,0.0,0.0,0.0,0.0,0.0,0.0,0.0,0.0,0.0,0.0,0.0,0.0,0.0,0.0,0.0,0.0,0.0,0.0,0.0,0.0,0.0,0.0,0.0,0.0,0.0,0.0,0.0,0.0,0.0,0.0,0.0,-3.6538,-3.7084,-3.7142,-3.7373,-3.795,-3.8007,-3.8007,-3.8007,-3.8007,-3.8123,-3.8411,-3.87,-3.8969,-3.9277,-3.9565,-3.9719,-3.9719,-3.9719,-4.0008,-4.0585,-4.0585,-4.0854,-4.1381,-4.1066,-4.0642,-4.0123,-3.9842,-3.9381,-3.8834,-3.8834,-3.8129,-3.7015,-3.673,-3.6283,-3.5789,-3.5704,-3.5486,-3.5182,0.0,0.0,0.0,0.0,0.0,0.0,0.0,-3.5519,-3.5827,-3.6596,-3.7488,-3.8354,-3.9207,-4.0023,-4.0559,-4.0686,-4.0752,-4.086,-4.0992,-4.1126,-4.1191,0.0,0.0,0.0,-4.1191,-4.1191,-4.1191,-4.1191,-4.1191,-4.1191,-4.1191,-4.1191,-4.1211,-4.123,-4.123,-4.123,-4.123,-4.123,-4.0742,-3.9863,-3.8984,-3.8633,-3.8633,0.0,0.0,0.0,0.0,0.0,0.0,0.0,0.0,0.0,0.0,0.0,0.0,0.0,0.0,0.0,0.0,0.0,0.0,0.0,0.0,0.0,0.0,0.0,0.0,0.0,0.0,0.0,0.0,0.0,0.0,0.0,0.0,0.0,-3.801,-3.8007,-3.8007,-3.8046,-3.8046,-3.8065,-3.8104,-3.8123,-3.8123,-3.8161,-3.8161,-3.8527,-3.9381,-4.0169,-4.0969,-4.1808,-4.2662,-4.3104,-4.3104,-4.3104,-4.3104,-4.3104,-4.3104,-4.3104,-4.3066,-4.2239,-4.1846,-4.1788,-4.095,-4.0573,-4.0573,-4.0573,-4.0112,-3.9284,-3.8392,-3.8027,-3.7966,-3.7717,-3.7085,-3.6202,0.0,0.0,0.0,0.0,0.0,0.0,0.0,-3.6,-3.6442,-3.6673,-3.8007,-3.9034,-3.9265,-4.01,-4.0649,-4.0692,-4.0752,-4.086,-4.0992,-4.1028,-4.1103,0.0,0.0,0.0,-4.1191,-4.1191,-4.1191,-4.1191,-4.1191,-4.1191,-4.1191,-4.1191,-4.1504,-4.207,-4.207,-4.207,-4.207,-4.207,-4.1601,-4.0762,-3.9883,-3.9531,-3.9473,0.0,0.0,0.0,0.0,0.0,0.0,0.0,0.0,0.0,0.0,0.0,0.0,0.0,0.0,0.0,0.0,0.0,0.0,0.0,0.0,0.0,0.0,0.0,0.0,0.0,0.0,0.0,0.0,0.0,0.0,0.0,0.0,-3.9413,-3.8169,-3.8007,-3.8238,-3.8873,-3.8931,-3.9411,-4.0642,-4.0758,-4.1027,-4.1643,-4.17,-4.1797,-4.2047,-4.2258,-4.2508,-4.2739,-4.2989,-4.3104,-4.3104,-4.3104,-4.3104,-4.3104,-4.3104,-4.3104,-4.3085,-4.2854,-4.2739,-4.2739,-4.2489,-4.2393,-4.2393,-4.2393,-4.1873,-4.0969,-3.9508,-3.8565,-3.7981,-3.7909,-3.774,-3.7502,0.0,0.0,0.0,0.0,0.0,0.0,0.0,-3.6173,-3.6827,-3.7199,-3.843,-3.9438,-3.9765,-4.0284,-4.0643,-4.0692,-4.0752,-4.086,-4.0992,-4.1052,0.0,0.0,0.0,-4.1191,-4.1191,-4.1191,-4.1191,-4.1191,-4.1191,-4.1191,-4.1211,-4.1543,-4.1953,-4.2422,-4.2773,-4.2949,-4.293,-4.2558,-4.2129,-4.1621,-4.0781,-4.0449,-4.0391,-3.9883,-3.9453,-3.9141,-3.9141,-3.8906,-3.8594,-3.8594,0.0,0.0,0.0,0.0,0.0,0.0,0.0,0.0,0.0,0.0,0.0,0.0,0.0,0.0,0.0,0.0,0.0,0.0,0.0,0.0,0.0,0.0,0.0,0.0,-4.0552,-4.0285,-3.9681,-3.9585,-3.9777,-4.0296,-4.0662,-4.1277,-4.2258,-4.2335,-4.2547,-4.3066,-4.3104,-4.3258,-4.3585,-4.3605,-4.3778,-4.4143,-4.4143,-4.4143,-4.4143,-4.4143,-4.4143,-4.4143,-4.4143,-4.4143,-4.4124,-4.3778,-4.3605,-4.3585,-4.3258,-4.3104,-4.3104,-4.3104,-4.2797,0.0,0.0,0.0,0.0,0.0,-3.8546,-3.8488,0.0,0.0,0.0,0.0,0.0,0.0,0.0,-3.6269,-3.7123,-3.7892,-3.8834,-3.9708,-4.0419,-4.0512,-4.0574,-4.0686,-4.0752,-4.086,-4.0992,0.0,0.0,-4.1191,-4.1191,-4.1191,-4.1191,-4.1191,-4.1191,-4.1191,-4.1191,-4.125,-4.1348,-4.207,-4.25,-4.2734,-4.3496,-4.3848,-4.3789,-4.293,-4.248,-4.2324,-4.1523,-4.1191,-4.1191,-4.1191,-4.0723,-4.0059,-4.0059,-3.9551,-3.8887,-3.8887,0.0,0.0,0.0,0.0,0.0,0.0,0.0,0.0,0.0,0.0,0.0,0.0,0.0,0.0,0.0,0.0,0.0,0.0,0.0,0.0,0.0,0.0,0.0,0.0,-4.065,-4.095,-4.1816,-4.2019,-4.2038,-4.1962,-4.2624,-4.3143,-4.3239,-4.3239,-4.3278,-4.3374,-4.3374,-4.3682,-4.4412,0.0,0.0,0.0,0.0,-4.5594,-4.5594,-4.5594,-4.5594,-4.5594,-4.5594,-4.5594,-4.5575,-4.4797,-4.4451,-4.4412,-4.3682,-4.3374,-4.3374,-4.3374,-4.3316,-4.3143,-4.2181,-4.1335,-4.0554,-3.9727,-3.9438,-3.9323,0.0,0.0,0.0,0.0,0.0,0.0,0.0,-3.6769,-3.7815,-3.7988,-3.9323,-4.0323,-4.0477,-4.0589,-4.0667,-4.0697,-4.0752,-4.086,-4.0992,0.0,-4.1191,-4.1191,-4.1191,-4.1191,-4.1191,-4.1191,-4.1191,-4.1191,-4.1191,-4.1523,-4.2168,-4.2324,-4.3144,-4.4492,-4.4668,-4.4746,-4.4687,-4.3828,-4.3047,-4.2324,-4.1523,-4.1191,-4.1191,-4.1191,-4.1094,-4.0957,-4.0957,-4.084,-4.0703,-4.0703,-4.0801,-4.0957,-4.0957,0.0,0.0,0.0,0.0,0.0,0.0,0.0,0.0,0.0,0.0,0.0,0.0,0.0,0.0,0.0,0.0,0.0,0.0,0.0,0.0,-4.1463,-4.1546,-4.1854,-4.2739,-4.3412,-4.3585,-4.2931,-4.3008,-4.3355,-4.3989,-4.4066,-4.4355,-4.5056,-4.5114,-4.519,-4.5344,-4.5344,-4.5441,-4.5594,-4.5594,-4.5594,-4.5594,-4.5594,-4.5594,-4.5594,0.0,0.0,-4.5594,-4.5441,-4.5344,-4.5344,-4.519,-4.5114,-4.5114,-4.5114,-4.4701,-4.3912,-4.2393,-4.17,-4.145,-4.0593,-4.0265,-4.0246,0.0,0.0,0.0,0.0,0.0,0.0,0.0,-3.693,-3.8007,-3.8007,-3.9457,-4.0496,-4.0496,-4.0559,-4.0596,-4.0596,-4.0713,-4.086,0.0,-4.1127,-4.1191,-4.1191,-4.1191,-4.1191,-4.1191,-4.1191,-4.1191,-4.1191,-4.1191,-4.1406,-4.1816,-4.2656,-4.3516,-4.4394,-4.5254,-4.5644,-4.5566,-4.4258,-4.3457,-4.2949,-4.1699,-4.1191,-4.1191,-4.1191,-4.1191,-4.1191,-4.1191,-4.1191,-4.1191,-4.1191,-4.1191,-4.1191,-4.1191,-4.1191,-4.1191,0.0,0.0,0.0,0.0,0.0,0.0,0.0,0.0,0.0,0.0,0.0,0.0,0.0,0.0,-4.0863,0.0,0.0,-4.1506,-4.2313,-4.245,-4.2739,-4.3585,-4.4047,-4.4143,-4.3739,-4.4085,-4.4509,-4.4913,-4.496,-4.5133,-4.5575,-4.5594,-4.5594,-4.5594,-4.5594,-4.5594,-4.5594,-4.5594,-4.5594,-4.5594,-4.5594,-4.5594,-4.5594,-4.5594,-4.5594,-4.5594,-4.5594,-4.5594,-4.5594,-4.5594,-4.5594,-4.5594,-4.5594,-4.5344,-4.4816,-4.3547,-4.2816,-4.2393,-4.195,-4.1527,-4.1143,0.0,0.0,0.0,0.0,0.0,0.0,0.0,0.0,-3.7815,-3.7988,-3.9323,-4.0323,-4.0477,-4.0496,-4.0512,-4.0549,-4.0692,0.0,0.0,-4.1127,-4.1191,-4.1191,-4.1191,-4.1191,-4.1191,-4.1191,-4.1191,-4.1191,-4.1191,-4.1289,-4.1465,-4.2812,-4.3535,-4.3769,-4.5176,-4.5781,-4.5683,-4.4121,-4.3457,-4.332,-4.1816,-4.1191,-4.1191,-4.1191,-4.1191,-4.1191,-4.1191,-4.1191,-4.1191,-4.1191,-4.1191,-4.1191,-4.1191,-4.1191,-4.1191,-4.1191,-4.1191,0.0,0.0,0.0,0.0,0.0,0.0,0.0,0.0,0.0,-4.0955,-4.0989,-4.0951,-4.1171,-4.206,-4.2136,-4.2335,-4.3181,-4.3335,-4.3624,-4.4432,-4.4547,-4.4547,-4.4547,-4.5171,-4.5594,-4.5594,-4.5594,-4.5594,-4.5594,-4.5594,-4.5594,-4.5594,-4.5594,-4.5594,-4.5594,-4.5594,-4.5594,-4.5594,-4.5594,-4.5594,-4.5594,-4.5594,-4.5594,-4.5594,-4.5594,-4.5594,-4.5594,-4.5594,-4.5594,-4.5594,-4.5594,-4.5594,-4.5537,-4.4816,-4.4162,-4.3547,-4.322,-4.2662,-4.2019,0.0,0.0,0.0,0.0,0.0,0.0,0.0,0.0,0.0,-3.7892,-3.8834,-3.9708,-4.0419,-4.0496,-4.0545,-4.0681,0.0,0.0,-4.0992,-4.1127,-4.1191,-4.1191,-4.1191,-4.1191,-4.1191,-4.1191,-4.1191,-4.1191,-4.1191,-4.1562,-4.2266,-4.2461,-4.2969,-4.3711,-4.3906,-4.3984,-4.3926,-4.2969,-4.2558,-4.2461,-4.1562,-4.1191,-4.1191,-4.1191,-4.1191,-4.1191,-4.1191,-4.1191,-4.1191,-4.1191,-4.1191,-4.1191,-4.1191,-4.1191,-4.1191,-4.1191,0.0,-4.1191,-4.1191,-4.1106,-4.1023,-4.1023,-4.092,-4.0813,0.0,0.0,-4.0916,-4.155,-4.169,-4.1944,-4.281,-4.2967,-4.322,-4.4028,-4.4162,-4.447,-4.5325,-4.546,-4.546,-4.546,-4.5537,-4.5594,-4.5594,-4.5594,-4.5594,-4.5594,-4.5594,-4.5594,-4.5594,-4.5594,-4.5594,-4.5594,-4.5594,-4.5594,-4.5594,-4.5594,-4.5594,-4.5594,-4.5594,-4.5594,-4.5594,-4.5594,-4.5594,-4.5594,-4.5594,-4.5594,-4.5594,-4.5594,-4.5594,-4.5594,-4.5498,-4.5402,-4.5152,-4.3643,-4.3047,-4.2835,0.0,0.0,0.0,0.0,0.0,0.0,0.0,0.0,0.0,0.0,-3.8757,-3.9611,-4.0419,-4.0574,-4.0643,-4.0692,0.0,0.0,-4.0994,-4.1127,-4.1191,-4.1191,-4.1191,-4.1191,-4.1191,-4.1191,-4.1191,-4.1191,-4.1191,-4.1367,-4.1719,-4.2187,-4.2598,-4.2969,-4.3476,-4.3691,-4.3633,-4.2773,-4.2402,-4.2324,-4.1523,-4.1191,-4.1191,-4.1191,-4.1191,-4.1191,-4.1191,-4.1191,0.0,0.0,-4.1191,-4.1191,-4.1191,-4.1191,-4.1191,-4.1191,-4.1191,0.0,-4.1104,0.0,0.0,0.0,-4.1578,-4.1604,-4.2046,-4.2143,-4.2235,-4.2491,-4.2566,-4.2816,-4.3643,-4.3797,-4.4066,0.0,-4.5056,-4.519,-4.5556,-4.5594,-4.5594,-4.5594,-4.5594,-4.5594,-4.5594,-4.5594,-4.5594,-4.5594,-4.5594,-4.5594,-4.5594,-4.5594,-4.5594,-4.5594,-4.5594,-4.5594,-4.5594,-4.5594,-4.5594,-4.5594,-4.5594,-4.5594,-4.5594,-4.5594,-4.5594,-4.5594,-4.5594,-4.5594,-4.5594,-4.5594,-4.5594,-4.5594,-4.5594,-4.5594,-4.5518,-4.4806,-4.422,-4.3739,0.0,0.0,0.0,0.0,0.0,0.0,0.0,0.0,0.0,0.0,0.0,-3.9338,-4.0436,-4.0649,-4.0713,0.0,0.0,0.0,0.0,-4.1149,-4.1191,-4.1191,-4.1191,-4.1191,-4.1191,-4.1191,-4.1191,-4.1191,-4.1191,-4.1191,-4.1211,-4.1797,-4.207,-4.2109,-4.2734,-4.3008,-4.2969,-4.2344,-4.207,-4.2012,-4.1426,-4.1191,-4.1191,-4.1191,-4.1191,-4.1191,-4.1191,-4.1191,0.0,0.0,-4.1191,-4.1191,-4.1191,-4.1191,-4.123,-4.1465,-4.1699,-4.1854,-4.175,0.0,0.0,-4.2407,-4.2352,-4.2466,-4.3039,-4.3174,-4.3217,-4.3407,-4.3431,-4.3682,-4.4509,-4.4662,-4.4874,-4.5498,-4.5594,-4.5594,-4.5594,-4.5594,-4.5594,-4.5594,-4.5594,-4.5594,-4.5594,-4.5594,-4.5594,-4.5594,-4.5594,-4.5594,-4.5594,-4.5594,-4.5594,-4.5594,-4.5594,-4.5594,-4.5594,-4.5594,-4.5594,-4.5594,-4.5594,-4.5594,-4.5594,-4.5594,-4.5594,-4.5594,-4.5594,-4.5594,-4.5594,-4.5594,-4.5594,-4.5594,-4.5594,-4.5594,-4.5594,-4.5594,-4.521,-4.4624,0.0,0.0,0.0,0.0,0.0,0.0,0.0,0.0,0.0,0.0,0.0,0.0,0.0,0.0,0.0,0.0,0.0,0.0,0.0,-4.1191,-4.1191,-4.1191,-4.1191,-4.1191,-4.1191,-4.1191,-4.1191,-4.1191,-4.1191,-4.1191,-4.1191,-4.1211,-4.123,-4.123,-4.1269,-4.1289,-4.1269,-4.125,-4.123,-4.123,-4.1211,-4.1191,-4.1191,-4.1191,-4.1191,-4.1191,-4.1191,0.0,0.0,0.0,-4.1191,-4.1191,-4.1191,-4.1191,0.0,-4.2129,-4.2969,-4.3612,0.0,0.0,-4.332,-4.3199,-4.3125,-4.3074,-4.3094,-4.3094,-4.3324,-4.4105,-4.4259,-4.4528,-4.5402,-4.5556,-4.5575,-4.5594,-4.5594,-4.5594,-4.5594,-4.5594,-4.5594,-4.5594,-4.5594,-4.5594,0.0,-4.5594,-4.5594,-4.5594,-4.5594,-4.5594,-4.5594,-4.5594,-4.5594,-4.5594,-4.5594,-4.5594,-4.5594,-4.5594,-4.5594,-4.5594,-4.5594,-4.5594,-4.5594,-4.5594,-4.5594,-4.5594,-4.5594,-4.5594,-4.5594,-4.5594,-4.5594,-4.5594,-4.5594,-4.5594,-4.5594,-4.5594,-4.5575,-4.5441,0.0,0.0,0.0,0.0,0.0,0.0,0.0,0.0,0.0,0.0,0.0,0.0,0.0,0.0,0.0,0.0,0.0,0.0,0.0,-4.1191,-4.1191,-4.1191,-4.1191,-4.1191,-4.1191,-4.1191,-4.1191,-4.1191,-4.1191,-4.1191,-4.1191,-4.1191,-4.1191,-4.1191,-4.1191,-4.1191,-4.1191,-4.1191,-4.1191,-4.1191,-4.1191,-4.1191,-4.1191,-4.1191,-4.1191,-4.1191,0.0,0.0,0.0,0.0,-4.1191,-4.1191,-4.1191,-4.1562,-4.2168,-4.3008,-4.3824,-4.4288,-4.3637,0.0,-4.4096,-4.3948,-4.3904,-4.4047,-4.4624,-4.4767,-4.4844,-4.5114,-4.5171,-4.5248,-4.5556,-4.5594,-4.5594,-4.5594,-4.5594,-4.5594,-4.5594,-4.5594,-4.5594,-4.5594,-4.5594,0.0,0.0,0.0,0.0,-4.5594,-4.5594,-4.5594,-4.5594,-4.5594,-4.5594,-4.5594,-4.5594,-4.5594,-4.5594,-4.5594,-4.5594,-4.5594,-4.5594,-4.5594,-4.5594,-4.5594,-4.5594,-4.5594,-4.5594,-4.5594,-4.5594,-4.5594,-4.5594,-4.5594,-4.5594,-4.5594,-4.5594,-4.5594,-4.5594,-4.5556,0.0,0.0,0.0,0.0,0.0,0.0,0.0,0.0,0.0,0.0,0.0,0.0,0.0,0.0,0.0,0.0,0.0,0.0,0.0,0.0,-4.1191,-4.1191,-4.1191,-4.1191,-4.1191,-4.1191,-4.1191,-4.1191,-4.1191,-4.1191,-4.1191,-4.1191,-4.1191,-4.1191,-4.1191,-4.1191,-4.1191,-4.1191,-4.1191,-4.1191,-4.1191,-4.1191,-4.1191,-4.1191,-4.1191,0.0,0.0,0.0,0.0,0.0,-4.1191,-4.125,-4.1543,-4.2402,-4.3437,-4.3941,-4.4648,-4.5114,-4.4437,-4.4597,-4.4924,-4.4798,-4.4759,-4.4913,-4.5479,-4.5594,-4.5594,-4.5594,-4.5594,-4.5594,-4.5594,-4.5594,-4.5594,-4.5594,-4.5594,-4.5594,-4.5594,-4.5594,-4.5594,-4.5594,-4.5594,-4.5594,0.0,0.0,0.0,-4.5594,-4.5594,-4.5594,-4.5594,-4.5594,-4.5594,-4.5594,-4.5594,-4.5594,-4.5594,-4.5594,-4.5594,-4.5594,-4.5594,-4.5594,-4.5594,-4.5594,-4.5594,-4.5594,-4.5594,-4.5594,-4.5594,-4.5594,-4.5594,-4.5594,-4.5594,-4.5594,-4.5594,-4.5594,-4.5594,-4.5594,0.0,0.0,0.0,0.0,0.0,0.0,0.0,0.0,0.0,0.0,0.0,0.0,0.0,0.0,0.0,0.0,0.0,0.0,0.0,0.0,0.0,-4.1191,-4.1191,-4.1191,-4.1191,-4.1191,-4.1191,-4.1191,-4.1191,-4.1191,-4.1191,-4.1191,-4.1191,-4.1191,-4.1191,-4.1191,-4.1191,-4.1191,-4.1191,-4.1191,-4.1191,-4.1191,-4.1191,-4.1191,0.0,0.0,0.0,0.0,0.0,0.0,0.0,0.0,0.0,-4.3594,-4.4921,-4.4873,-4.5443,-4.6056,-4.585,-4.5796,-4.5761,-4.5627,-4.5594,-4.5594,-4.5594,-4.5594,-4.5594,-4.5594,-4.5594,-4.5594,0.0,0.0,-4.5594,-4.5594,-4.5594,-4.5594,-4.5594,-4.5594,-4.5594,0.0,0.0,0.0,0.0,0.0,0.0,-4.5594,0.0,-4.5594,-4.5594,-4.5594,-4.5594,-4.5594,-4.5594,-4.5594,-4.5594,-4.5594,-4.5594,-4.5594,-4.5594,-4.5594,-4.5594,-4.5594,-4.5594,-4.5594,-4.5594,-4.5594,-4.5594,-4.5594,-4.5594,-4.5594,-4.5594,-4.5594,-4.5594,-4.5594,-4.5594,-4.5594,0.0,0.0,0.0,0.0,0.0,0.0,0.0,0.0,0.0,0.0,0.0,0.0,0.0,0.0,0.0,0.0,0.0,0.0,0.0,0.0,0.0,0.0,0.0,0.0,0.0,0.0,0.0,0.0,-4.1191,-4.1191,-4.1191,-4.1191,-4.1191,-4.1191,-4.1191,-4.1191,-4.1191,-4.1191,-4.1191,-4.1191,0.0,-4.1191,-4.1191,0.0,0.0,0.0,0.0,0.0,0.0,0.0,0.0,0.0,0.0,-4.3672,-4.4257,-4.5421,-4.5858,-4.5931,-4.584,-4.5737,-4.5643,-4.5603,-4.5594,-4.5594,-4.5594,-4.5594,-4.5594,-4.5594,-4.5594,-4.5594,0.0,0.0,0.0,-4.5594,-4.5594,0.0,-4.5594,-4.5594,0.0,-4.5594,0.0,-4.5594,-4.5594,-4.5594,0.0,0.0,-4.5594,-4.5594,-4.5594,-4.5594,-4.5594,-4.5594,-4.5594,-4.5594,-4.5594,-4.5594,-4.5594,-4.5594,-4.5594,-4.5594,-4.5594,-4.5594,-4.5594,-4.5594,-4.5594,-4.5594,-4.5594,-4.5594,-4.5594,-4.5594,-4.5594,-4.5594,-4.5594,-4.5594,-4.5594,-4.5594,0.0,0.0,0.0,0.0,0.0,0.0,0.0,0.0,0.0,0.0,0.0,0.0,0.0,0.0,0.0,0.0,0.0,0.0,0.0,0.0,0.0,0.0,0.0,0.0,0.0,0.0,0.0,0.0,0.0,0.0,-4.1191,-4.1191,-4.1191,-4.1191,-4.1191,-4.1191,-4.1191,-4.1191,0.0,0.0,0.0,0.0,0.0,0.0,0.0,0.0,0.0,0.0,0.0,0.0,0.0,-4.2461,-4.3398,-4.4238,-4.5019,-4.5851,0.0,-4.5891,-4.5828,-4.57,-4.5594,-4.5594,-4.5594,-4.5594,-4.5594,-4.5594,-4.5594,-4.5594,-4.5594,0.0,0.0,0.0,0.0,0.0,0.0,0.0,-4.5603,-4.5594,-4.5594,0.0,-4.5594,0.0,-4.5594,-4.5594,-4.5594,0.0,-4.5594,-4.5594,-4.5594,-4.5594,-4.5594,-4.5594,-4.5594,-4.5594,-4.5594,-4.5594,-4.5594,-4.5594,-4.5594,-4.5594,-4.5594,-4.5594,-4.5594,-4.5594,-4.5594,-4.5594,-4.5594,-4.5594,-4.5594,-4.5594,-4.5594,-4.5594,-4.5594,-4.5594,-4.5594,-4.5594,0.0,0.0,0.0,0.0,0.0,0.0,0.0,0.0,0.0,0.0,0.0,0.0,0.0,0.0,0.0,0.0,0.0,0.0,0.0,0.0,0.0,0.0,0.0,0.0,0.0,0.0,0.0,0.0,0.0,0.0,0.0,0.0,0.0,0.0,0.0,0.0,0.0,0.0,0.0,0.0,0.0,0.0,0.0,0.0,0.0,0.0,0.0,0.0,0.0,0.0,-4.2246,-4.3555,-4.3652,-4.4824,-4.6112,-4.6105,-4.6027,-4.5914,-4.5814,-4.5723,-4.561,-4.5603,-4.5612,-4.5637,-4.5637,-4.5624,-4.5632,-4.5627,0.0,-4.5629,-4.5594,-4.5715,-4.5761,-4.561,0.0,-4.5754,-4.5629,-4.5594,-4.5594,-4.5594,-4.5594,-4.5594,-4.5594,-4.5594,-4.5594,-4.5594,-4.5594,-4.5594,-4.5594,-4.5594,-4.5594,-4.5594,-4.5594,-4.5594,-4.5594,-4.5594,-4.5594,-4.5594,-4.5594,-4.5594,-4.5594,-4.5594,-4.5594,-4.5594,-4.5594,-4.5594,-4.5594,-4.5594,-4.5594,-4.5594,-4.5594,-4.5594,-4.5594,-4.5594,-4.5594,-4.5594,0.0,0.0,0.0,0.0,0.0,0.0,0.0,0.0,0.0,0.0,-3.6113,-3.6504,0.0,0.0,0.0,0.0,0.0,0.0,0.0,0.0,0.0,0.0,0.0,0.0,0.0,0.0,0.0,0.0,0.0,0.0,0.0,0.0,0.0,0.0,0.0,0.0,0.0,0.0,0.0,0.0,0.0,0.0,0.0,0.0,0.0,0.0,0.0,0.0,0.0,0.0,-4.1836,-4.2754,-4.3476,-4.4394,-4.5331,-4.5929,-4.6082,-4.6024,-4.5844,-4.5776,-4.5733,-4.5618,-4.5669,-4.5775,-4.5775,-4.5807,0.0,0.0,-4.5775,-4.5725,-4.5629,-4.5715,0.0,-4.561,0.0,0.0,0.0,0.0,-4.5594,0.0,0.0,0.0,0.0,0.0,0.0,0.0,0.0,-4.5594,-4.5594,-4.5594,-4.5594,-4.5594,-4.5594,-4.5594,-4.5594,-4.5594,-4.5594,-4.5594,-4.5594,-4.5594,-4.5594,-4.5594,-4.5594,-4.5594,-4.5594,0.0,-4.5594,-4.5594,-4.5594,-4.5594,-4.5594,-4.5594,-4.5594,-4.5594,-4.5594,-4.5594,0.0,0.0,0.0,0.0,0.0,0.0,0.0,-3.5834,-3.5951,-3.5996,-3.5996,-3.6152,-3.6582,-3.7031,-3.7637,0.0,0.0,0.0,0.0,0.0,0.0,0.0,0.0,0.0,0.0,0.0,0.0,0.0,0.0,0.0,0.0,0.0,0.0,0.0,0.0,0.0,0.0,0.0,0.0,0.0,0.0,0.0,0.0,0.0,0.0,0.0,0.0,0.0,0.0,0.0,-4.2031,-4.3144,-4.3574,-4.4609,-4.5742,-4.6107,-4.6149,-4.6077,-4.5975,-4.592,-4.5847,-4.577,-4.5794,-4.5845,-4.5845,0.0,0.0,0.0,-4.5845,-4.5822,-4.5764,0.0,0.0,0.0,0.0,0.0,0.0,0.0,0.0,0.0,0.0,0.0,0.0,0.0,0.0,0.0,0.0,-4.5594,-4.5594,-4.5594,-4.5594,-4.5594,-4.5594,-4.5594,-4.5594,-4.5594,-4.5594,-4.5594,-4.5594,-4.5594,-4.5594,-4.5594,-4.5594,-4.5594,-4.5594,-4.5594,-4.5594,-4.5594,-4.5594,-4.5594,-4.5594,-4.5594,-4.5594,-4.5594,-4.5594,-4.5594,0.0,0.0,0.0,0.0,0.0,0.0,0.0,-3.5821,-3.5945,-3.5996,-3.5996,-3.5996,-3.5996,-3.6601,-3.7109,0.0,0.0,0.0,0.0,0.0,0.0,0.0,0.0,0.0,0.0,0.0,0.0,0.0,0.0,0.0,0.0,0.0,0.0,0.0,0.0,0.0,0.0,0.0,0.0,0.0,0.0,0.0,0.0,0.0,0.0,0.0,0.0,0.0,0.0,0.0,-4.2305,-4.3691,-4.3691,-4.4902,-4.6308,-4.6308,-4.6224,-4.6144,-4.6113,-4.6011,-4.5932,-4.5907,-4.592,-4.5936,-4.5936,-4.5971,0.0,0.0,-4.5936,-4.5928,-4.5903,0.0,0.0,0.0,0.0,0.0,0.0,0.0,0.0,0.0,0.0,0.0,0.0,0.0,0.0,0.0,0.0,-4.5627,-4.5594,-4.5594,-4.5612,-4.5643,-4.562,-4.562,-4.5643,-4.5643,-4.5618,-4.5594,-4.5629,-4.5653,-4.5643,-4.5653,-4.5658,-4.5658,-4.5658,-4.5673,-4.5643,-4.5643,-4.5643,-4.5643,-4.5612,-4.5635,-4.5661,-4.5629,-4.5635,-4.5669,0.0,0.0,0.0,0.0,0.0,0.0,0.0,-3.5871,-3.5996,-3.5996,-3.5996,-3.5996,-3.5996,-3.6074,-3.6445,0.0,0.0,0.0,0.0,0.0,0.0,0.0,0.0,0.0,0.0,0.0,0.0,-4.1021,-4.1149,0.0,0.0,0.0,0.0,0.0,0.0,0.0,0.0,0.0,0.0,0.0,0.0,0.0,0.0,0.0,0.0,0.0,0.0,0.0,0.0,0.0,0.0,-4.3691,-4.3691,-4.4902,-4.6308,-4.6308,0.0,0.0,-4.6122,-4.6084,-4.6047,-4.5924,-4.5992,-4.6082,-4.6082,0.0,0.0,-4.6113,-4.6082,-4.6042,-4.592,-4.5995,-4.6018,0.0,0.0,-4.5959,0.0,0.0,0.0,0.0,0.0,0.0,0.0,0.0,0.0,0.0,0.0,-4.5718,-4.5603,-4.5594,-4.5668,-4.5769,-4.5657,-4.5648,-4.5776,-4.5776,-4.573,-4.5594,-4.5782,-4.5839,-4.5783,-4.585,-4.5867,-4.5867,-4.5867,-4.5834,0.0,-4.5776,-4.5776,-4.5782,-4.5651,-4.5708,-4.5857,-4.5665,-4.5715,-4.5872,0.0,0.0,0.0,0.0,0.0,0.0,-3.5707,-3.5874,-3.5996,-3.5996,-3.5996,-3.5996,-3.5996,-3.5996,-3.6133,-3.6484,0.0,0.0,0.0,0.0,0.0,0.0,0.0,0.0,0.0,0.0,-4.1054,-4.0996,-4.1129,0.0,0.0,0.0,0.0,0.0,0.0,0.0,0.0,0.0,0.0,0.0,0.0,0.0,0.0,0.0,0.0,0.0,0.0,0.0,0.0,0.0,0.0,0.0,-4.4316,-4.5312,0.0,0.0,-4.6308,-4.6289,-4.6226,-4.6223,-4.6202,-4.6149,-4.6175,-4.6223,-4.6223,0.0,-4.6289,-4.6225,-4.6223,-4.6201,-4.6147,-4.6117,-4.6106,-4.6092,0.0,0.0,0.0,0.0,0.0,0.0,0.0,0.0,0.0,0.0,0.0,0.0,0.0,-4.5839,-4.5776,-4.5776,-4.5799,-4.5861,-4.5805,-4.5805,-4.5861,-4.5861,-4.5834,-4.5776,-4.5852,-4.5896,-4.5866,-4.5896,-4.5899,-4.5899,-4.5899,-4.5872,0.0,-4.5861,-4.5861,-4.5855,-4.5799,-4.5831,-4.589,-4.5817,-4.5831,-4.5894,0.0,0.0,0.0,0.0,0.0,-3.5707,-3.5707,-3.5874,-3.5996,-3.5996,-3.5996,-3.5996,-3.5996,-3.5996,-3.5996,-3.5996,-3.6562,0.0,0.0,0.0,0.0,0.0,0.0,0.0,0.0,0.0,-4.0939,-4.0916,-4.1021,-4.1103,0.0,0.0,0.0,0.0,0.0,0.0,0.0,0.0,0.0,0.0,0.0,0.0,0.0,0.0,0.0,0.0,0.0,0.0,0.0,0.0,0.0,0.0,0.0,0.0,0.0,0.0,-4.6308,-4.6308,-4.6308,-4.6308,-4.6308,-4.6308,-4.6308,-4.6308,0.0,0.0,-4.6308,-4.6308,-4.6308,-4.6308,-4.6308,-4.6224,-4.6175,-4.6226,0.0,-4.6021,0.0,0.0,0.0,0.0,0.0,0.0,0.0,0.0,0.0,0.0,0.0,-4.5967,-4.5967,-4.5995,-4.5995,-4.5967,-4.5916,-4.5916,-4.5967,-4.5967,-4.5932,-4.5903,-4.5981,-4.5995,-4.5967,-4.5995,-4.6027,-4.6027,-4.6027,-4.5992,0.0,-4.5967,-4.5967,-4.5963,-4.5912,-4.5959,-4.6001,-4.5924,-4.594,-4.6005,0.0,0.0,0.0,0.0,0.0,0.0,-3.5707,-3.5874,-3.5996,-3.5996,-3.5996,-3.5996,-3.5996,-3.5996,-3.5996,-3.5996,-3.6016,0.0,0.0,0.0,0.0,0.0,0.0,0.0,0.0,0.0,-4.0766,-4.0703,-4.0766,-4.087,-4.0996,-4.0996,-4.1077,-4.1191,0.0,0.0,0.0,0.0,0.0,0.0,0.0,0.0,0.0,0.0,0.0,0.0,0.0,0.0,0.0,0.0,0.0,0.0,0.0,0.0,0.0,0.0,-4.6308,-4.6308,-4.6308,-4.6308,-4.6308,-4.6308,-4.6308,-4.6308,0.0,0.0,-4.6308,-4.6308,-4.6308,-4.6308,-4.6308,-4.6308,-4.6248,-4.6119,-4.6202,0.0,0.0,0.0,0.0,0.0,0.0,0.0,0.0,0.0,0.0,0.0,0.0,0.0,-4.6108,-4.6224,-4.6245,-4.6091,-4.5974,-4.5951,-4.6108,-4.6108,-4.6036,-4.5903,-4.6173,-4.6224,-4.6091,-4.6245,-4.6308,-4.6308,-4.6308,-4.6223,0.0,-4.6108,-4.6108,-4.6082,-4.5944,-4.6053,-4.6268,-4.5995,-4.6075,-4.6288,0.0,0.0,0.0,0.0,0.0,0.0,0.0,-3.5874,-3.5996,-3.5996,-3.5996,-3.5996,-3.5996,-3.5996,-3.5996,-3.5996,-3.5996,0.0,0.0,0.0,0.0,0.0,0.0,0.0,0.0,0.0,-4.0114,-4.0697,-4.0761,-4.0816,-4.0867,-4.0957,-4.1023,-4.1076,-4.1151,0.0,0.0,0.0,0.0,0.0,0.0,0.0,0.0,0.0,0.0,0.0,0.0,0.0,0.0,0.0,0.0,0.0,0.0,0.0,0.0,0.0,0.0,0.0,-4.6308,-4.6308,-4.6308,-4.6308,-4.6308,-4.6308,-4.6308,0.0,-4.6308,-4.6308,-4.6308,-4.6308,-4.6308,-4.6308,-4.6289,-4.6247,-4.6199,0.0,0.0,0.0,0.0,0.0,0.0,0.0,0.0,0.0,0.0,0.0,0.0,-4.6245,-4.6245,-4.6288,-4.6289,-4.6246,-4.6199,-4.6199,-4.6245,-4.6245,-4.6222,-4.6174,-4.6268,-4.6289,-4.6246,-4.6289,-4.6308,-4.6308,-4.6308,-4.6288,-4.6245,-4.6245,-4.6245,-4.6226,-4.6198,-4.6224,-4.6289,-4.6201,-4.6225,-4.6289,0.0,0.0,0.0,0.0,0.0,0.0,0.0,-3.5874,-3.5996,-3.5996,-3.5996,-3.5996,-3.5996,-3.5996,-3.5996,-3.5996,-3.5996,0.0,0.0,0.0,0.0,0.0,0.0,0.0,-3.8443,-3.9044,-3.9631,-4.0166,-4.0521,-4.0708,-4.0752,-4.0844,-4.0893,-4.0925,-4.1056,-4.1127,0.0,0.0,0.0,0.0,0.0,0.0,-4.1191,0.0,0.0,0.0,0.0,0.0,0.0,0.0,0.0,0.0,0.0,0.0,0.0,0.0,-4.6308,0.0,0.0,-4.6308,-4.6308,-4.6308,-4.6308,0.0,0.0,0.0,-4.6308,-4.6308,-4.6308,-4.6308,-4.6308,-4.6308,-4.6308,-4.6308,-4.6225,0.0,0.0,0.0,0.0,0.0,0.0,0.0,0.0,0.0,0.0,0.0,-4.6248,-4.6308,-4.6308,-4.6308,-4.6308,-4.6308,-4.6308,-4.6308,-4.6308,-4.6308,-4.6308,-4.6308,-4.6308,-4.6308,-4.6308,-4.6308,-4.6308,-4.6308,-4.6308,-4.6308,0.0,-4.6308,-4.6308,-4.6308,-4.6308,-4.6308,-4.6308,-4.6308,-4.6308,-4.6308,0.0,0.0,0.0,0.0,0.0,0.0,0.0,-3.5874,-3.5996,-3.5996,-3.5996,-3.5996,-3.5996,-3.5996,-3.5996,-3.5996,0.0,0.0,0.0,0.0,0.0,0.0,0.0,0.0,-3.6886,-3.8342,-3.9188,-3.9304,-4.0054,-4.0509,-4.068,-4.0692,-4.0731,-4.0793,-4.0922,-4.099,-4.0994,-4.1128,-4.1191,-4.1191,-4.1191,-4.1191,0.0,0.0,0.0,0.0,0.0,0.0,0.0,0.0,0.0,0.0,0.0,0.0,0.0,0.0,0.0,0.0,0.0,0.0,0.0,0.0,0.0,0.0,0.0,0.0,0.0,-4.6308,-4.6308,-4.6308,-4.6308,-4.6308,-4.6308,-4.6308,0.0,0.0,0.0,0.0,0.0,0.0,0.0,0.0,0.0,0.0,0.0,-4.6289,-4.6308,-4.6308,-4.6308,-4.6308,-4.6308,-4.6308,-4.6308,-4.6308,-4.6308,-4.6308,-4.6308,-4.6308,-4.6308,-4.6308,-4.6308,-4.6308,-4.6308,0.0,-4.6308,-4.6308,-4.6308,-4.6308,-4.6308,-4.6308,-4.6308,-4.6308,-4.6308,-4.6308,-4.6308,-4.6308,0.0,0.0,0.0,0.0,0.0,0.0,0.0,0.0,0.0,0.0,-3.5996,-3.5996,-3.5996,-3.5996,-3.5996,0.0,0.0,0.0,0.0,0.0,0.0,0.0,0.0,0.0,-3.6723,-3.7125,-3.7969,-3.9304,-3.9496,-3.9903,-4.0545,-4.0642,-4.0715,-4.074,-4.0809,-4.0854,-4.086,-4.0992,-4.1051,-4.1054,-4.1151,-4.1191,0.0,0.0,0.0,0.0,-4.1894,-4.2246,0.0,0.0,0.0,0.0,0.0,0.0,0.0,0.0,-4.6308,-4.6308,-4.6308,0.0,-4.6308,-4.6308,-4.6308,0.0,0.0,0.0,0.0,0.0,0.0,0.0,0.0,0.0,0.0,0.0,0.0,0.0,0.0,0.0,0.0,0.0,0.0,0.0,0.0,0.0,0.0,-4.6308,-4.6308,-4.6308,-4.6308,-4.6308,-4.6308,-4.6308,-4.6308,-4.6308,-4.6308,-4.6308,-4.6308,-4.6308,-4.6308,-4.6308,-4.6308,-4.6308,-4.6308,-4.6308,-4.6308,-4.6308,-4.6308,-4.6308,-4.6308,-4.6308,-4.6308,-4.6308,-4.6308,-4.6308,-4.6308,-4.6308,0.0,0.0,0.0,0.0,0.0,0.0,0.0,0.0,0.0,0.0,0.0,0.0,0.0,0.0,0.0,0.0,0.0,0.0,0.0,0.0,0.0,0.0,0.0,-3.5733,-3.6135,-3.65,-3.7353,-3.87,-3.9111,-3.9708,-4.0496,-4.0561,-4.061,-4.0616,-4.0715,-4.077,-4.0805,-4.093,-4.0996,-4.1019,-4.1149,0.0,0.0,0.0,0.0,0.0,-4.2109,-4.2656,0.0,-4.4551,-4.5273,-4.5683,0.0,0.0,0.0,0.0,-4.6308,-4.6308,-4.6308,-4.6308,-4.6308,-4.6308,-4.6308,-4.6308,0.0,0.0,0.0,0.0,0.0,0.0,0.0,0.0,0.0,0.0,0.0,0.0,0.0,0.0,0.0,0.0,0.0,0.0,0.0,0.0,-4.6308,-4.6308,-4.6308,-4.6308,-4.6308,-4.6308,-4.6308,-4.6308,-4.6308,-4.6308,-4.6308,-4.6308,-4.6308,-4.6308,-4.6308,-4.6308,-4.6308,-4.6308,-4.6308,-4.6308,-4.6308,-4.6308,-4.6308,-4.6308,-4.6308,-4.6308,-4.6308,-4.6308,-4.6308,-4.6308,-4.6308,-4.6308,0.0,0.0,0.0,0.0,0.0,0.0,0.0,0.0,0.0,0.0,0.0,0.0,0.0,0.0,0.0,0.0,0.0,0.0,0.0,0.0,0.0,0.0,-3.5522,-3.55,-3.55,-3.6173,-3.6942,-3.7796,-3.8661,-3.9515,-4.0323,-4.0439,-4.0496,-4.0504,-4.0623,-4.0699,-4.0755,-4.0896,-4.0955,-4.0988,-4.1126,0.0,0.0,0.0,0.0,0.0,0.0,0.0,0.0,-4.4902,-4.5683,-4.6308,-4.6308,0.0,0.0,0.0,0.0,0.0,-4.6308,-4.6308,-4.6308,-4.6308,-4.6308,-4.6308,0.0,0.0,0.0,0.0,0.0,0.0,0.0,0.0,0.0,0.0,0.0,0.0,0.0,0.0,0.0,0.0,0.0,0.0,0.0,-4.6308,-4.6308,-4.6308,-4.6308,-4.6308,-4.6308,-4.6308,-4.6308,-4.6308,-4.6308,-4.6308,-4.6308,-4.6308,-4.6308,-4.6308,-4.6308,-4.6308,-4.6308,-4.6308,-4.6308,-4.6308,-4.6308,0.0,-4.6308,-4.6308,-4.6308,-4.6308,-4.6308,-4.6308,-4.6308,-4.6308,-4.6308,-4.6308,0.0,0.0,0.0,0.0,0.0,0.0,0.0,0.0,0.0,0.0,0.0,0.0,0.0,0.0,0.0,0.0,0.0,0.0,0.0,0.0,0.0,-3.5509,-3.5514,-3.55,-3.55,-3.5615,-3.6077,-3.6904,-3.7777,-3.8642,-3.9496,-4.0189,-4.0496,-4.0496,-4.0527,-4.0537,-4.0561,-4.0684,-4.0776,-4.0831,-4.0986,0.0,0.0,0.0,0.0,0.0,0.0,0.0,0.0,-4.5801,-4.6191,-4.6308,-4.6308,0.0,0.0,0.0,0.0,0.0,-4.6308,-4.6308,-4.6308,-4.6308,-4.6308,-4.6308,0.0,0.0,0.0,0.0,0.0,0.0,0.0,0.0,0.0,0.0,0.0,0.0,0.0,0.0,0.0,0.0,0.0,0.0,0.0,-4.6308,-4.6308,-4.6308,-4.6308,-4.6308,-4.6308,-4.6308,-4.6308,-4.6308,-4.6308,-4.6308,-4.6308,-4.6308,-4.6308,-4.6308,-4.6308,-4.6308,-4.6308,-4.6308,-4.6308,-4.6308,0.0,-4.6308,-4.6308,-4.6308,-4.6308,-4.6308,-4.6308,-4.6308,-4.6308,-4.6308,-4.6308,-4.6308,0.0,0.0,0.0,0.0,0.0,0.0,0.0,0.0,0.0,0.0,0.0,0.0,0.0,0.0,0.0,0.0,0.0,0.0,0.0,0.0,-3.5599,-3.5564,-3.5515,-3.55,-3.55,-3.55,-3.5885,-3.6692,-3.7565,-3.845,-3.9323,-4.0131,-4.0496,-4.0496,-4.0496,-4.0496,-4.0512,-4.063,-4.0747,-4.0801,0.0,0.0,0.0,0.0,0.0,0.0,0.0,0.0,0.0,0.0,-4.6308,-4.6308,-4.6308,0.0,0.0,0.0,0.0,0.0,-4.6308,-4.6308,-4.6308,-4.6308,-4.6308,-4.6308,-4.6308,0.0,0.0,0.0,0.0,0.0,0.0,0.0,0.0,0.0,0.0,0.0,0.0,0.0,0.0,0.0,0.0,0.0,-4.6308,-4.6308,-4.6308,-4.6308,-4.6308,-4.6308,-4.6308,-4.6308,-4.6308,-4.6308,-4.6308,-4.6308,-4.6308,-4.6308,-4.6308,-4.6308,-4.6308,-4.6308,-4.6308,-4.6308,-4.6308,-4.6308,0.0,-4.6308,-4.6308,-4.6308,-4.6308,-4.6308,-4.6308,-4.6308,-4.6308,-4.6308,-4.6308,-4.6308,0.0,0.0,0.0,0.0,0.0,0.0,0.0,0.0,0.0,0.0,0.0,0.0,0.0,0.0,0.0,0.0,0.0,0.0,0.0,0.0,-3.5577,-3.5577,-3.5534,-3.55,-3.55,-3.55,-3.5885,-3.6692,-3.7565,-3.8546,-3.9592,-4.0208,-4.0496,-4.0496,-4.0496,-4.0496,-4.0504,-4.061,-4.0693,-4.0779,0.0,0.0,0.0,0.0,0.0,0.0,0.0,0.0,0.0,0.0,0.0,0.0,0.0,0.0,0.0,-4.6247,-4.6248,-4.6268,-4.6289,-4.6308,-4.6308,-4.6308,0.0,-4.6308,-4.6308,0.0,0.0,0.0,0.0,0.0,0.0,0.0,0.0,0.0,0.0,0.0,0.0,0.0,-4.6147,-4.6147,-4.6246,-4.6308,-4.6308,-4.6308,-4.6308,-4.6308,-4.6308,-4.6308,-4.6308,-4.6308,-4.6308,-4.6308,-4.6308,-4.6308,-4.6308,-4.6308,-4.6308,-4.6308,-4.6308,-4.6308,-4.6308,-4.6308,-4.6308,-4.6308,-4.6308,-4.6308,-4.6308,-4.6308,-4.6308,-4.6308,-4.6308,-4.6308,-4.6308,-4.6308,-4.6308,-4.6308,0.0,0.0,0.0,0.0,0.0,0.0,0.0,0.0,0.0,0.0,0.0,0.0,0.0,0.0,0.0,0.0,0.0,0.0,0.0,0.0,-3.5501,-3.5501,-3.5507,-3.55,-3.55,-3.55,-3.5885,-3.6692,-3.7565,-3.8834,-4.0419,-4.0477,-4.0496,-4.0496,-4.0496,-4.0496,-4.0496,-4.0512,-4.0582,-4.0715,-4.0715,0.0,0.0,0.0,0.0,0.0,0.0,0.0,0.0,0.0,0.0,0.0,0.0,0.0,-4.5944,-4.608,-4.6115,-4.6145,-4.6268,-4.6308,-4.6308,-4.6308,0.0,0.0,-4.6308,-4.6308,0.0,0.0,0.0,0.0,0.0,0.0,0.0,0.0,0.0,0.0,0.0,0.0,-4.6289,-4.6289,-4.6289,-4.6308,-4.6308,-4.6308,-4.6308,-4.6308,-4.6308,-4.6308,-4.6308,-4.6308,-4.6308,-4.6308,-4.6308,-4.6308,-4.6308,-4.6308,-4.6308,-4.6308,-4.6308,-4.6308,-4.6308,-4.6308,-4.6308,-4.6308,-4.6308,-4.6308,-4.6308,-4.6308,-4.6308,-4.6308,-4.6308,-4.6308,-4.6308,-4.6308,-4.6308,-4.6308,0.0,0.0,0.0,0.0,0.0,0.0,0.0,0.0,0.0,0.0,0.0,0.0,0.0,0.0,0.0,0.0,0.0,0.0,0.0,-3.5616,-3.554,-3.5507,-3.55,-3.55,-3.55,-3.55,-3.5885,-3.6692,-3.8123,-3.94,-4.0496,-4.0496,-4.0496,-4.0496,-4.0496,-4.0496,-4.0496,-4.0496,-4.0588,-4.0692,-4.061,-4.0649,0.0,0.0,0.0,0.0,0.0,0.0,0.0,0.0,-4.5899,-4.5899,-4.5899,-4.5899,-4.5907,-4.5967,-4.6036,-4.6113,-4.6152,-4.6245,-4.6308,-4.6308,0.0,0.0,0.0,0.0,0.0,0.0,0.0,0.0,0.0,0.0,0.0,0.0,0.0,0.0,0.0,0.0,-4.6308,-4.6308,-4.6308,-4.6308,-4.6308,-4.6308,-4.6308,-4.6308,-4.6308,-4.6308,-4.6308,-4.6308,-4.6308,-4.6308,-4.6308,-4.6308,-4.6308,-4.6308,-4.6308,-4.6308,-4.6308,-4.6308,-4.6308,-4.6308,-4.6308,-4.6308,-4.6308,-4.6308,-4.6308,-4.6308,-4.6308,-4.6308,-4.6308,-4.6308,-4.6308,-4.6308,-4.6308,-4.6308,0.0,0.0,0.0,0.0,0.0,0.0,0.0,0.0,0.0,0.0,0.0,0.0,0.0,0.0,0.0,0.0,0.0,0.0,-3.5683,-3.5601,-3.5546,-3.5507,-3.55,-3.55,-3.55,-3.55,-3.6019,-3.7123,-3.8834,-3.9958,-4.0496,-4.0496,-4.0496,-4.0496,-4.0496,-4.0496,-4.0496,-4.0496,-4.0552,-4.063,-4.0549,-4.0726,0.0,0.0,0.0,0.0,0.0,0.0,0.0,0.0,-4.5811,-4.5811,-4.5811,-4.5811,-4.5803,-4.5866,-4.5948,-4.6045,-4.6084,-4.62,-4.6308,0.0,0.0,0.0,0.0,0.0,0.0,0.0,0.0,0.0,0.0,0.0,0.0,0.0,0.0,0.0,0.0,-4.6308,-4.6308,-4.6308,-4.6308,-4.6308,-4.6308,-4.6308,-4.6308,-4.6308,-4.6308,-4.6308,-4.6308,-4.6308,-4.6308,-4.6308,-4.6308,-4.6308,-4.6308,-4.6308,-4.6308,-4.6308,-4.6308,-4.6308,-4.6308,-4.6308,-4.6308,-4.6308,-4.6308,-4.6308,-4.6308,-4.6308,-4.6308,-4.6308,-4.6308,-4.6269,-4.6245,-4.6245,-4.6047,-4.5785,0.0,0.0,0.0,0.0,0.0,0.0,0.0,0.0,0.0,0.0,0.0,0.0,0.0,0.0,0.0,0.0,0.0,0.0,-3.5596,-3.554,-3.55,-3.55,-3.55,-3.55,-3.55,-3.5519,-3.6346,-3.8007,-3.9688,-4.0496,-4.0496,-4.0496,-4.0496,-4.0496,-4.0496,-4.0496,-4.0496,-4.0496,-4.0496,-4.0496,-4.0496,-4.1027,-4.1904,0.0,0.0,0.0,0.0,0.0,0.0,0.0,-4.5594,-4.5594,-4.5594,-4.5594,-4.5637,-4.5761,-4.5853,-4.5924,-4.6053,-4.62,0.0,0.0,0.0,0.0,0.0,0.0,0.0,0.0,0.0,0.0,0.0,0.0,0.0,-4.6308,-4.6308,-4.6308,0.0,-4.6308,-4.6308,-4.6308,-4.6308,-4.6308,-4.6308,-4.6308,-4.6308,-4.6308,-4.6308,-4.6308,-4.6308,-4.6308,-4.6308,-4.6308,-4.6308,-4.6308,-4.6308,-4.6308,-4.6308,-4.6308,-4.6308,-4.6308,-4.6308,-4.6308,-4.6308,-4.6308,-4.6308,-4.6308,-4.6308,-4.6308,-4.6308,-4.6308,-4.6308,-4.6203,-4.6089,-4.6089,-4.5481,-4.4681,0.0,0.0,0.0,0.0,0.0,0.0,0.0,0.0,0.0,0.0,0.0,0.0,0.0,0.0,0.0,0.0,0.0,0.0,-3.5606,-3.5588,-3.5552,-3.5507,-3.55,-3.55,-3.55,-3.6654,-3.7507,-3.8007,-3.9688,-4.0496,-4.0496,-4.0496,-4.0496,-4.0496,-4.0496,-4.0496,-4.0496,-4.0496,-4.0496,-4.0496,-4.0496,-4.1027,-4.1904,0.0,0.0,0.0,0.0,0.0,0.0,0.0,0.0,0.0,-4.5594,-4.5594,-4.5603,-4.5651,-4.577,-4.5907,-4.5959,0.0,0.0,0.0,0.0,0.0,0.0,0.0,0.0,0.0,0.0,0.0,0.0,0.0,0.0,-4.6308,-4.6308,-4.6308,-4.6308,-4.6308,-4.6308,-4.6308,-4.6308,-4.6308,-4.6308,-4.6308,-4.6308,-4.6308,-4.6308,-4.6308,-4.6308,-4.6308,-4.6308,-4.6308,-4.6308,-4.6308,-4.6308,-4.6308,-4.6308,-4.6308,-4.6308,-4.6308,-4.6308,-4.6308,-4.6308,-4.6308,-4.6308,-4.6308,-4.6289,-4.62,-4.615,-4.6147,-4.6067,-4.5644,-4.5117,-4.5117,-4.4553,-4.3794,0.0,0.0,0.0,0.0,0.0,0.0,0.0,0.0,0.0,0.0,0.0,0.0,0.0,0.0,0.0,0.0,0.0,0.0,0.0,-3.5556,-3.5534,-3.5507,-3.55,-3.5654,-3.5962,-3.7315,-3.8161,-3.8527,-3.9861,-4.0496,-4.0496,-4.0496,-4.0496,-4.0496,-4.0496,-4.0496,-4.0496,-4.0496,-4.0496,-4.0496,-4.0496,-4.1219,-4.2374,0.0,0.0,0.0,0.0,0.0,0.0,0.0,0.0,0.0,-4.5594,-4.5594,-4.5612,-4.5657,-4.5783,-4.5912,-4.5951,0.0,0.0,0.0,0.0,0.0,0.0,0.0,0.0,0.0,0.0,0.0,0.0,-4.6308,0.0,-4.584,-4.5781,-4.5664,-4.5312,-4.5273,-4.5273,-4.5273,-4.5273,-4.5273,-4.5273,-4.5273,-4.5273,-4.5273,-4.5273,-4.5273,-4.5273,-4.5273,-4.5273,-4.5273,-4.5273,-4.5273,-4.5273,-4.5273,-4.5273,-4.5273,-4.5273,-4.5273,-4.5273,-4.5625,-4.5586,-4.5273,-4.5232,-4.5204,-4.5132,-4.5058,-4.5019,-4.5016,-4.4939,-4.4578,-4.4103,-4.4103,-4.3548,-4.2762,0.0,0.0,0.0,0.0,0.0,0.0,0.0,0.0,0.0,0.0,0.0,0.0,0.0,0.0,0.0,0.0,0.0,0.0,0.0,0.0,-3.55,-3.55,-3.5577,-3.5981,-3.6788,-3.768,-3.8546,-3.9419,-4.015,-4.0496,-4.0496,-4.0496,-4.0496,-4.0496,-4.0496,-4.0496,-4.0496,-4.0496,-4.0496,-4.0516,-4.0593,-4.1623,-4.3104,-4.3181,0.0,0.0,0.0,0.0,0.0,0.0,0.0,0.0,-4.5594,-4.5594,-4.5618,-4.5747,-4.5836,-4.5931,-4.6042,0.0,0.0,0.0,0.0,0.0,0.0,0.0,0.0,0.0,0.0,0.0,0.0,-4.6172,-4.5898,-4.5019,-4.4883,-4.4609,-4.3808,-4.3691,-4.3691,-4.3691,-4.3691,-4.3691,-4.3691,-4.3691,-4.3691,-4.3691,-4.3691,-4.3691,-4.3691,-4.3691,-4.3691,-4.3691,-4.3691,-4.3691,-4.3691,-4.3691,-4.3691,-4.3691,-4.3691,-4.3652,-4.3593,-4.4472,-4.4433,-4.367,-4.3608,-4.3518,-4.3405,-4.3393,-4.3369,-4.3389,-4.3376,-4.3243,-4.3073,-4.3073,-4.2483,-4.1673,0.0,0.0,0.0,0.0,0.0,0.0,0.0,0.0,0.0,0.0,0.0,0.0,0.0,0.0,0.0,0.0,0.0,0.0,0.0,0.0,-3.55,-3.55,-3.6096,-3.6846,-3.77,-3.8565,-3.9419,-4.0246,-4.0419,-4.0496,-4.0496,-4.0496,-4.0496,-4.0496,-4.0496,-4.0496,-4.0496,-4.0496,-4.0496,-4.0554,-4.1239,-4.2143,-4.3162,-4.3797,-4.4682,0.0,0.0,0.0,0.0,0.0,0.0,0.0,-4.5594,-4.5594,-4.5603,-4.5635,-4.5733,-4.585,0.0,-4.6039,0.0,0.0,0.0,0.0,0.0,0.0,0.0,0.0,0.0,0.0,0.0,-4.5273,-4.498,-4.4121,-4.3984,-4.3906,-4.373,-4.3691,-4.3691,-4.3691,-4.3691,-4.3691,-4.3691,-4.3691,-4.3691,-4.3691,-4.3691,-4.3691,-4.3691,-4.3691,-4.3691,-4.3691,-4.3691,-4.3691,-4.3691,-4.3691,-4.3691,-4.3691,-4.3642,-4.3258,-4.2633,-4.3492,-4.3747,-4.3461,-4.3445,-4.3424,-4.3397,-4.3296,-4.3247,-4.3236,-4.3194,-4.2733,-4.2098,-4.2098,-4.1528,-4.0785,0.0,0.0,0.0,0.0,0.0,0.0,0.0,0.0,0.0,0.0,0.0,0.0,0.0,0.0,0.0,0.0,0.0,0.0,0.0,0.0,-3.5673,-3.6058,-3.6481,-3.7296,-3.8584,-3.9073,-3.9688,-4.0496,-4.0496,-4.0496,-4.0496,-4.0496,-4.0496,-4.0496,-4.0496,-4.0496,-4.0496,-4.0496,-4.0496,-4.0535,-4.0989,-4.195,-4.3143,-4.3566,-4.4509,-4.5594,-4.5594,0.0,0.0,0.0,0.0,0.0,0.0,0.0,-4.5612,-4.568,-4.5747,-4.5815,0.0,0.0,0.0,0.0,0.0,0.0,0.0,0.0,0.0,0.0,0.0,0.0,0.0,-4.4668,-4.4082,-4.3223,-4.3086,-4.2949,-4.2558,-4.25,-4.25,-4.25,-4.25,-4.25,-4.25,-4.25,-4.25,-4.25,-4.25,-4.25,-4.25,-4.25,-4.25,-4.25,-4.25,-4.25,-4.25,-4.25,-4.2479,-4.2413,-4.2376,-4.2081,-4.1552,-4.2046,-4.2194,-4.2107,-4.2107,-4.2071,-4.2005,-4.1931,-4.191,-4.1896,-4.1863,-4.1585,-4.1181,-4.1181,-4.0893,-4.0496,0.0,0.0,0.0,0.0,0.0,0.0,0.0,0.0,0.0,0.0,0.0,0.0,0.0,0.0,0.0,0.0,0.0,0.0,0.0,0.0,0.0,-3.6654,-3.6846,-3.768,-3.9265,-3.9438,-3.9823,-4.0496,-4.0496,-4.0496,-4.0496,-4.0496,-4.0496,-4.0496,-4.0496,-4.0496,-4.0496,-4.0496,-4.0496,-4.0516,-4.0669,-4.1681,-4.3124,-4.3258,-4.4259,-4.5594,-4.5594,-4.5594,-4.5594,-4.5594,0.0,0.0,0.0,0.0,-4.561,-4.5725,-4.5775,-4.577,0.0,0.0,0.0,0.0,0.0,0.0,0.0,0.0,0.0,0.0,0.0,0.0,0.0,-4.3965,-4.3183,-4.2324,-4.2187,-4.1953,-4.1289,-4.1191,-4.1191,-4.1191,-4.1191,-4.1191,-4.1191,-4.1191,-4.1191,-4.1191,-4.1191,-4.1191,-4.1191,-4.1191,-4.1191,-4.1191,-4.1191,-4.1191,-4.1171,-4.1171,-4.1103,-4.0962,-4.095,-4.084,-4.0661,-4.0713,-4.0722,-4.0681,-4.0681,-4.0596,-4.0496,-4.0496,-4.0496,-4.0496,-4.0496,-4.0496,-4.0496,-4.0496,-4.0496,-4.0496,0.0,0.0,0.0,0.0,0.0,0.0,0.0,0.0,0.0,0.0,0.0,0.0,0.0,0.0,0.0,0.0,0.0,0.0,-3.55,0.0,0.0,-3.6654,-3.743,-3.8296,-3.9284,-3.9977,-4.04,-4.0496,-4.0496,-4.0496,0.0,0.0,-4.0496,-4.0496,-4.0496,-4.0496,-4.0496,-4.0496,-4.0496,-4.0573,-4.1316,-4.222,-4.3181,-4.3874,-4.4739,-4.5594,-4.5594,-4.5594,-4.5594,-4.5594,-4.5594,0.0,0.0,0.0,-4.5594,-4.5629,-4.5637,-4.5648,0.0,0.0,0.0,0.0,0.0,0.0,0.0,0.0,0.0,0.0,0.0,0.0,0.0,-4.2656,-4.2305,-4.1484,-4.1367,-4.1328,-4.1211,-4.1191,-4.1191,-4.1191,-4.1191,-4.1191,-4.1191,-4.1191,-4.1191,-4.1191,-4.1191,-4.1191,-4.1191,-4.1191,-4.1191,-4.1191,-4.1191,-4.1149,-4.1025,-4.1025,-4.0959,-4.0836,-4.0777,-4.0667,-4.0534,-4.0545,-4.0537,-4.0534,-4.0534,-4.0519,-4.0496,-4.0496,-4.0496,-4.0496,-4.0496,-4.0496,-4.0496,-4.0496,-4.0496,-4.0496,0.0,0.0,0.0,0.0,0.0,0.0,0.0,0.0,0.0,0.0,0.0,0.0,0.0,0.0,0.0,-3.5507,-3.55,-3.55,-3.55,-3.5923,-3.6538,-3.7392,-3.8257,-3.913,-3.9958,-4.0323,-4.0496,-4.0496,-4.0496,0.0,0.0,-4.0496,-4.0496,0.0,0.0,-4.0496,-4.0496,-4.0496,-4.0496,-4.0535,-4.0912,-4.1585,-4.247,-4.3316,-4.4143,-4.494,-4.5421,-4.5594,-4.5594,-4.5594,-4.5594,-4.5594,-4.5594,0.0,0.0,0.0,0.0,0.0,0.0,0.0,0.0,0.0,0.0,0.0,0.0,0.0,0.0,0.0,0.0,0.0,0.0,-4.2031,-4.1601,-4.1269,-4.1191,-4.1191,-4.1191,-4.1191,-4.1191,-4.1191,-4.1191,-4.1191,-4.1191,-4.1191,-4.1191,-4.1191,-4.1191,-4.1191,-4.1191,-4.1128,-4.1081,-4.1081,-4.1021,-4.0952,-4.088,-4.0899,-4.0836,-4.0732,-4.0642,-4.0559,-4.0496,-4.0496,-4.0496,-4.0496,-4.0496,-4.0496,-4.0496,-4.0496,-4.0496,-4.0496,-4.0496,-4.0496,-4.0496,-4.0496,-4.0496,-4.0496,0.0,0.0,0.0,0.0,0.0,0.0,0.0,0.0,0.0,0.0,0.0,0.0,0.0,0.0,0.0,0.0,-3.55,-3.5596,-3.5788,-3.6365,-3.7199,-3.8277,-3.895,-3.9688,-4.0477,-4.0496,-4.0496,-4.0496,0.0,0.0,-4.0496,-4.0496,-4.0496,0.0,-4.0496,-4.0496,0.0,0.0,-4.0496,-4.0496,-4.0496,-4.1027,-4.1865,-4.2527,-4.3278,-4.4105,-4.496,-4.5267,-4.5306,0.0,-4.5594,-4.5594,-4.5594,-4.5594,0.0,0.0,0.0,0.0,0.0,0.0,0.0,0.0,0.0,0.0,0.0,0.0,0.0,0.0,0.0,0.0,0.0,-4.1537,-4.1151,-4.1191,-4.1191,-4.1191,-4.1191,-4.1191,-4.1191,-4.1191,-4.1191,-4.1191,-4.1191,-4.1191,-4.1191,-4.115,-4.115,-4.1129,-4.1103,-4.0996,-4.0955,-4.0955,-4.0857,-4.0785,-4.0775,-4.0747,-4.0696,-4.0655,-4.0545,-4.0496,-4.0496,-4.0496,-4.0496,-4.0496,-4.0496,-4.0496,-4.0496,-4.0496,-4.0496,-4.0496,-4.0496,-4.0496,-4.0496,-4.0496,-4.0496,-4.0496,0.0,0.0,0.0,0.0,0.0,0.0,0.0,0.0,0.0,0.0,0.0,0.0,-3.5611,-3.5547,-3.55,-3.55,-3.55,-3.5827,-3.6596,-3.6673,-3.7469,-3.9169,-3.9284,0.0,-4.0477,-4.0496,-4.0496,0.0,0.0,0.0,-4.0496,-4.0496,-4.0496,-4.0496,-4.0496,-4.0496,-4.0496,0.0,0.0,0.0,0.0,0.0,-4.1788,-4.1846,-4.2412,-4.3278,-4.4085,0.0,0.0,0.0,0.0,0.0,0.0,0.0,0.0,0.0,0.0,0.0,0.0,0.0,0.0,0.0,0.0,0.0,0.0,0.0,0.0,0.0,0.0,0.0,0.0,-4.0942,-4.1052,-4.1171,-4.1191,-4.1191,-4.1191,-4.1191,-4.1191,-4.1191,-4.1191,-4.1191,-4.1191,-4.1191,-4.1149,-4.1023,-4.1019,-4.0957,-4.0839,-4.0809,-4.0805,-4.0805,-4.0801,-4.0766,-4.0709,-4.0575,-4.05,-4.0512,-4.0504,-4.0496,-4.0496,-4.0496,-4.0496,-4.0496,-4.0496,-4.0496,-4.0496,-4.0496,-4.0496,-4.0496,-4.0496,-4.0496,-4.0496,-4.0496,-4.0496,-4.0496,0.0,0.0,0.0,0.0,0.0,0.0,0.0,0.0,0.0,0.0,0.0,0.0,0.0,-3.5502,-3.55,-3.55,-3.5962,-3.6385,-3.6673,-3.7757,-3.8642,-3.9265,-3.9785,-4.0208,-4.0496,-4.0339,-4.0241,0.0,0.0,-3.9915,-3.9925,-4.0148,-4.0241,-4.0241,-4.0414,-4.0496,-4.0496,-4.0496,0.0,0.0,0.0,0.0,0.0,0.0,0.0,0.0,0.0,0.0,0.0,0.0,0.0,0.0,0.0,0.0,0.0,0.0,0.0,0.0,0.0,0.0,0.0,0.0,0.0,0.0,0.0,0.0,0.0,0.0,0.0,0.0,0.0,-4.0805,-4.0899,-4.0947,-4.093,-4.093,-4.093,-4.093,-4.093,-4.093,-4.093,-4.093,-4.093,-4.093,-4.092,-4.0874,-4.087,-4.0857,-4.0801,-4.0767,-4.0736,-4.0736,-4.0647,-4.0604,-4.0581,-4.0508,-4.0496,-4.0496,-4.0496,-4.0496,-4.0496,-4.0496,-4.0496,-4.0496,-4.0496,-4.0496,-4.0496,-4.0496,-4.0496,-4.0496,-4.0496,-4.0496,-4.0496,-4.0496,-4.0496,-4.0496,0.0,0.0,0.0,0.0,0.0,0.0,0.0,0.0,0.0,-3.5574,0.0,0.0,0.0,0.0,-3.5615,-3.5885,-3.6385,-3.6942,-3.7526,-3.8661,-3.9419,-3.9688,-4.0137,-4.0364,-4.0364,-3.9824,-3.9666,0.0,0.0,0.0,0.0,-3.9932,-4.0101,-4.011,-4.0381,-4.0496,0.0,0.0,0.0,-4.0496,0.0,0.0,-4.0554,0.0,0.0,0.0,0.0,0.0,0.0,0.0,0.0,0.0,0.0,0.0,0.0,0.0,0.0,0.0,0.0,0.0,0.0,0.0,0.0,0.0,0.0,0.0,0.0,0.0,0.0,0.0,0.0,0.0,-4.0728,-4.0785,-4.0797,-4.0797,-4.0797,-4.0797,-4.0797,-4.0797,-4.0797,-4.0797,-4.0797,-4.0797,-4.0785,-4.0761,-4.0761,0.0,-4.0698,-4.066,-4.0636,-4.0636,-4.0545,-4.0496,-4.0496,-4.0496,-4.0496,-4.0496,-4.0496,-4.0496,-4.0496,-4.0496,-4.0496,-4.0496,-4.0496,-4.0496,-4.0496,-4.0496,-4.0496,-4.0496,-4.0496,-4.0496,-4.0496,-4.0496,-4.0496,-4.0489,0.0,0.0,0.0,0.0,0.0,0.0,0.0,0.0,-3.55,-3.55,0.0,0.0,0.0,0.0,0.0,-3.6635,-3.675,-3.7488,-3.9188,-3.9323,-3.9681,-4.045,-4.0232,-4.0091,-4.0091,-3.8999,-3.8807,-3.9587,-3.8795,-3.8814,-3.9576,0.0,-4.0091,-4.0101,-4.0372,-4.0496,-4.0496,0.0,-4.0496,-4.0496,0.0,-4.0496,-4.0496,0.0,0.0,0.0,-4.147,-4.1769,0.0,-4.2777,0.0,0.0,0.0,0.0,0.0,0.0,0.0,0.0,0.0,0.0,0.0,0.0,0.0,0.0,0.0,0.0,0.0,0.0,0.0,0.0,0.0,0.0,-4.0563,-4.0755,-4.0789,-4.0789,-4.0789,-4.0789,-4.0789,-4.0789,-4.0789,-4.0789,-4.0789,-4.0789,-4.0761,-4.0703,-4.0692,-4.0643,-4.0504,-4.0496,-4.0496,-4.0496,-4.0496,-4.0496,-4.0496,-4.0496,-4.0496,-4.0496,-4.0496,-4.0496,-4.0496,-4.0496,-4.0496,-4.0496,-4.0496,-4.0496,-4.0496,-4.0496,-4.0496,-4.0496,-4.0496,-4.0489,-4.0489,-4.0489,-4.0481,-4.0449,0.0,0.0,0.0,0.0,0.0,0.0,-3.5462,-3.55,-3.55,0.0,0.0,0.0,-3.55,-3.6019,-3.6462,-3.6673,-3.7853,-3.8796,-3.9265,-3.9842,-4.0175,-4.0213,-4.0139,-3.9992,-3.9735,-3.9176,-3.9032,-3.9238,-3.8822,-3.8738,-3.8956,-3.9488,-3.9742,0.0,-4.0266,-4.0496,-4.0496,-4.0496,0.0,-4.0496,-4.0496,-4.0496,0.0,0.0,0.0,0.0,0.0,-4.1258,-4.1846,0.0,-4.2585,-4.3104,0.0,0.0,0.0,0.0,0.0,0.0,-4.1507,0.0,0.0,0.0,0.0,0.0,0.0,0.0,0.0,0.0,0.0,0.0,0.0,0.0,0.0,-4.0577,-4.0578,-4.0578,-4.0578,-4.0578,-4.0578,-4.0578,-4.0578,-4.0578,-4.0578,-4.0578,-4.057,0.0,-4.0552,-4.053,-4.0496,-4.0496,-4.0496,-4.0496,-4.0496,-4.0496,-4.0496,-4.0496,-4.0496,-4.0496,-4.0496,-4.0496,-4.0496,-4.0496,-4.0496,-4.0496,-4.0496,-4.0496,-4.0496,-4.0496,-4.0496,-4.0496,-4.0496,-4.0381,-4.0204,-4.0204,-4.0053,-3.9842,0.0,0.0,0.0,0.0,0.0,-3.55,-3.55,-3.55,-3.55,0.0,0.0,0.0,-3.5962,-3.6731,-3.7392,-3.7757,-3.87,-3.9438,-3.9785,-4.012,-4.0258,-4.011,-3.9829,-3.9599,-3.9389,-3.8755,-3.86,-3.8919,-3.8442,-3.8377,-3.8723,-3.9157,-3.9389,-3.9414,0.0,0.0,0.0,0.0,0.0,0.0,-4.0496,0.0,0.0,-4.0496,-4.0496,0.0,0.0,0.0,-4.1258,-4.1258,-4.1604,0.0,0.0,0.0,0.0,0.0,0.0,0.0,0.0,0.0,0.0,0.0,0.0,0.0,-4.0294,-4.0339,-4.0364,0.0,-4.0496,0.0,0.0,0.0,0.0,-4.0496,-4.0496,-4.0496,-4.0496,-4.0496,-4.0496,-4.0496,-4.0496,-4.0496,-4.0496,-4.0496,-4.0496,-4.0496,-4.0496,-4.0496,-4.0496,-4.0496,-4.0496,-4.0496,-4.0496,-4.0496,-4.0496,-4.0496,-4.0496,-4.0496,-4.0496,-4.0496,-4.0496,-4.0496,-4.0496,-4.0496,-4.0496,-4.0441,-4.0339,-4.0339,-4.0397,-4.0489,-4.0372,-4.0232,-4.0081,-3.9932,-3.9775,-3.9587,0.0,0.0,0.0,-3.5365,-3.55,-3.55,-3.55,-3.55,-3.5493,0.0,-3.553,-3.5895,-3.6702,-3.7608,-3.845,-3.9227,-3.9358,-3.9688,-4.0399,-4.0204,-4.0022,-3.9992,-3.9414,-3.9085,-3.9063,-3.811,-3.7988,-3.8707,-3.7988,-3.7991,-3.8707,-3.8971,-3.9112,-3.9139,0.0,0.0,0.0,0.0,0.0,-4.0457,-4.0457,-4.0473,0.0,0.0,-4.0496,-4.0496,-4.0496,-4.0496,-4.0496,-4.0496,-4.0496,0.0,0.0,0.0,0.0,0.0,-3.9786,0.0,0.0,0.0,0.0,0.0,0.0,0.0,-3.9982,-4.0032,-4.0101,-4.0345,-4.0406,0.0,0.0,0.0,0.0,-4.0489,-4.0473,-4.0465,-4.0489,-4.0496,-4.0496,-4.0496,-4.0496,-4.0496,-4.0496,-4.0496,-4.0496,-4.0496,-4.0496,-4.0496,-4.0496,-4.0496,-4.0496,-4.0496,-4.0496,-4.0496,-4.0496,-4.0496,-4.0496,-4.0496,-4.0496,-4.0496,-4.0496,-4.0496,-4.0481,-4.0457,-4.0457,-4.0294,-4.0032,-4.0032,-4.0176,-4.0389,-4.0148,-4.0022,-3.9943,-3.9645,-3.9529,-3.9457,0.0,0.0,0.0,-3.5462,-3.55,-3.55,-3.55,-3.55,-3.5424,-3.5207,-3.5744,-3.6451,-3.7255,-3.8369,-3.9111,-3.9284,-3.9691,-4.0005,-4.0177,-3.9891,-3.9576,-3.9302,-3.916,-3.8999,-3.8773,-3.8554,-3.8542,-3.8707,-3.8542,-3.856,-3.8707,-3.8971,-3.9112,-3.9125,0.0,0.0,0.0,0.0,0.0,-4.0177,-4.0177,0.0,-4.0496,-4.0496,-4.0496,-4.0496,-4.0496,-4.0496,-4.0496,-4.0496,-4.0496,-4.0489,0.0,0.0,0.0,-3.9712,0.0,0.0,0.0,0.0,0.0,0.0,0.0,0.0,-3.9679,-3.9709,-3.9712,0.0,-3.9778,0.0,0.0,0.0,0.0,0.0,-4.0321,-4.025,-4.0473,-4.0496,-4.0496,-4.0496,-4.0496,-4.0496,-4.0496,-4.0496,-4.0496,-4.0496,-4.0496,-4.0496,-4.0496,-4.0496,-4.0496,-4.0496,-4.0496,-4.0496,-4.0496,-4.0496,-4.0496,-4.0496,-4.0496,-4.0496,-4.0496,-4.0496,-4.0381,-4.0177,-4.0177,-4.0012,-3.9709,-3.9709,-3.9724,-3.9767,-3.9712,-3.9541,-3.9289,-3.9212,-3.9054,-3.8877,0.0,0.0,0.0,-3.532,-3.5297,-3.5266,-3.5122,-3.5105,-3.5195,-3.5458,-3.6682,-3.7708,-3.8099,-3.9207,-3.99,-3.99,-4.0011,-4.0101,-4.0101,-3.9634,-3.9276,-3.9112,-3.8957,-3.8844,-3.8707,-3.8707,-3.8707,-3.8707,-3.8707,-3.8707,-3.8707,-3.8844,-3.8957,-3.9107,-3.9438,0.0,0.0,0.0,-3.9962,-4.011,-4.026,0.0,-4.0496,-4.0496,-4.0496,-4.0496,-4.0496,-4.0496,-4.0496,-4.0496,-4.0496,0.0,-4.0347,-4.0304,-4.0176,0.0,-3.9339,-3.9244,0.0,0.0,0.0,-3.8894,0.0,0.0,0.0,-3.9339,-3.9389,-3.9564,-3.9599,-3.9645,-3.9819,0.0,0.0,-4.0004,-3.9934,-3.9893,-4.0034,-4.0319,-4.0496,-4.0496,-4.0496,-4.0496,-4.0496,-4.0496,-4.0496,-4.0496,-4.0496,-4.0496,-4.0496,-4.0496,-4.0496,-4.0496,-4.0496,-4.0496,-4.0496,-4.0364,-4.0304,-4.0304,-4.0129,-4.0053,-4.0053,-4.0053,-3.9974,-3.984,-3.984,-3.9656,-3.9339,-3.9339,-3.9257,-3.9149,-3.9295,-3.9238,-3.9085,-3.8947,-3.8833,-3.8707,-3.5398,0.0,0.0,-3.5079,-3.5016,-3.4954,-3.4724,-3.4826,-3.5287,-3.6239,-3.7752,-3.8813,-3.9033,-3.9917,-4.0496,-4.0496,-4.025,-4.0081,-4.0012,-3.9445,-3.9072,-3.904,-3.8833,-3.8707,-3.8707,-3.8707,-3.8707,-3.8707,-3.8707,-3.8707,-3.8707,-3.8707,-3.8833,-3.9036,-3.9371,0.0,0.0,0.0,0.0,-4.0032,0.0,-4.0457,-4.0496,-4.0496,-4.0496,-4.0496,-4.0496,-4.0496,-4.0496,-4.0496,-4.0465,-4.0381,-4.0167,-4.0241,0.0,0.0,0.0,0.0,0.0,0.0,0.0,0.0,0.0,-3.8762,0.0,0.0,0.0,-3.9358,0.0,0.0,0.0,0.0,0.0,0.0,0.0,0.0,0.0,-3.9909,0.0,-4.0328,-4.0328,-4.0328,-4.0328,-4.0389,-4.043,-4.0496,-4.0496,-4.0481,-4.0433,-4.0414,-4.0397,-4.0336,-4.0328,-4.0328,-4.0328,-4.011,-4.0002,-4.0002,-3.9731,-3.9599,-3.9599,-3.9599,-3.9564,-3.9498,-3.9498,-3.932,-3.9022,-3.9022,-3.8913,-3.8719,-3.8933,-3.9022,-3.8999,-3.8773,-3.8707,-3.8707,-3.5096,-3.5157,0.0,0.0,-3.4753,-3.4743,-3.4694,-3.5306,-3.6314,-3.783,-3.8263,-3.8839,0.0,0.0,0.0,0.0,0.0,0.0,-3.9668,0.0,-3.8999,-3.8747,-3.8723,-3.8707,-3.8707,-3.8707,-3.8707,-3.8707,-3.8707,-3.8707,-3.8707,-3.8707,-3.8723,-3.8762,-3.904,0.0,0.0,0.0,-3.9622,0.0,-4.0003,-4.0295,0.0,-4.0496,-4.0496,-4.0496,-4.0496,-4.0496,-4.0496,0.0,-4.0347,-4.0139,0.0,-4.012,-4.0012,-3.9302,0.0,0.0,0.0,0.0,0.0,0.0,-3.8707,0.0,-3.875,0.0,-3.8765,-3.8792,0.0,0.0,0.0,0.0,0.0,0.0,0.0,0.0,-3.8595,-3.9214,-3.9701,-3.9701,-3.9701,-3.9701,-3.9701,-3.9973,-4.0241,-4.0481,-4.0496,-4.0389,-4.0158,-4.0139,-4.0022,-3.9712,-3.9701,-3.9701,-3.9701,-3.9668,-3.9656,-3.9656,-3.9622,-3.9599,-3.9599,-3.9599,-3.9426,-3.9165,-3.9165,-3.8985,-3.875,-3.875,-3.8719,-3.8707,-3.8735,-3.875,-3.8732,-3.8704,-3.8707,-3.8707,-3.4851,-3.4879,0.0,0.0,-3.4412,-3.4514,-3.4828,-3.598,-3.7058,0.0,0.0,0.0,0.0,0.0,0.0,0.0,0.0,-3.9972,0.0,0.0,0.0,-3.8704,-3.8707,-3.8707,-3.8707,-3.8707,-3.8707,-3.8707,-3.8707,-3.8707,-3.8707,-3.8707,-3.8773,-3.8947,-3.9257,0.0,-3.9242,0.0,-3.9599,0.0,0.0,0.0,0.0,-4.0449,-4.0496,-4.0496,-4.0496,-4.0496,-4.0496,0.0,-4.033,0.0,0.0,0.0,0.0,-3.9462,0.0,0.0,0.0,0.0,0.0,0.0,0.0,0.0,-3.8735,0.0,-3.8707,0.0,0.0,0.0,0.0,0.0,0.0,0.0,-3.8748,0.0,0.0,0.0,-3.9203,0.0,0.0,0.0,-3.9599,-3.9307,-3.9359,-3.9917,-3.9556,-3.9231,-3.9128,-3.9117,-3.8847,-3.8228,-3.821,-3.821,-3.821,-3.8016,-3.8153,-3.8621,-3.8454,-3.8627,-3.9078,-3.9078,-3.8994,-3.8869,-3.8869,-3.8803,-3.8707,-3.8707,-3.8707,-3.8707,-3.8707,-3.8707,-3.8707,-3.8707,-3.8707,-3.8707,-3.4442,0.0,0.0,0.0,0.0,0.0,-3.556,0.0,0.0,0.0,0.0,0.0,-3.9244,-3.9754,0.0,0.0,-4.0167,-4.0081,0.0,0.0,-3.9104,0.0,0.0,0.0,-3.8707,-3.8707,-3.8707,-3.8707,-3.8707,-3.8707,-3.8707,-3.8707,-3.8803,-3.9013,0.0,-3.942,-3.9364,0.0,-3.945,-3.945,-3.945,-3.9656,-3.9993,-4.0353,-4.0457,-4.0389,-4.0389,-4.0328,-4.0257,-4.0257,-4.0072,0.0,-4.0043,-3.9813,-3.9457,0.0,0.0,0.0,-3.8777,0.0,0.0,0.0,0.0,0.0,0.0,0.0,0.0,0.0,0.0,0.0,0.0,0.0,0.0,0.0,0.0,-3.8615,0.0,0.0,0.0,0.0,0.0,0.0,0.0,-3.8421,-3.8211,-3.8894,-3.8406,-3.8033,-3.7943,-3.7931,-3.7626,-3.6974,-3.6956,-3.6956,-3.6956,-3.6708,-3.6883,-3.7458,-3.7256,-3.7477,-3.8046,-3.8267,-3.8377,-3.8377,-3.8597,-3.8707,-3.8707,-3.8707,-3.8707,-3.8707,-3.8707,-3.8611,-3.8496,-3.8643,-3.8707,-3.8692,-3.3829,-3.4031,0.0,0.0,0.0,0.0,0.0,0.0,0.0,0.0,0.0,0.0,0.0,0.0,0.0,0.0,0.0,-4.0372,-4.0101,0.0,-3.9445,0.0,0.0,-3.8707,0.0,-3.8707,-3.8707,-3.8707,-3.8707,-3.8707,-3.8707,-3.8707,-3.8707,-3.8719,-3.8999,-3.8975,-3.875,-3.9013,-3.9125,-3.9125,-3.9125,-3.9314,-3.9679,0.0,-4.0339,-4.011,-4.011,0.0,0.0,-3.9634,-3.9401,-3.912,-3.9133,0.0,0.0,0.0,0.0,0.0,0.0,0.0,0.0,-3.8707,0.0,0.0,0.0,0.0,-3.8707,0.0,0.0,0.0,0.0,0.0,0.0,0.0,0.0,0.0,0.0,0.0,0.0,0.0,0.0,0.0,0.0,-3.7237,-3.6899,-3.7246,-3.7249,-3.7088,-3.6764,-3.6752,-3.6617,-3.6342,-3.6328,-3.6328,-3.6328,-3.6313,-3.6332,-3.635,-3.6354,-3.634,-3.6395,-3.718,-3.7547,-3.7584,-3.8358,-3.8707,-3.8707,-3.8707,-3.8707,-3.8707,-3.8707,-3.8382,-3.798,-3.8496,-3.8707,-3.8627,0.0,0.0,0.0,0.0,0.0,0.0,0.0,-3.7936,0.0,0.0,-3.9112,0.0,0.0,-3.9901,-4.0101,0.0,0.0,-4.0283,-3.9808,-3.9656,0.0,0.0,0.0,-3.8707,0.0,0.0,0.0,-3.8707,-3.8707,-3.8707,-3.8692,-3.835,-3.8366,-3.8707,0.0,-3.8755,0.0,0.0,0.0,0.0,0.0,-3.9289,-3.9622,0.0,-3.9861,-3.9775,-3.9775,-3.9709,-3.9599,-3.9599,-3.9377,-3.9152,-3.9352,-3.9163,-3.884,-3.8933,-3.8894,-3.8833,-3.8719,-3.8829,-3.8923,-3.8732,0.0,0.0,0.0,0.0,0.0,0.0,0.0,0.0,0.0,0.0,0.0,0.0,0.0,0.0,0.0,0.0,0.0,0.0,0.0,0.0,0.0,0.0,-3.5853,-3.6554,-3.6072,-3.5692,-3.5578,-3.5564,-3.5289,-3.4669,-3.4651,-3.4651,-3.4651,-3.4651,-3.4908,-3.5445,-3.5445,-3.5752,-3.6303,-3.6593,-3.6997,-3.7529,-3.7786,-3.8212,-3.8707,-3.8707,-3.8481,-3.8167,-3.8167,-3.786,-3.7488,-3.7998,-3.7964,-3.7667,-3.5463,0.0,0.0,0.0,0.0,0.0,0.0,0.0,0.0,0.0,-3.9112,0.0,-3.9389,0.0,-3.988,0.0,-4.0014,-4.0014,-3.9634,-3.9493,0.0,-3.8855,-3.8747,0.0,0.0,0.0,0.0,0.0,0.0,-3.8334,-3.8152,-3.7808,-3.7825,-3.8168,0.0,-3.8392,-3.87,0.0,-3.8961,0.0,0.0,-3.9082,0.0,0.0,-3.9352,-3.9414,-3.9414,-3.9358,-3.9294,-3.9294,-3.9136,-3.9004,-3.9216,-3.9008,-3.8735,-3.8909,-3.8844,-3.8707,-3.8707,-3.8829,-3.8923,-3.8732,-3.8829,0.0,-3.875,0.0,-3.8707,0.0,0.0,0.0,0.0,0.0,0.0,0.0,0.0,0.0,0.0,-3.7541,0.0,0.0,0.0,0.0,0.0,0.0,-3.4816,-3.5367,-3.489,-3.4564,0.0,-3.4564,-3.4325,-3.3825,-3.3807,-3.3807,-3.3807,-3.3807,-3.4064,-3.4564,-3.4564,-3.4871,-3.5422,-3.5568,-3.5911,-3.6422,-3.6796,-3.7259,-3.7767,-3.8041,-3.7964,-3.7649,-3.7649,-3.736,-3.698,-3.747,-3.7341,-3.6921,0.0,0.0,0.0,0.0,-3.7037,0.0,0.0,0.0,-3.8788,0.0,-3.9112,-3.9112,-3.9107,-3.9401,-3.9462,-3.9147,-3.9432,-3.9599,-3.9576,-3.9276,0.0,0.0,-3.8844,-3.8707,-3.8707,0.0,0.0,0.0,0.0,0.0,-3.7209,-3.7154,-3.7173,-3.7228,-3.7649,0.0,-3.7928,-3.843,-3.8692,-3.8707,-3.8707,-3.8707,-3.8707,-3.8707,-3.8855,-3.9085,-3.9085,-3.8923,-3.8707,-3.8707,-3.8707,-3.8707,-3.8707,-3.8707,-3.8707,-3.8707,-3.8707,-3.8707,-3.8707,-3.8707,-3.8707,-3.8707,-3.8707,-3.8707,0.0,0.0,-3.8707,0.0,0.0,0.0,0.0,0.0,0.0,0.0,0.0,0.0,0.0,0.0,0.0,0.0,0.0,0.0,0.0,-3.4252,-3.3807,-3.3807,-3.3807,0.0,0.0,-3.3807,-3.3807,-3.3807,-3.3793,-3.3762,-3.3762,-3.3762,-3.3762,-3.3762,-3.3762,-3.3762,-3.3785,-3.4144,-3.4323,-3.4434,-3.5473,-3.597,-3.6059,-3.6873,-3.7173,-3.7154,-3.7154,-3.6843,-3.6416,-3.6923,-3.6803,-3.6354,-3.7199,-3.7826,-3.8211,0.0,-3.7992,-3.8469,0.0,0.0,0.0,0.0,-3.9112,-3.9186,-3.9438,-3.9552,-3.9564,-3.9493,-3.9552,0.0,0.0,0.0,0.0,-3.8818,-3.875,-3.8707,-3.8707,-3.8707,-3.8449,-3.7893,0.0,0.0,-3.7173,-3.6783,-3.6823,-3.7173,0.0,0.0,-3.7893,-3.8048,-3.835,-3.8707,-3.8707,-3.8707,-3.8707,0.0,-3.8732,-3.8803,-3.8803,-3.8762,-3.8707,-3.8707,-3.8707,-3.8707,-3.8707,-3.8707,-3.8707,-3.8707,-3.8707,-3.8707,-3.8707,-3.8707,-3.8707,-3.8707,-3.8707,-3.8707,-3.8707,-3.8707,-3.8707,0.0,0.0,0.0,0.0,0.0,0.0,0.0,0.0,0.0,0.0,0.0,0.0,-3.4072,0.0,0.0,-3.4046,-3.3917,-3.3807,-3.3807,-3.3807,0.0,0.0,0.0,-3.3807,-3.3807,-3.3508,-3.3346,-3.3346,-3.3346,-3.3346,-3.3346,-3.3346,-3.3346,-3.335,-3.3102,-3.3302,-3.3924,-3.4747,-3.5438,-3.6059,-3.6873,-3.698,-3.662,-3.662,-3.627,-3.581,-3.5946,-3.5902,-3.5805,-3.7724,0.0,0.0,-3.7649,0.0,0.0,-3.835,-3.8546,0.0,-3.9058,-3.9112,0.0,-3.9352,-3.9377,-3.9333,-3.9216,-3.9203,0.0,-3.8952,0.0,0.0,-3.8707,-3.8707,-3.8707,-3.8707,-3.8707,0.0,-3.7596,0.0,0.0,-3.6501,-3.6186,0.0,0.0,0.0,-3.6706,0.0,-3.772,-3.82,-3.8707,-3.8707,-3.8707,0.0,-3.8707,-3.8707,-3.8707,-3.8707,-3.8707,-3.8707,-3.8707,-3.8707,-3.8707,-3.8707,-3.8707,-3.8707,-3.8707,-3.8707,-3.8707,-3.8707,-3.8707,-3.8707,-3.8707,-3.8707,-3.8707,-3.8707,-3.8707,-3.8707,-3.8707,-3.8707,-3.8707,-3.8707,0.0,0.0,0.0,0.0,0.0,0.0,0.0,0.0,0.0,-3.2783,-3.2697,-3.3178,-3.3419,-3.3447,-3.3255,-3.3419,0.0,0.0,0.0,-3.324,-3.324,-3.3211,-3.309,-3.2905,-3.309,-3.309,-3.2887,-3.2887,-3.2887,-3.289,-3.2417,-3.2424,-3.2915,-3.3798,-3.4453,-3.4959,-3.6052,-3.6333,-3.6054,-3.6054,-3.5854,-3.56,-3.56,-3.56,-3.56,-3.7911,0.0,0.0,0.0,0.0,0.0,0.0,-3.8318,0.0,-3.9027,0.0,-3.9049,-3.9049,-3.9049,-3.8961,-3.8719,0.0,-3.8707,-3.8707,-3.8707,-3.8707,-3.8707,-3.8707,-3.8676,-3.8611,-3.8611,-3.81,0.0,0.0,0.0,0.0,0.0,0.0,0.0,0.0,0.0,0.0,-3.7397,-3.8083,-3.8499,-3.8499,-3.8499,-3.8499,-3.8499,-3.8546,-3.8611,-3.8611,-3.8643,-3.8707,-3.8707,-3.8707,-3.8707,-3.8707,-3.8707,-3.8707,-3.8707,-3.8707,-3.8707,-3.8707,-3.8707,-3.8707,-3.8707,-3.8643,-3.8611,-3.8611,-3.8546,-3.8499,-3.8499,-3.8423,-3.835,-3.835,0.0,0.0,0.0,0.0,0.0,0.0,0.0,0.0,0.0,0.0,0.0,-3.2333,-3.2793,-3.2937,-3.2534,-3.289,0.0,0.0,0.0,-3.2501,-3.2501,-3.284,-3.2825,-3.2417,-3.2809,-3.2809,-3.2417,-3.2417,-3.2417,-3.2401,-3.1933,-3.1768,-3.1903,-3.2948,-3.3457,-3.366,-3.5025,-3.56,-3.56,-3.56,-3.56,-3.56,-3.5492,-3.5515,-3.56,0.0,0.0,0.0,0.0,0.0,-3.7772,-3.7378,-3.8118,-3.8719,-3.8762,-3.8777,-3.8777,-3.8777,-3.8777,-3.8747,-3.8707,-3.8707,0.0,0.0,0.0,0.0,-3.8707,-3.8707,-3.8496,-3.8048,-3.8048,-3.7542,0.0,0.0,0.0,0.0,0.0,0.0,0.0,0.0,0.0,-3.6437,-3.7058,0.0,-3.7469,-3.7469,-3.7469,-3.7469,-3.7469,-3.7703,-3.8048,-3.8048,-3.8316,-3.8707,-3.8707,-3.8707,-3.8707,-3.8707,-3.8707,-3.8707,-3.8707,-3.8707,-3.8707,-3.8707,-3.8707,-3.8707,-3.8707,-3.8366,-3.8048,-3.8048,-3.7738,-3.7469,-3.7469,-3.6934,-3.647,-3.647,-3.5489,0.0,0.0,0.0,0.0,0.0,0.0,0.0,0.0,0.0,-3.1428,-3.1428,-3.2162,-3.2583,0.0,0.0,0.0,0.0,0.0,-3.2501,0.0,-3.2196,-3.2004,0.0,-3.2004,-3.2004,-3.1915,-3.1915,-3.1915,-3.1915,-3.1488,-3.1633,-3.2261,-3.3059,-3.3744,-3.437,-3.5228,-3.56,-3.56,-3.56,-3.56,-3.5538,-3.4965,-3.5121,-3.56,0.0,0.0,0.0,0.0,0.0,0.0,0.0,-3.7649,-3.8382,-3.8658,-3.8707,-3.8707,-3.8707,-3.8707,-3.8707,-3.8707,-3.8707,-3.8707,-3.8707,-3.8707,-3.8596,-3.83,-3.8283,-3.8048,-3.7542,-3.7542,-3.7173,-3.6395,0.0,0.0,0.0,0.0,0.0,0.0,0.0,-3.5898,0.0,0.0,-3.696,-3.7209,-3.7209,-3.7209,-3.7209,-3.7209,-3.7341,-3.7542,-3.7542,-3.7703,-3.7999,-3.8515,-3.853,-3.8283,-3.8283,-3.8283,-3.8234,-3.7999,-3.793,-3.793,-3.793,-3.793,-3.793,-3.793,-3.7415,-3.6898,-3.6898,-3.6453,-3.6006,-3.6006,-3.5705,-3.5243,-3.4619,-3.4029,-3.3201,-3.1933,0.0,0.0,0.0,0.0,0.0,0.0,0.0,0.0,0.0,0.0,0.0,0.0,0.0,0.0,0.0,0.0,-3.1823,0.0,0.0,0.0,-3.1488,-3.1696,-3.1696,-3.1488,-3.1488,-3.1488,-3.147,-3.1291,-3.1616,-3.2344,-3.3085,-3.3829,-3.4518,-3.4912,-3.5075,-3.5052,-3.4704,-3.4544,-3.452,-3.4186,-3.4301,-3.4544,0.0,-3.5898,0.0,0.0,-3.6032,-3.6395,-3.6395,-3.7173,-3.7929,-3.8465,-3.8627,-3.8707,-3.8707,-3.8707,-3.8707,-3.8707,-3.8611,-3.853,-3.853,-3.8433,-3.8201,-3.7772,-3.7755,-3.7524,-3.7057,-3.7038,-3.6764,0.0,0.0,0.0,0.0,0.0,0.0,0.0,0.0,0.0,0.0,0.0,-3.646,-3.6865,-3.6865,-3.6865,-3.6865,-3.6865,-3.6923,-3.7038,-3.7038,-3.7038,-3.7171,-3.8085,-3.81,-3.7755,-3.7755,-3.7755,-3.7685,-3.7304,-3.7209,-3.7209,-3.7209,-3.7085,-3.6944,-3.6944,-3.6267,-3.5629,-3.5629,-3.508,-3.4585,-3.4585,-3.4462,-3.4019,-3.2899,-3.2703,-3.2362,-3.1353,0.0,0.0,0.0,0.0,0.0,0.0,0.0,0.0,-3.119,0.0,0.0,0.0,0.0,0.0,-3.121,0.0,0.0,0.0,-3.1507,-3.1526,-3.121,-3.1507,-3.1507,-3.119,-3.119,-3.119,-3.119,-3.119,-3.1604,-3.2341,-3.2946,-3.3621,-3.4303,-3.4385,-3.4382,-3.4333,-3.3811,-3.3582,-3.3582,-3.3443,-3.3495,-3.3556,0.0,0.0,0.0,0.0,0.0,-3.6395,-3.6395,-3.6884,-3.7433,-3.7911,-3.8399,-3.8707,-3.8707,-3.8707,-3.8707,-3.8707,-3.8267,-3.798,-3.798,-3.7596,-3.7322,-3.7284,-3.7284,-3.702,-3.6478,-3.6478,-3.6224,0.0,0.0,-3.5667,0.0,0.0,0.0,0.0,0.0,-3.5644,-3.5672,-3.5672,-3.5694,-3.5761,-3.5761,-3.5761,-3.5761,-3.5761,-3.6054,-3.6478,-3.6478,-3.6478,-3.6563,-3.7135,-3.7322,-3.7284,-3.7284,-3.7284,-3.7266,-3.721,-3.7209,-3.7209,-3.7209,-3.666,-3.6112,-3.6112,-3.5232,-3.4366,-3.4366,-3.394,-3.3539,-3.3539,-3.3016,-3.2298,-3.1509,-3.139,-3.1353,-3.1227,0.0,0.0,0.0,0.0,-3.119,-3.119,0.0,0.0,0.0,-3.0699,0.0,0.0,-3.0938,0.0,0.0,0.0,0.0,-3.119,-3.1249,-3.1249,-3.119,-3.1249,-3.1249,-3.119,-3.119,-3.119,-3.119,-3.119,-3.1629,-3.2391,-3.2457,-3.2945,-3.3689,-3.3694,-3.3684,-3.3684,-3.3608,-3.3582,-3.3547,-3.2922,-3.3093,-3.3401,0.0,0.0,0.0,0.0,0.0,0.0,0.0,-3.6374,-3.6783,-3.6981,-3.7469,-3.7895,-3.8183,-3.7964,-3.7808,-3.7808,-3.7596,-3.7488,-3.7488,-3.7304,-3.7057,-3.6724,-3.6724,-3.6478,-3.5941,-3.592,-3.581,0.0,0.0,0.0,0.0,0.0,0.0,-3.56,-3.56,-3.56,-3.56,-3.56,-3.56,-3.56,-3.56,-3.56,-3.56,-3.56,-3.5739,-3.592,-3.592,-3.592,-3.5963,-3.6165,-3.644,-3.6724,-3.6724,-3.6724,-3.6576,-3.5803,-3.558,-3.5476,-3.5028,-3.4683,-3.4441,-3.4441,-3.3731,-3.306,-3.306,-3.2556,-3.2087,-3.2087,-3.185,-3.1565,-3.1241,-3.119,-3.119,-3.119,-3.119,0.0,0.0,0.0,0.0,-3.119,0.0,-3.119,0.0,-3.0658,0.0,0.0,0.0,0.0,0.0,-3.0658,-3.0838,-3.119,0.0,-3.1035,-3.0658,-3.1015,-3.1015,-3.0658,-3.1035,-3.1015,-3.0658,-3.0658,-3.1105,-3.1891,-3.2765,-3.3296,-3.3572,-3.3172,-3.2986,-3.296,-3.2516,-3.2324,-3.2312,-3.2035,-3.2104,-3.2256,-3.56,0.0,-3.56,0.0,-3.56,-3.56,-3.56,-3.592,-3.6224,-3.6374,-3.6583,-3.6981,-3.7632,-3.7396,-3.7209,-3.7209,-3.7057,-3.6962,-3.6962,-3.6823,-3.6563,-3.6182,-3.6161,0.0,-3.5622,-3.56,-3.56,-3.56,-3.56,0.0,0.0,-3.56,-3.56,-3.56,-3.56,-3.56,-3.56,-3.56,-3.56,-3.56,-3.56,-3.56,-3.56,-3.56,-3.56,-3.56,-3.56,-3.56,-3.56,-3.56,-3.5854,-3.6161,-3.6161,-3.6006,-3.565,-3.4754,-3.4336,-3.4066,-3.3541,-3.3237,-3.3068,-3.3068,-3.251,-3.1989,-3.1989,-3.1582,-3.119,-3.119,-3.119,-3.119,-3.119,-3.119,-3.119,-3.119,-3.119,0.0,0.0,-3.119,0.0,0.0,-3.1035,-3.0955,-3.0955,-3.023,0.0,0.0,0.0,0.0,0.0,-3.0038,-3.023,-3.0658,-3.0679,-3.0477,-3.0038,-3.0456,-3.0456,-3.0043,-3.0477,-3.0456,-3.0038,-3.0265,-3.0787,-3.1519,-3.2531,-3.2971,-3.2944,-3.2477,-3.2272,-3.2216,-3.1682,-3.1511,-3.1511,-3.1511,-3.1511,-3.1511,-3.56,-3.56,-3.56,-3.56,-3.56,-3.56,-3.56,-3.56,-3.5805,-3.6312,-3.5941,-3.6032,-3.7078,-3.7192,-3.7209,-3.7209,-3.6724,-3.6395,-3.6395,-3.592,-3.5622,0.0,0.0,-3.56,-3.56,-3.56,-3.56,-3.56,0.0,-3.56,-3.56,-3.56,-3.56,-3.56,-3.56,-3.56,-3.56,-3.56,-3.56,-3.56,-3.56,-3.56,-3.56,-3.56,-3.56,-3.56,-3.56,-3.56,-3.56,-3.56,-3.56,-3.5622,-3.5622,-3.5098,-3.4527,-3.4489,-3.3981,-3.3423,-3.3406,-3.2865,-3.231,-3.231,-3.1769,-3.1207,-3.1207,-3.1207,-3.119,-3.119,-3.119,-3.119,-3.119,-3.119,-3.119,-3.119,-3.119,0.0,0.0,-3.119,0.0,-3.119,-3.0679,-3.0314,-3.0314,-2.9225,0.0,0.0,0.0,0.0,0.0,-2.9406,-2.9406,-2.9429,-2.9429,-2.9429,-2.9406,-2.9429,-2.9429,-2.9406,-2.9429,-2.9429,-2.9432,-3.0163,-3.083,-3.14,-3.1479,-3.1524,-3.1524,-3.1511,-3.1496,-3.1496,-3.1511,-3.1511,-3.1511,-3.1511,-3.1511,-3.1511,-3.56,-3.56,-3.56,-3.56,-3.56,-3.56,-3.56,-3.56,-3.565,-3.5832,-3.5694,-3.5739,-3.6075,-3.6101,-3.6101,0.0,-3.5946,-3.5854,0.0,-3.5694,-3.56,-3.56,-3.56,-3.56,-3.56,-3.56,-3.56,-3.56,-3.56,-3.56,-3.56,-3.56,-3.56,-3.56,-3.56,-3.56,-3.5577,-3.5098,-3.4918,-3.4894,-3.4423,-3.4252,-3.4252,-3.4252,-3.452,-3.4918,-3.4918,-3.4918,-3.4918,-3.4918,-3.431,-3.3542,-3.3542,-3.3997,-3.4286,-3.3309,-3.2835,-3.2547,-3.2036,-3.1715,-3.1565,-3.1565,-3.136,-3.119,-3.119,-3.119,-3.119,-3.119,-3.119,-3.119,-3.119,-3.119,-3.119,-3.119,-3.0858,-3.0597,-3.0597,0.0,-2.9957,-2.9957,-2.9805,-2.9695,-2.9695,-2.8966,0.0,0.0,0.0,0.0,-2.8732,-2.8779,-2.8973,-2.9384,-2.9406,-2.9203,-2.8779,-2.918,-2.918,-2.8779,-2.9203,-2.9434,-2.9482,-3.0177,-3.0613,-3.0812,-3.1282,-3.1511,-3.1511,-3.1511,-3.1511,-3.1511,-3.1511,-3.1511,-3.1511,-3.1511,-3.1511,-3.1511,-3.56,-3.56,-3.56,-3.56,-3.56,-3.56,-3.56,-3.56,-3.56,-3.56,-3.56,-3.56,-3.56,-3.56,-3.56,-3.56,-3.56,-3.56,-3.56,-3.56,-3.56,-3.56,-3.56,-3.56,-3.56,-3.5362,-3.523,-3.523,-3.523,-3.523,-3.523,-3.523,-3.523,-3.5207,-3.4958,-3.4864,-3.4823,-3.4406,-3.4235,-3.4186,-3.3761,-3.3582,-3.3582,-3.3582,-3.3862,-3.4235,-3.4235,-3.4235,-3.4186,-3.3925,-3.3291,-3.252,-3.1991,-3.236,-3.2824,-3.1888,-3.144,-3.1103,-3.0634,-3.0518,-3.0518,-3.0518,-3.0518,-3.0518,-3.0518,-3.0699,-3.0858,-3.0858,-3.0679,-3.058,-3.0818,-3.0679,-3.0518,-3.0518,-3.0208,-2.9957,-2.9957,-2.9629,-2.9406,0.0,0.0,-2.9042,-2.9042,-2.8535,-2.8165,0.0,0.0,0.0,-2.814,-2.8165,-2.8343,-2.8717,-2.8717,-2.8543,-2.8165,-2.8543,-2.8543,-2.8165,-2.8783,-2.9379,-2.9887,-3.031,-3.0642,-3.0883,-3.1316,-3.1511,-3.1511,-3.1511,-3.1511,-3.1511,-3.1511,-3.1511,-3.1467,-3.1161,-3.1058,-3.0999,-3.56,-3.56,-3.56,-3.56,-3.56,-3.56,-3.56,-3.56,-3.56,-3.56,-3.56,-3.56,-3.56,-3.5577,-3.5515,-3.5515,-3.5515,-3.5515,-3.5515,-3.5492,-3.547,-3.547,-3.547,-3.547,-3.547,-3.4847,-3.4528,-3.4528,-3.4528,-3.4528,-3.4528,-3.4528,-3.4528,-3.4503,-3.3887,-3.3582,-3.3582,-3.3556,-3.3531,-3.3547,-3.3479,-3.3453,-3.3453,-3.3453,-3.3479,-3.3531,-3.3531,-3.3499,-3.3371,-3.2741,-3.2428,-3.2084,-3.0775,-3.0328,-3.0304,-3.0396,-2.9948,-2.9406,-2.9406,-2.9406,-2.9406,-2.9406,-2.9406,-2.9406,-2.9406,-2.9827,-3.023,-3.023,-2.9783,-2.9563,-3.0145,-2.9783,-2.9406,-2.9406,-2.9361,-2.9339,-2.9339,-2.9293,-2.9271,-2.9271,-2.8779,-2.8439,-2.8439,-2.7919,-2.76,-2.76,0.0,0.0,-2.76,-2.76,-2.76,-2.76,-2.76,-2.76,-2.76,-2.76,-2.7615,-2.7675,-2.8338,-2.931,-3.0507,-3.0552,-3.0898,-3.1511,-3.1511,-3.1511,-3.1511,-3.1438,-3.1409,-3.1409,-3.1351,-3.1322,-3.1248,-3.0494,-3.0208,-3.0072,-3.56,-3.56,-3.56,-3.56,-3.56,-3.56,-3.56,-3.56,-3.56,-3.56,-3.56,-3.56,-3.56,-3.5144,-3.4847,-3.4847,-3.4847,-3.4847,-3.4847,-3.4374,-3.4062,-3.4062,-3.4062,-3.4062,-3.4062,-3.3912,-3.3836,-3.3836,-3.3836,-3.3836,-3.3836,-3.3836,-3.3836,-3.3836,-3.3659,-3.3582,-3.3572,-3.3039,-3.2841,-3.2788,-3.2228,-3.1992,-3.1992,-3.1992,-3.2339,-3.2841,-3.2841,-3.2513,-3.2055,-3.1899,-3.083,-2.9474,-2.9154,-2.8697,-2.8477,-2.9395,-2.9534,-2.9406,-2.9406,-2.9406,-2.9406,-2.9406,-2.9406,-2.9406,-2.9406,-2.9518,-2.9607,-2.9607,-2.9496,-2.9451,-2.9585,-2.9496,-2.9406,-2.9406,-2.8996,-2.8709,-2.8709,-2.8319,-2.8042,-2.8042,-2.7894,-2.781,-2.781,-2.7685,-2.76,-2.76,0.0,-2.76,-2.76,-2.76,-2.76,-2.76,-2.76,-2.76,-2.76,-2.76,-2.7869,-2.8368,-2.9026,-2.9759,-3.0522,-3.1017,-3.1346,-3.1511,-3.1511,-3.1511,-3.1438,-3.0837,-3.0584,-3.0524,-2.9858,-2.9597,-2.9566,-2.938,-2.9317,-2.9286,-3.56,-3.56,-3.56,-3.56,-3.56,-3.56,-3.56,-3.5339,-3.5144,-3.5144,-3.4887,-3.4681,-3.4681,-3.4358,-3.4137,-3.4137,-3.4137,-3.4137,-3.4137,-3.3811,-3.3582,-3.3582,-3.3582,-3.3582,-3.3582,-3.3287,-3.2986,-3.2637,-3.2986,-3.3145,-3.3145,-3.3145,-3.3145,-3.3119,-3.2799,-3.2637,-3.261,-3.2256,-3.2092,-3.2064,-3.1668,-3.1511,-3.1511,-3.1511,-3.1739,-3.2092,-3.2092,-3.1677,-3.1051,-3.0788,-2.9762,-2.8547,-2.8233,-2.7899,-2.7735,-2.8376,-2.8591,-2.8591,-2.8591,-2.8591,-2.8591,-2.8591,-2.8764,-2.8919,-2.8638,-2.8787,-2.8989,-2.8989,-2.8779,-2.8646,-2.8943,-2.8764,-2.8591,-2.8591,-2.8295,-2.8091,-2.8091,-2.781,-2.76,-2.76,-2.76,-2.76,-2.76,-2.76,-2.76,-2.76,-2.76,-2.76,-2.76,-2.76,-2.76,-2.76,-2.76,-2.76,-2.76,-2.7899,-2.8382,-2.9056,-2.9699,-3.016,-3.0425,-3.0793,-3.097,-3.0925,-3.0524,-3.0584,-3.0896,-3.0042,-2.969,-2.9659,-2.9192,-2.9002,-2.8939,-2.8556,-2.8395,-2.833,-3.5316,-3.5293,-3.5293,-3.5293,-3.5293,-3.5293,-3.5293,-3.4807,-3.4455,-3.4455,-3.3962,-3.3582,-3.3582,-3.3521,-3.3443,-3.3443,-3.3365,-3.3339,-3.3443,-3.3323,-3.3271,-3.3271,-3.3271,-3.3271,-3.3271,-3.2734,-3.2148,-3.1511,-3.2148,-3.2437,-3.2437,-3.2437,-3.2437,-3.241,-3.1768,-3.1511,-3.1511,-3.1511,-3.1511,-3.1511,-3.1511,-3.1511,-3.1511,-3.1511,-3.1511,-3.1496,-3.1391,-3.0913,-3.0268,-2.9666,-2.8996,-2.8338,-2.7779,-2.76,-2.76,-2.76,-2.76,-2.76,-2.76,-2.76,-2.76,-2.76,-2.8008,-2.8238,-2.771,-2.7993,-2.8367,-2.8367,-2.7944,-2.776,-2.8286,-2.7959,-2.76,-2.76,-2.76,-2.76,-2.76,-2.76,-2.76,-2.76,-2.76,-2.76,-2.76,-2.7484,-2.7433,-2.7433,-2.7433,-2.7433,-2.7433,-2.7433,-2.7433,-2.7433,-2.7534,-2.7645,-2.775,-2.8308,-2.8928,-2.955,-3.0071,-3.025,-3.0103,-3.0103,-3.0103,-3.0042,-2.9317,-2.9411,-3.0042,-2.916,-2.8812,-2.878,-2.8684,-2.862,-2.8524,-2.7802,-2.7517,-2.7417,-3.4012,-3.3912,-3.3912,-3.3912,-3.3912,-3.3912,-3.3912,-3.3811,-3.3761,-3.3761,-3.3659,-3.3582,-3.3582,-3.3093,-3.2776,-3.2776,-3.2188,-3.2076,-3.2707,-3.2188,-3.1838,-3.1838,-3.1838,-3.1838,-3.1838,-3.171,-3.1611,-3.1511,-3.1611,-3.1668,-3.1668,-3.1668,-3.1668,-3.1668,-3.1553,-3.1511,-3.1511,-3.1511,-3.1511,-3.1511,-3.1511,-3.1511,-3.1511,-3.1511,-3.1511,-3.1436,-3.0866,-3.0253,-2.9651,-2.8966,-2.8293,-2.7735,-2.763,-2.76,-2.76,-2.76,-2.76,-2.76,-2.76,-2.76,-2.76,-2.76,-2.7675,-2.7725,-2.7625,-2.766,-2.7735,-2.7735,-2.7675,-2.7625,-2.771,-2.766,-2.76,-2.76,-2.76,-2.76,-2.76,-2.76,-2.76,-2.76,-2.76,-2.76,-2.76,-2.7034,-2.6669,-2.6669,-2.6669,-2.6669,-2.6669,-2.6669,-2.6669,-2.6669,-2.728,-2.7869,-2.8442,-2.8547,-2.8853,-2.9334,-2.9435,-2.9381,-2.9192,-2.9192,-2.9192,-2.9192,-2.9066,-2.9097,-2.9129,-2.8279,-2.7887,-2.7835,-2.7162,-2.6871,-2.6871,-2.6748,-2.6679,-2.6692,-3.3659,-3.3582,-3.3582,-3.3582,-3.3582,-3.3582,-3.3582,-3.3287,-3.3066,-3.3066,-3.2718,-3.2461,-3.2461,-3.2188,-3.2007,-3.2007,-3.1697,-3.164,-3.1979,-3.1697,-3.1511,-3.1511,-3.1511,-3.1511,-3.1511,-3.1511,-3.1511,-3.1511,-3.1511,-3.1511,-3.1511,-3.1511,-3.1511,-3.1511,-3.1511,-3.1511,-3.1511,-3.1511,-3.1511,-3.1511,-3.1511,-3.1511,-3.1511,-3.1511,-3.1511,-3.1348,-3.0291,-2.9486,-2.8799,-2.7773,-2.696,-2.6428,-2.6428,-2.668,-2.7008,-2.7008,-2.728,-2.76,-2.76,-2.76,-2.76,-2.76,-2.76,-2.76,-2.76,-2.76,-2.76,-2.76,-2.76,-2.76,-2.76,-2.76,-2.76,-2.76,-2.76,-2.76,-2.76,-2.76,-2.7458,-2.706,-2.7008,-2.6837,-2.6455,-2.6108,-2.5906,-2.5906,-2.5906,-2.5906,-2.5906,-2.5906,-2.6046,-2.6329,-2.6659,-2.6993,-2.7294,-2.7939,-2.8395,-2.8591,-2.8959,-2.8851,-2.8298,-2.8298,-2.8298,-2.8266,-2.7835,-2.7887,-2.8247,-2.7384,-2.704,-2.704,-2.6658,-2.6499,-2.6499,-2.6499,-2.6499,-2.6499,-3.3156,-3.3103,-3.3103,-3.3103,-3.3103,-3.3103,-3.3103,-3.268,-3.2355,-3.2355,-3.1853,-3.1511,-3.1511,-3.1511,-3.1511,-3.1511,-3.1511,-3.1511,-3.1511,-3.1511,-3.1511,-3.1511,-3.1511,-3.1511,-3.1511,-3.1511,-3.1511,-3.1511,-3.1511,-3.1511,-3.1511,-3.1511,-3.1409,-3.1219,-3.1219,-3.1117,-3.0925,-3.1161,-3.1219,-3.1248,-3.1409,-3.138,-3.1219,-3.1219,-3.1087,-3.0734,-2.9391,-2.8555,-2.7911,-2.6623,-2.5841,-2.5398,-2.5398,-2.5783,-2.6229,-2.6229,-2.6654,-2.7086,-2.7086,-2.7086,-2.7086,-2.7086,-2.7086,-2.7086,-2.7086,-2.7086,-2.7086,-2.7086,-2.7086,-2.7086,-2.7086,-2.7086,-2.7086,-2.7086,-2.7086,-2.7086,-2.7086,-2.7086,-2.6864,-2.631,-2.6229,-2.6014,-2.5453,-2.5231,-2.5147,-2.5147,-2.5147,-2.5216,-2.5324,-2.5324,-2.5483,-2.5859,-2.6212,-2.6455,-2.6636,-2.7545,-2.7989,-2.7939,-2.8434,-2.8247,-2.7417,-2.7417,-2.7417,-2.7384,-2.6782,-2.685,-2.7384,-2.6748,-2.6499,-2.6499,-2.6499,-2.6499,-2.6499,-2.6499,-2.6499,-2.6499,-3.1796,-3.1653,-3.1653,-3.1653,-3.1653,-3.1653,-3.1653,-3.1611,-3.1582,-3.1582,-3.1524,-3.1511,-3.1511,-3.1511,-3.1511,-3.1511,-3.1511,-3.1511,-3.1511,-3.1511,-3.1511,-3.1511,-3.1511,-3.1511,-3.1511,-3.1511,-3.1511,-3.1511,-3.1511,-3.1511,-3.1511,-3.1511,-3.1087,-3.0389,-3.0389,-2.995,-2.9254,-3.0042,-3.0389,-3.045,-3.119,-3.1058,-3.0389,-3.0389,-2.9889,-2.9039,-2.7797,-2.7324,-2.7102,-2.5882,-2.5439,-2.5398,-2.5398,-2.5425,-2.5481,-2.5481,-2.5508,-2.5563,-2.5563,-2.5563,-2.5563,-2.5563,-2.5563,-2.5563,-2.5563,-2.5563,-2.5563,-2.5563,-2.5563,-2.5563,-2.5563,-2.5563,-2.5563,-2.5563,-2.5563,-2.5563,-2.5563,-2.5563,-2.5536,-2.5481,-2.5481,-2.5453,-2.5398,-2.4794,-2.4379,-2.4379,-2.4379,-2.4604,-2.5087,-2.5114,-2.5058,-2.4925,-2.6222,-2.7253,-2.7875,-2.7971,-2.7913,-2.7736,-2.7776,-2.7384,-2.6589,-2.6589,-2.6589,-2.6589,-2.6521,-2.6521,-2.6589,-2.6521,-2.6499,-2.6499,-2.6499,-2.6499,-2.6499,-2.6499,-2.6499,-2.6499,-3.1553,-3.1511,-3.1511,-3.1511,-3.1511,-3.1511,-3.1511,-3.1511,-3.1511,-3.1511,-3.1511,-3.1511,-3.1511,-3.1511,-3.1511,-3.1511,-3.1511,-3.1278,-3.0807,-3.1219,-3.1511,-3.1511,-3.1511,-3.1511,-3.1511,-3.0999,-3.0777,-3.0777,-3.0208,-2.995,-2.995,-2.995,-2.9797,-2.9473,-2.9473,-2.9317,-2.9034,-2.9348,-2.9473,-2.9504,-2.9827,-2.9766,-2.9473,-2.9473,-2.9286,-2.8774,-2.7118,-2.6516,-2.625,-2.4544,-2.3975,-2.3975,-2.3975,-2.4337,-2.4709,-2.4709,-2.4709,-2.4624,-2.4105,-2.4667,-2.5398,-2.5398,-2.5398,-2.5398,-2.5398,-2.5398,-2.5398,-2.5398,-2.5398,-2.5398,-2.5398,-2.5398,-2.5398,-2.5398,-2.5398,-2.5398,-2.5398,-2.5398,-2.5231,-2.4766,-2.4709,-2.4538,-2.4018,-2.3708,-2.3714,-2.4085,-2.4111,-2.4354,-2.4898,-2.5231,-2.5396,-2.5297,-2.6192,-2.6622,-2.6511,-2.6876,-2.7043,-2.6973,-2.6973,-2.6816,-2.6499,-2.6499,-2.6499,-2.6499,-2.6499,-2.6499,-2.6499,-2.6499,-2.6129,-2.5581,-2.5581,-2.5182,-2.4648,-2.4648,-2.4648,-2.4648,-3.1511,-3.1511,-3.1511,-3.1511,-3.1511,-3.1511,-3.1511,-3.1278,-3.1117,-3.1117,-3.0866,-3.0703,-3.0703,-3.0703,-3.0703,-3.0703,-3.0703,-3.0494,-2.9919,-3.0419,-3.0837,-3.1117,-3.1117,-3.0999,-3.0718,-3.0178,-2.9889,-2.9889,-2.9286,-2.9002,-2.9002,-2.9002,-2.8844,-2.8588,-2.8588,-2.846,-2.8247,-2.8492,-2.8588,-2.862,-2.8907,-2.8844,-2.8588,-2.8588,-2.8427,-2.8015,-2.6501,-2.5821,-2.5454,-2.3887,-2.3258,-2.3108,-2.3108,-2.3484,-2.3914,-2.3914,-2.3914,-2.3796,-2.3245,-2.3872,-2.4696,-2.4696,-2.4696,-2.4696,-2.4696,-2.4696,-2.4696,-2.4696,-2.4696,-2.4696,-2.4696,-2.4696,-2.4696,-2.4696,-2.4696,-2.4696,-2.4696,-2.4696,-2.4496,-2.3972,-2.3914,-2.3708,-2.3155,-2.3271,-2.3534,-2.3966,-2.4167,-2.4494,-2.5034,-2.5573,-2.5862,-2.5862,-2.6285,-2.6298,-2.5908,-2.6298,-2.6499,-2.6499,-2.6499,-2.6499,-2.6499,-2.6499,-2.6499,-2.6499,-2.6499,-2.6314,-2.6025,-2.6025,-2.5441,-2.4528,-2.4528,-2.412,-2.3514,-2.3514,-2.3514,-2.3514,-3.1511,-3.1511,-3.1511,-3.1511,-3.1511,-3.1511,-3.1467,-3.0807,-3.0299,-3.0299,-2.9535,-2.9002,-2.9002,-2.9002,-2.9002,-2.9002,-2.9002,-2.9002,-2.9002,-2.9002,-2.938,-3.0238,-3.0299,-2.9889,-2.9034,-2.9002,-2.9002,-2.9002,-2.8971,-2.8971,-2.8971,-2.8971,-2.8524,-2.7703,-2.7703,-2.7263,-2.6555,-2.7351,-2.7703,-2.7769,-2.862,-2.846,-2.7703,-2.7703,-2.7196,-2.6411,-2.5799,-2.5259,-2.4713,-2.4192,-2.3584,-2.3078,-2.3078,-2.3078,-2.3078,-2.3108,-2.3108,-2.3108,-2.3108,-2.3108,-2.3108,-2.3108,-2.3108,-2.3108,-2.3108,-2.3108,-2.3108,-2.3108,-2.3108,-2.3108,-2.3108,-2.3108,-2.3108,-2.3108,-2.3108,-2.3108,-2.3108,-2.3108,-2.3108,-2.3108,-2.3108,-2.3108,-2.3108,-2.3665,-2.4004,-2.4004,-2.4487,-2.5026,-2.5573,-2.6151,-2.6499,-2.6499,-2.6499,-2.6499,-2.6499,-2.6499,-2.6499,-2.6499,-2.6499,-2.6499,-2.6499,-2.6499,-2.6487,-2.6499,-2.6499,-2.5908,-2.4981,-2.4981,-2.4409,-2.3478,-2.3478,-2.3478,-2.3489,-2.3489,-2.3489,-2.3489,-3.1511,-3.1511,-3.1322,-3.0777,-3.0644,-3.045,-2.9858,-2.9535,-2.938,-2.938,-2.916,-2.9002,-2.9002,-2.9002,-2.9002,-2.9002,-2.9002,-2.9002,-2.9002,-2.8427,-2.8214,-2.846,-2.9066,-2.9286,-2.9002,-2.8395,-2.8084,-2.8084,-2.7517,-2.7263,-2.7263,-2.7263,-2.7095,-2.685,-2.685,-2.6714,-2.6521,-2.6748,-2.685,-2.6871,-2.7129,-2.7095,-2.685,-2.685,-2.6714,-2.6411,-2.5799,-2.5259,-2.4713,-2.4192,-2.3232,-2.2261,-2.2261,-2.2261,-2.2384,-2.2944,-2.3108,-2.3108,-2.3108,-2.3108,-2.3108,-2.3108,-2.3108,-2.3108,-2.3108,-2.3108,-2.3108,-2.3108,-2.3108,-2.3108,-2.3108,-2.3108,-2.3108,-2.3108,-2.3108,-2.3108,-2.3108,-2.3108,-2.3108,-2.3108,-2.3459,-2.374,-2.374,-2.4211,-2.4429,-2.4147,-2.399,-2.3978,-2.4117,-2.4304,-2.4397,-2.4397,-2.4397,-2.4397,-2.4397,-2.5791,-2.6499,-2.6499,-2.6499,-2.6129,-2.5441,-2.5441,-2.5063,-2.4397,-2.4397,-2.4217,-2.3963,-2.3963,-2.3331,-2.244,-2.244,-2.2038,-2.1451,-2.1451,-2.1451,-2.1451,-3.0524,-3.0524,-3.0359,-2.9858,-2.9797,-2.9597,-2.9097,-2.8716,-2.8492,-2.8492,-2.8214,-2.8019,-2.8019,-2.8019,-2.8019,-2.8019,-2.8019,-2.8019,-2.8019,-2.7517,-2.7229,-2.7229,-2.7736,-2.8019,-2.8019,-2.7484,-2.7229,-2.7229,-2.6748,-2.6499,-2.6499,-2.6499,-2.6499,-2.6499,-2.6499,-2.6499,-2.6499,-2.6499,-2.6499,-2.6499,-2.6499,-2.6499,-2.6499,-2.6499,-2.6499,-2.6414,-2.5629,-2.5038,-2.441,-2.351,-2.2408,-2.1396,-2.1396,-2.1396,-2.1491,-2.1959,-2.2113,-2.2113,-2.2113,-2.2113,-2.2175,-2.2537,-2.2854,-2.3108,-2.3108,-2.3108,-2.3108,-2.3108,-2.3108,-2.3108,-2.3108,-2.3108,-2.3017,-2.2671,-2.2641,-2.2506,-2.2156,-2.2262,-2.2351,-2.2351,-2.2831,-2.3167,-2.3167,-2.3646,-2.3958,-2.3921,-2.3648,-2.3514,-2.3514,-2.3514,-2.3514,-2.3514,-2.3514,-2.3514,-2.3514,-2.4696,-2.5311,-2.5311,-2.5311,-2.4981,-2.442,-2.442,-2.4084,-2.3514,-2.3514,-2.3257,-2.2925,-2.2925,-2.2328,-2.1451,-2.1451,-2.1116,-2.0605,-2.0605,-2.0605,-2.0605,-2.9002,-2.9002,-2.8971,-2.8907,-2.8876,-2.8876,-2.878,-2.8117,-2.7571,-2.7571,-2.6939,-2.6499,-2.6499,-2.6499,-2.6499,-2.6499,-2.6499,-2.6499,-2.6499,-2.6418,-2.6383,-2.6383,-2.628,-2.6233,-2.6233,-2.6418,-2.6499,-2.6499,-2.6499,-2.6452,-2.6383,-2.6383,-2.6314,-2.6233,-2.6233,-2.6233,-2.6233,-2.6233,-2.6233,-2.6233,-2.6233,-2.6233,-2.6233,-2.6233,-2.6233,-2.6094,-2.5182,-2.4531,-2.3861,-2.2331,-2.1252,-2.0518,-2.0505,-2.0494,-2.0494,-2.059,-2.059,-2.059,-2.059,-2.059,-2.0782,-2.1596,-2.231,-2.2914,-2.3078,-2.2975,-2.2884,-2.2975,-2.2944,-2.2884,-2.2884,-2.2884,-2.2628,-2.1908,-2.1819,-2.1561,-2.0786,-2.1006,-2.1275,-2.1275,-2.1675,-2.1976,-2.1976,-2.2386,-2.2853,-2.3334,-2.3294,-2.322,-2.322,-2.322,-2.322,-2.322,-2.322,-2.322,-2.322,-2.322,-2.3331,-2.3514,-2.3514,-2.3441,-2.3368,-2.3368,-2.3331,-2.322,-2.322,-2.2702,-2.1886,-2.1886,-2.1375,-2.0605,-2.0605,-2.0605,-2.0605,-2.0605,-2.0605,-2.0605,-2.9002,-2.9002,-2.878,-2.8117,-2.7986,-2.7769,-2.7129,-2.6871,-2.6748,-2.6748,-2.6624,-2.6499,-2.6499,-2.6499,-2.6499,-2.6499,-2.6499,-2.6499,-2.6499,-2.5769,-2.5335,-2.5335,-2.4588,-2.4145,-2.4145,-2.5674,-2.6499,-2.6499,-2.6499,-2.6094,-2.5335,-2.5335,-2.4886,-2.4145,-2.4145,-2.4145,-2.4145,-2.4145,-2.4145,-2.4145,-2.4145,-2.4145,-2.4145,-2.4145,-2.4145,-2.4108,-2.3891,-2.35,-2.2757,-2.0946,-2.022,-1.9997,-1.9669,-1.9584,-1.9726,-2.0398,-2.059,-2.059,-2.059,-2.059,-2.0655,-2.0814,-2.1005,-2.1479,-2.2793,-2.2082,-2.1333,-2.2032,-2.1616,-2.1132,-2.1132,-2.1132,-2.1069,-2.091,-2.1131,-2.1282,-2.1085,-2.1442,-2.1753,-2.1753,-2.2222,-2.2523,-2.2523,-2.2306,-2.2184,-2.2317,-2.1631,-2.1231,-2.1231,-2.1231,-2.1231,-2.1231,-2.1231,-2.1231,-2.1231,-2.1231,-2.201,-2.3514,-2.3514,-2.3073,-2.2328,-2.2328,-2.1924,-2.1231,-2.1231,-2.1078,-2.0895,-2.0895,-2.0789,-2.0605,-2.0605,-2.0605,-2.0605,-2.0605,-2.0605,-2.0605,-2.7802,-2.7802,-2.767,-2.7196,-2.7129,-2.7007,-2.6555,-2.6499,-2.6499,-2.6499,-2.6499,-2.6499,-2.6499,-2.606,-2.5581,-2.5099,-2.5063,-2.5063,-2.5063,-2.4588,-2.4264,-2.4264,-2.3781,-2.3514,-2.3514,-2.4541,-2.5063,-2.5063,-2.5063,-2.4803,-2.4264,-2.4264,-2.4,-2.3514,-2.3514,-2.3514,-2.3514,-2.3514,-2.3514,-2.3514,-2.3514,-2.3514,-2.3514,-2.3514,-2.3514,-2.3441,-2.2962,-2.2178,-2.1199,-2.0237,-1.9763,-1.9586,-1.9363,-1.914,-1.906,-1.9523,-1.95,-1.9365,-1.9365,-1.9365,-1.9464,-1.9879,-1.9661,-1.9814,-2.151,-2.1227,-2.0719,-2.1207,-2.091,-2.059,-2.059,-2.0749,-2.073,-2.0347,-2.0637,-2.078,-2.0341,-2.0669,-2.0952,-2.0952,-2.1397,-2.1681,-2.1681,-2.146,-2.1336,-2.1336,-2.0895,-2.0605,-2.0605,-2.0605,-2.0605,-2.0605,-2.0605,-2.0605,-2.0605,-2.0605,-2.1126,-2.2113,-2.2113,-2.1859,-2.1336,-2.1336,-2.1039,-2.0605,-2.0605,-2.0605,-2.0605,-2.0605,-2.0605,-2.0605,-2.0605,-2.0605,-2.0605,-2.0605,-2.0605,-2.0605,-2.6499,-2.6499,-2.6499,-2.6499,-2.6499,-2.6499,-2.6499,-2.6499,-2.643,-2.628,-2.6245,-2.6164,-2.6013,-2.5252,-2.4409,-2.3551,-2.3514,-2.3514,-2.3514,-2.3331,-2.3257,-2.3257,-2.3073,-2.2999,-2.2999,-2.2999,-2.3184,-2.3514,-2.3514,-2.3404,-2.3257,-2.3257,-2.3147,-2.2999,-2.2999,-2.2999,-2.2999,-2.2999,-2.2999,-2.2999,-2.2999,-2.2999,-2.2999,-2.2999,-2.2999,-2.2888,-2.2075,-2.1027,-2.0019,-1.9941,-1.9678,-1.9385,-1.9307,-1.9043,-1.8715,-1.8715,-1.8461,-1.8232,-1.8232,-1.8232,-1.8394,-1.9113,-1.8751,-1.859,-2.0062,-2.026,-2.0226,-2.0444,-2.0357,-2.0281,-2.0369,-2.0631,-2.0633,-1.9924,-2.0178,-2.0237,-1.9504,-1.9756,-2.0029,-2.0029,-2.0342,-2.0605,-2.0605,-2.0605,-2.0605,-2.0605,-2.0605,-2.0605,-2.0605,-2.0605,-2.0605,-2.0605,-2.0605,-2.0605,-2.0605,-2.0605,-2.0605,-2.0605,-2.0605,-2.0605,-2.0605,-2.0605,-2.0605,-2.0605,-2.0605,-2.0605,-2.0605,-2.0605,-2.0605,-2.0605,-2.0605,-2.0605,-2.0605,-2.0605,-2.0605,-2.0576,-2.6499,-2.6499,-2.6499,-2.6499,-2.6499,-2.6499,-2.6499,-2.6499,-2.6198,-2.5335,-2.5194,-2.485,-2.4,-2.377,-2.3672,-2.3514,-2.3514,-2.3514,-2.3514,-2.2702,-2.2215,-2.2215,-2.1413,-2.0972,-2.0972,-2.0972,-2.1821,-2.3514,-2.3514,-2.3036,-2.2215,-2.2215,-2.1773,-2.0972,-2.0972,-2.0972,-2.0972,-2.0972,-2.0972,-2.0972,-2.0972,-2.0972,-2.0972,-2.0972,-2.0972,-2.0972,-2.0828,-2.0672,-2.0458,-2.0049,-1.9873,-1.9766,-1.9404,-1.9248,-1.9199,-1.9199,-1.916,-1.9111,-1.9111,-1.9111,-1.9147,-1.9292,-1.922,-1.9183,-1.9425,-1.8874,-1.8664,-1.9768,-1.9418,-1.9004,-1.9382,-1.9501,-1.9505,-1.9407,-1.9735,-1.9936,-1.9834,-2.0205,-2.0517,-2.0517,-2.0566,-2.0605,-2.0605,-2.0605,-2.0605,-2.0605,-2.0605,-2.0605,-2.0605,-2.0605,-2.0605,-2.0605,-2.0605,-2.0605,-2.0605,-2.0605,-2.0605,-2.0605,-2.0605,-2.0605,-2.0605,-2.0605,-2.0605,-2.0605,-2.0605,-2.0605,-2.0605,-2.0605,-2.0605,-2.0605,-2.0605,-2.0605,-2.0605,-2.0605,-2.0605,-2.0498,-2.6499,-2.6499,-2.6499,-2.6499,-2.6499,-2.6314,-2.5734,-2.5652,-2.53,-2.4301,-2.4156,-2.4,-2.3562,-2.2999,-2.244,-2.1935,-2.1859,-2.1859,-2.1859,-2.1451,-2.1231,-2.1231,-2.0818,-2.0605,-2.0605,-2.0605,-2.1011,-2.1859,-2.1859,-2.1631,-2.1231,-2.1231,-2.1011,-2.0605,-2.0605,-2.0605,-2.0605,-2.0605,-2.0605,-2.0605,-2.0605,-2.0605,-2.0605,-2.0605,-2.0605,-2.0605,-2.0605,-2.0605,-2.0576,-2.038,-2.0273,-2.0244,-2.0096,-1.9834,-1.9639,-1.9639,-1.9473,-1.9287,-1.9287,-1.9287,-1.9287,-1.9287,-1.9287,-1.9287,-1.9287,-1.8994,-1.8876,-1.9434,-1.9271,-1.9053,-1.9248,-1.9482,-1.9639,-1.9639,-2.0,-2.0273,-2.0273,-2.0478,-2.0605,-2.0605,-2.0605,-2.0605,-2.0605,-2.0605,-2.0605,-2.0605,-2.0605,-2.0605,-2.0605,-2.0605,-2.0605,-2.0605,-2.0605,-2.0605,-2.0605,-2.0605,-2.0605,-2.0605,-2.0605,-2.0605,-2.0605,-2.0605,-2.0605,-2.0605,-2.0605,-2.0605,-2.0605,-2.0605,-2.0605,-2.0605,-2.0605,-2.0605,-2.0557,-2.0099,-1.9934,-1.9829]},{"header":{"parameterUnit":"m.s-1","parameterCategory":1,"la1":30.6,"la2":28.766,"lo1":-90.7593,"lo2":-88.6598,"dy":0.0162,"dx":0.0183,"nx":116,"ny":114,"refTime":"2023-08-20T06:00:00:Z","depth":0,"parameterNumber":3,"parameterNumberName":"V-component_of_WINDS"},"data":[0.0,0.0,0.0,0.0,0.0,0.0,0.0,0.0,0.0,0.0,0.0,0.0,0.0,0.0,0.0,0.0,0.0,0.0,0.0,0.0,0.0,0.0,0.0,0.0,0.0,0.0,0.0,0.0,0.0,0.0,0.0,0.0,0.0,0.0,0.0,0.0,0.0,0.0,0.0,0.0,0.0,0.0,0.0,0.0,0.0,0.0,0.0,0.0,0.0,0.0,0.0,0.0,0.0,0.0,0.0,0.0,0.0,0.0,0.0,0.0,0.0,0.0,0.0,0.0,0.0,0.0,0.0,0.0,0.0,0.0,0.0,0.0,0.0,0.0,0.0,0.0,0.0,0.0,0.0,0.0,0.0,0.0,0.0,0.0,0.0,0.0,0.0,0.0,0.0,0.0,0.0,0.0,0.0,0.0,0.0,0.0,0.0,0.0,0.0,0.0,0.0,0.0,0.0,0.0,0.0,0.0,0.0,0.0,0.0,0.0,0.0,0.0,0.0,0.0,0.0,0.0,0.0,0.0,0.0,0.0,0.0,0.0,0.0,0.0,0.0,0.0,0.0,0.0,0.0,0.0,0.0,0.0,0.0,0.0,0.0,0.0,0.0,0.0,0.0,0.0,0.0,0.0,0.0,0.0,0.0,0.0,0.0,0.0,0.0,0.0,0.0,0.0,0.0,0.0,0.0,0.0,0.0,0.0,0.0,0.0,0.0,0.0,0.0,0.0,0.0,0.0,0.0,0.0,0.0,0.0,0.0,0.0,0.0,0.0,0.0,0.0,0.0,0.0,0.0,0.0,0.0,0.0,0.0,0.0,0.0,0.0,0.0,0.0,0.0,0.0,0.0,0.0,0.0,0.0,0.0,0.0,0.0,0.0,0.0,0.0,0.0,0.0,0.0,0.0,0.0,0.0,0.0,0.0,0.0,0.0,0.0,0.0,0.0,0.0,0.0,0.0,0.0,0.0,0.0,0.0,0.0,0.0,0.0,0.0,0.0,0.0,0.0,0.0,0.0,0.0,0.0,0.0,0.0,0.0,0.0,0.0,0.0,0.0,0.0,0.0,0.0,0.0,0.0,0.0,0.0,0.0,0.0,0.0,0.0,0.0,0.0,0.0,0.0,0.0,0.0,0.0,0.0,0.0,0.0,0.0,0.0,0.0,0.0,0.0,0.0,0.0,0.0,0.0,0.0,0.0,0.0,0.0,0.0,0.0,0.0,0.0,0.0,0.0,0.0,0.0,0.0,0.0,0.0,0.0,0.0,0.0,0.0,0.0,0.0,0.0,0.0,0.0,0.0,0.0,0.0,0.0,0.0,0.0,0.0,0.0,0.0,0.0,0.0,0.0,0.0,0.0,0.0,0.0,0.0,0.0,0.0,0.0,0.0,0.0,0.0,0.0,0.0,0.0,0.0,0.0,0.0,0.0,0.0,0.0,0.0,0.0,0.0,0.0,0.0,0.0,0.0,0.0,0.0,0.0,0.0,0.0,0.0,0.0,0.0,0.0,0.0,0.0,0.0,0.0,0.0,0.0,0.0,0.0,0.0,0.0,0.0,0.0,0.0,0.0,0.0,0.0,0.0,0.0,0.0,0.0,0.0,0.0,0.0,0.0,0.0,0.0,0.0,0.0,0.0,0.0,0.0,0.0,0.0,0.0,0.0,0.0,0.0,0.0,0.0,0.0,0.0,0.0,0.0,0.0,0.0,0.0,0.0,0.0,0.0,0.0,0.0,0.0,0.0,0.0,0.0,0.0,0.0,0.0,0.0,0.0,0.0,0.0,0.0,0.0,0.0,0.0,0.0,0.0,0.0,0.0,0.0,0.0,0.0,0.0,0.0,0.0,0.0,0.0,0.0,0.0,0.0,0.0,0.0,0.0,0.0,0.0,0.0,0.0,0.0,0.0,0.0,0.0,0.0,0.0,0.0,0.0,0.0,0.0,0.0,0.0,0.0,0.0,0.0,0.0,0.0,0.0,0.0,0.0,0.0,0.0,0.0,0.0,0.0,0.0,0.0,0.0,0.0,0.0,0.0,0.0,0.0,0.0,0.0,0.0,0.0,0.0,0.0,0.0,0.0,0.0,0.0,0.0,0.0,0.0,0.0,0.0,0.0,0.0,0.0,0.0,0.0,0.0,0.0,0.0,0.0,0.0,0.0,0.0,0.0,0.0,0.0,0.0,0.0,0.0,0.0,0.0,0.0,0.0,0.0,0.0,0.0,0.0,0.0,0.0,0.0,0.0,0.0,0.0,0.0,0.0,0.0,0.0,0.0,0.0,0.0,0.0,0.0,0.0,0.0,0.0,0.0,0.0,0.0,0.0,0.0,0.0,0.0,0.0,0.0,0.0,0.0,0.0,0.0,0.0,0.0,0.0,0.0,0.0,0.0,0.0,0.0,0.0,0.0,0.0,0.0,0.0,0.0,0.0,0.0,0.0,0.0,0.0,0.0,0.0,0.0,0.0,0.0,0.0,0.0,0.0,0.0,0.0,0.0,0.0,0.0,0.0,0.0,0.0,0.0,0.0,0.0,0.0,0.0,0.0,0.0,0.0,0.0,0.0,0.0,0.0,0.0,0.0,0.0,0.0,0.0,0.0,0.0,0.0,0.0,0.0,0.0,0.0,0.0,0.0,0.0,0.0,0.0,0.0,0.0,0.0,0.0,0.0,0.0,0.0,0.0,0.0,0.0,0.0,0.0,0.0,0.0,0.0,0.0,0.0,0.0,0.0,0.0,0.0,0.0,0.0,0.0,0.0,0.0,0.0,0.0,0.0,0.0,0.0,0.0,0.0,0.0,0.0,0.0,0.0,0.0,0.0,0.0,0.0,0.0,0.0,0.0,0.0,0.0,0.0,0.0,0.0,0.0,0.0,0.0,0.0,0.0,0.0,0.0,0.0,0.0,0.0,0.0,0.0,0.0,0.0,0.0,0.0,0.0,0.0,0.0,0.0,0.0,0.0,0.0,0.0,0.0,0.0,0.0,0.0,0.0,0.0,0.0,0.0,0.0,0.0,0.0,0.0,0.0,0.0,0.0,0.0,0.0,0.0,0.0,0.0,0.0,0.0,0.0,0.0,0.0,0.0,0.0,0.0,0.0,0.0,0.0,0.0,0.0,0.0,0.0,0.0,0.0,0.0,0.0,0.0,0.0,0.0,0.0,0.0,0.0,0.0,0.0,0.0,0.0,0.0,0.0,0.0,0.0,0.0,0.0,0.0,0.0,0.0,0.0,0.0,0.0,0.0,0.0,0.0,0.0,0.0,0.0,0.0,0.0,0.0,0.0,0.0,0.0,0.0,0.0,0.0,0.0,0.0,0.0,0.0,0.0,0.0,0.0,0.0,0.0,0.0,0.0,0.0,0.0,0.0,0.0,0.0,0.0,0.0,0.0,0.0,0.0,0.0,0.0,0.0,0.0,0.0,0.0,0.0,0.0,0.0,0.0,0.0,0.0,0.0,0.0,0.0,0.0,0.0,0.0,0.0,0.0,0.0,0.0,0.0,0.0,0.0,0.0,0.0,0.0,0.0,0.0,0.0,0.0,0.0,0.0,0.0,0.0,0.0,0.0,0.0,0.0,0.0,0.0,0.0,0.0,0.0,0.0,0.0,0.0,0.0,0.0,0.0,0.0,0.0,0.0,0.0,0.0,0.0,0.0,0.0,0.0,0.0,0.0,0.0,0.0,0.0,0.0,0.0,0.0,0.0,0.0,0.0,0.0,0.0,0.0,0.0,0.0,0.0,0.0,0.0,0.0,0.0,0.0,0.0,0.0,0.0,0.0,0.0,0.0,0.0,0.0,0.0,0.0,0.0,0.0,0.0,0.0,0.0,0.0,0.0,0.0,0.0,0.0,0.0,0.0,0.0,0.0,0.0,0.0,0.0,0.0,0.0,0.0,0.0,0.0,0.0,0.0,0.0,0.0,0.0,0.0,0.0,0.0,0.0,0.0,0.0,0.0,0.0,0.0,0.0,0.0,0.0,0.0,0.0,0.0,0.0,0.0,0.0,0.0,0.0,0.0,0.0,0.0,0.0,0.0,0.0,0.0,0.0,0.0,0.0,0.0,0.0,0.0,0.0,0.0,0.0,0.0,0.0,0.0,0.0,0.0,0.0,0.0,0.0,0.0,0.0,0.0,0.0,0.0,0.0,0.0,0.0,0.0,0.0,0.0,0.0,0.0,0.0,0.0,0.0,0.0,0.0,0.0,0.0,0.0,0.0,0.0,0.0,0.0,0.0,0.0,0.0,0.0,0.0,0.0,0.0,0.0,0.0,0.0,0.0,0.0,0.0,0.0,0.0,0.0,0.0,0.0,0.0,0.0,0.0,0.0,0.0,0.0,0.0,0.0,0.0,0.0,0.0,0.0,0.0,0.0,0.0,0.0,0.0,0.0,0.0,0.0,0.0,0.0,0.0,0.0,0.0,0.0,0.0,0.0,0.0,0.0,0.0,0.0,0.0,0.0,0.0,0.0,0.0,0.0,0.0,0.0,0.0,0.0,0.0,0.0,0.0,0.0,0.0,0.0,0.0,0.0,0.0,0.0,0.0,0.0,0.0,0.0,0.0,0.0,0.0,0.0,0.0,0.0,0.0,0.0,0.0,0.0,0.0,0.0,0.0,0.0,0.0,0.0,0.0,0.0,0.0,0.0,0.0,0.0,0.0,0.0,0.0,0.0,0.0,0.0,0.0,0.0,0.0,0.0,0.0,0.0,0.0,0.0,0.0,0.0,0.0,0.0,0.0,0.0,0.0,0.0,0.0,0.0,0.0,0.0,0.0,0.0,0.0,0.0,0.0,0.0,0.0,0.0,0.0,0.0,0.0,0.0,0.0,0.0,0.0,0.0,0.0,0.0,0.0,0.0,0.0,0.0,0.0,0.0,0.0,0.0,0.0,0.0,0.0,0.0,0.0,0.0,0.0,0.0,0.0,0.0,0.0,0.0,0.0,0.0,0.0,0.0,0.0,0.0,0.0,0.0,0.0,0.0,0.0,0.0,0.0,0.0,0.0,0.0,0.0,0.0,0.0,0.0,0.0,0.0,0.0,0.0,0.0,0.0,0.0,0.0,0.0,0.0,0.0,0.0,0.0,0.0,0.0,0.0,0.0,0.0,0.0,0.0,0.0,0.0,0.0,0.0,0.0,0.0,0.0,0.0,0.0,0.0,0.0,0.0,0.0,0.0,0.0,0.0,0.0,0.0,0.0,0.0,0.0,0.0,0.0,0.0,0.0,0.0,0.0,0.0,0.0,0.0,0.0,0.0,0.0,0.0,0.0,0.0,0.0,0.0,0.0,0.0,0.0,0.0,0.0,0.0,0.0,0.0,0.0,0.0,0.0,0.0,0.0,0.0,0.0,0.0,0.0,0.0,0.0,0.0,0.0,0.0,0.0,0.0,0.0,0.0,0.0,0.0,0.0,0.0,0.0,0.0,0.0,0.0,0.0,0.0,0.0,0.0,0.0,0.0,0.0,0.0,0.0,0.0,0.0,0.0,0.0,0.0,0.0,0.0,0.0,0.0,0.0,0.0,0.0,0.0,0.0,0.0,0.0,0.0,0.0,0.0,0.0,0.0,0.0,0.0,0.0,0.0,0.0,0.0,0.0,0.0,0.0,0.0,0.0,0.0,0.0,0.0,0.0,0.0,0.0,0.0,0.0,0.0,0.0,0.0,0.0,0.0,0.0,0.0,0.0,0.0,0.0,0.0,0.0,0.0,0.0,0.0,0.0,0.0,0.0,0.0,0.0,0.0,0.0,0.0,0.0,0.0,0.0,0.0,0.0,0.0,0.0,0.0,0.0,0.0,0.0,0.0,0.0,0.0,0.0,0.0,0.0,0.0,0.0,0.0,0.0,0.0,0.0,0.0,0.0,0.0,0.0,0.0,0.0,0.0,0.0,0.0,0.0,0.0,0.0,0.0,0.0,0.0,0.0,0.0,0.0,0.0,0.0,0.0,0.0,0.0,0.0,0.0,0.0,0.0,0.0,0.0,0.0,0.0,0.0,0.0,0.0,0.0,0.0,0.0,0.0,0.0,0.0,0.0,0.0,0.0,0.0,0.0,0.0,0.0,0.0,0.0,0.0,0.0,0.0,0.0,0.0,0.0,0.0,0.0,0.0,-1.2305,0.0,0.0,0.0,0.0,0.0,0.0,0.0,0.0,0.0,0.0,0.0,0.0,0.0,0.0,0.0,0.0,0.0,0.0,0.0,0.0,0.0,0.0,0.0,0.0,0.0,0.0,0.0,0.0,0.0,0.0,0.0,0.0,0.0,0.0,0.0,0.0,0.0,0.0,0.0,0.0,0.0,0.0,0.0,0.0,0.0,0.0,0.0,0.0,0.0,0.0,0.0,0.0,0.0,0.0,0.0,0.0,0.0,0.0,0.0,0.0,0.0,0.0,0.0,0.0,0.0,0.0,0.0,0.0,0.0,0.0,0.0,0.0,0.0,0.0,0.0,0.0,0.0,0.0,0.0,0.0,0.0,0.0,0.0,0.0,0.0,0.0,0.0,0.0,0.0,0.0,0.0,0.0,0.0,0.0,0.0,0.0,0.0,0.0,0.0,0.0,0.0,0.0,0.0,0.0,0.0,0.0,0.0,0.0,0.0,0.0,0.0,0.0,0.0,0.0,0.0,0.0,-1.2305,0.0,0.0,0.0,0.0,0.0,0.0,0.0,0.0,0.0,0.0,0.0,0.0,0.0,0.0,0.0,0.0,0.0,0.0,0.0,0.0,0.0,0.0,0.0,0.0,-0.5512,-0.3552,-0.3214,0.0,0.0,0.0,0.0,0.0,0.0,0.0,0.0,0.0,0.0,0.0,0.0,0.0,0.0,0.0,0.0,0.0,0.0,0.0,0.0,0.0,0.0,0.0,0.0,0.0,0.0,0.0,0.0,0.0,0.0,0.0,0.0,0.0,0.0,0.0,0.0,0.0,0.0,0.0,0.0,0.0,0.0,0.0,0.0,0.0,0.0,0.0,0.0,0.0,0.0,0.0,0.0,0.0,0.0,0.0,0.0,0.0,0.0,0.0,0.0,0.0,0.0,0.0,0.0,0.0,0.0,0.0,0.0,0.0,0.0,0.0,0.0,0.0,0.0,0.0,0.0,0.0,0.0,0.0,0.0,0.0,-1.049,-1.105,-1.1087,-1.1922,-1.2305,-1.2305,-1.2305,-1.2305,-1.2305,-1.2305,0.0,0.0,0.0,0.0,0.0,0.0,0.0,0.0,0.0,0.0,0.0,0.0,0.0,0.0,0.0,0.0,0.0,0.0,0.0,0.0,0.0,-0.63,-0.5825,-0.4608,-0.3621,-0.2621,0.0,0.0,0.0,0.0,0.0,0.0,0.0,0.0,0.0,0.0,0.0,0.0,0.0,0.0,0.0,0.0,0.0,0.0,0.0,0.0,0.0,0.0,0.0,0.0,0.0,0.0,0.0,0.0,0.0,0.0,0.0,0.0,0.0,0.0,0.0,0.0,0.0,0.0,0.0,0.0,0.0,0.0,0.0,0.0,0.0,0.0,0.0,0.0,0.0,0.0,0.0,0.0,0.0,0.0,0.0,0.0,0.0,0.0,0.0,0.0,-0.63,-0.63,0.0,0.0,0.0,0.0,0.0,0.0,0.0,0.0,0.0,0.0,0.0,0.0,0.0,-0.6679,-0.6679,-0.8428,-0.9296,-0.9334,-1.1211,-1.2114,-1.2114,-1.2224,-1.2305,-1.2305,-1.2305,0.0,-1.2305,-1.2305,0.0,0.0,0.0,0.0,0.0,0.0,0.0,0.0,0.0,0.0,0.0,0.0,0.0,0.0,0.0,0.0,0.0,0.0,0.0,0.0,0.0,-0.6371,-0.5981,-0.4901,-0.4434,-0.3505,-0.1819,0.0,0.0,0.0,0.0,0.0,0.0,0.0,0.0,0.0,0.0,0.0,0.0,0.0,0.0,0.0,0.0,0.0,0.0,0.0,0.0,0.0,0.0,0.0,0.0,0.0,0.0,0.0,0.0,0.0,0.0,0.0,0.0,0.0,0.0,0.0,0.0,0.0,0.0,0.0,0.0,0.0,0.0,0.0,0.0,0.0,0.0,0.0,0.0,0.0,0.0,0.0,0.0,0.0,0.0,0.0,0.0,0.0,0.0,-0.63,-0.63,-0.63,-0.63,-0.63,0.0,0.0,0.0,0.0,0.0,0.0,0.0,0.0,0.0,-0.63,-0.63,-0.63,-0.63,-0.7176,-0.764,-0.7735,-0.9198,-0.9916,-1.0008,-1.0595,-1.0794,-1.0734,-1.0734,-1.0697,-1.0689,-1.1811,-1.2305,-1.2305,0.0,0.0,0.0,0.0,-1.2305,-1.2305,0.0,0.0,0.0,0.0,0.0,0.0,0.0,0.0,0.0,0.0,0.0,0.0,-0.6354,-0.6484,-0.6121,-0.5062,-0.479,-0.384,-0.1945,-0.1531,0.0,0.0,0.0,0.0,0.0,0.0,0.0,0.0,0.0,0.0,0.0,0.0,0.0,0.0,0.0,0.0,0.0,0.0,0.0,0.0,0.0,0.0,0.0,0.0,0.0,0.0,0.0,0.0,0.0,0.0,0.0,0.0,0.0,0.0,0.0,0.0,0.0,0.0,0.0,0.0,0.0,0.0,0.0,0.0,0.0,0.0,0.0,0.0,0.0,0.0,0.0,0.0,0.0,0.0,0.0,0.0,0.0,-0.63,-0.63,-0.63,-0.63,-0.63,0.0,0.0,0.0,0.0,0.0,0.0,-0.63,-0.6334,-0.6354,-0.6354,-0.6392,-0.6412,-0.6412,-0.6645,-0.6817,-0.6929,-0.7961,-0.847,-0.861,-0.934,-0.9657,-0.9538,-0.9538,-0.9492,-0.953,-1.0929,-1.1515,-1.1515,-1.1515,-1.1515,-1.1552,-1.1811,-1.1922,-1.1959,0.0,0.0,0.0,0.0,0.0,0.0,0.0,0.0,0.0,0.0,0.0,-0.6501,-0.6501,-0.6597,-0.6268,-0.5175,-0.4093,-0.3026,-0.186,-0.0707,-0.0045,0.0,0.0,0.0,0.0,0.0,0.0,0.0,0.0,0.0,0.0,0.0,0.0,0.0,0.0,0.0,0.0,0.0,0.0,0.0,0.0,0.0,0.0,0.0,0.0,0.0,0.0,0.0,0.0,0.0,0.0,0.0,0.0,0.0,0.0,0.0,0.0,0.0,0.0,0.0,0.0,0.0,0.0,0.0,0.0,0.0,0.0,0.0,0.0,0.0,0.0,0.0,0.0,0.0,0.0,0.0,0.0,0.0,0.0,-0.63,-0.63,0.0,0.0,0.0,0.0,-0.63,-0.63,-0.63,-0.63,-0.6426,-0.6501,-0.6501,-0.6603,-0.6678,-0.6678,-0.761,-0.8102,-0.811,-0.9122,-0.9614,-0.9624,-0.9669,-0.97,-0.969,-0.969,-0.9685,-0.9686,-0.9507,-0.9448,-0.9448,-0.9448,-0.9448,-0.9561,-1.0527,-1.0901,-1.1013,0.0,0.0,0.0,0.0,0.0,0.0,0.0,0.0,0.0,-0.63,-0.6422,-0.6511,-0.6511,-0.6698,-0.6675,-0.6287,-0.5973,-0.4985,-0.309,-0.2536,-0.1612,0.0,0.0,0.0,0.0,0.0,0.0,0.0,0.0,0.0,0.0,0.0,0.0,0.0,0.0,0.0,0.0,0.0,0.0,0.0,0.0,0.0,0.0,0.0,0.0,0.0,0.0,0.0,0.0,0.0,0.0,0.0,0.0,0.0,0.0,0.0,0.0,0.0,0.0,0.0,0.0,0.0,0.0,0.0,0.0,0.0,0.0,0.0,0.0,0.0,0.0,0.0,0.0,0.0,0.0,0.0,0.0,0.0,0.0,-0.6426,-0.6436,0.0,-0.6532,-0.6542,-0.6542,-0.6542,-0.6542,-0.6542,-0.6542,-0.659,-0.662,-0.662,-0.6671,-0.6702,-0.6702,-0.7067,-0.7284,-0.739,-0.7724,-0.7943,-0.8045,-0.8045,-0.7986,-0.7888,-0.7888,-0.7863,-0.7749,-0.7668,-0.8335,-0.9421,-0.9421,-0.9379,-0.9334,-0.9707,-0.982,-0.9895,0.0,0.0,0.0,0.0,0.0,0.0,0.0,0.0,-0.6317,-0.6364,-0.6501,-0.6569,-0.662,-0.6851,-0.6824,-0.6433,-0.611,-0.5085,-0.3126,-0.2592,-0.1656,0.0,0.0,0.0,0.0,0.0,0.0,0.0,0.0,0.0,0.0,0.0,0.0,0.0,0.0,0.0,0.0,0.0,0.0,0.0,0.0,0.0,0.0,0.0,0.0,0.0,0.0,0.0,0.0,0.0,0.0,0.0,0.0,0.0,0.0,0.0,0.0,0.0,0.0,0.0,0.0,0.0,0.0,0.0,0.0,0.0,0.0,0.0,0.0,0.0,0.0,0.0,0.0,0.0,0.0,0.0,0.0,0.0,-0.6484,-0.6539,-0.6549,-0.659,-0.6692,-0.6702,-0.6702,-0.6702,-0.6702,-0.6722,-0.6773,-0.6824,-0.6871,-0.6926,-0.6976,-0.7004,-0.7004,-0.7004,-0.7054,-0.7156,-0.7156,-0.7204,-0.725,-0.7241,-0.7166,-0.7075,-0.698,-0.69,-0.6848,-0.6848,-0.7541,-0.8631,-0.8564,-0.8502,-0.8468,-0.8819,-0.8889,-0.8894,0.0,0.0,0.0,0.0,0.0,0.0,0.0,-0.6303,-0.6358,-0.6494,-0.661,-0.6763,-0.6869,-0.6967,-0.6605,-0.5492,-0.4283,-0.3081,-0.1879,-0.0718,-0.0045,0.0,0.0,0.0,0.0,0.0,0.0,0.0,0.0,0.0,0.0,0.0,0.0,0.0,0.0,0.0,0.0,0.0,0.0,0.0,0.0,0.0,0.0,0.0,0.0,0.0,0.0,0.0,0.0,0.0,0.0,0.0,0.0,0.0,0.0,0.0,0.0,0.0,0.0,0.0,0.0,0.0,0.0,0.0,0.0,0.0,0.0,0.0,0.0,0.0,0.0,0.0,0.0,0.0,0.0,0.0,-0.6574,-0.6702,-0.6702,-0.6709,-0.6709,-0.6712,-0.6719,-0.6722,-0.6722,-0.6729,-0.6729,-0.6793,-0.69,-0.7038,-0.7224,-0.7419,-0.7522,-0.76,-0.76,-0.76,-0.76,-0.76,-0.76,-0.76,-0.7594,-0.7448,-0.7426,-0.7415,-0.7221,-0.7109,-0.7109,-0.7109,-0.7028,-0.6883,-0.677,-0.6705,-0.6823,-0.7802,-0.8052,-0.8067,0.0,0.0,0.0,0.0,0.0,0.0,0.0,-0.6388,-0.6467,-0.6508,-0.6702,-0.6839,-0.6879,-0.6262,-0.5758,-0.5447,-0.4283,-0.3081,-0.1879,-0.1478,-0.0897,0.0,0.0,0.0,0.0,0.0,0.0,0.0,0.0,0.0,0.0,0.0,0.0,0.0,0.0,0.0,0.0,0.0,0.0,0.0,0.0,0.0,0.0,0.0,0.0,0.0,0.0,0.0,0.0,0.0,0.0,0.0,0.0,0.0,0.0,0.0,0.0,0.0,0.0,0.0,0.0,0.0,0.0,0.0,0.0,0.0,0.0,0.0,0.0,0.0,0.0,0.0,0.0,0.0,0.0,-0.6595,-0.6687,-0.6702,-0.6742,-0.6854,-0.6865,-0.6949,-0.7166,-0.7187,-0.7234,-0.7343,-0.7353,-0.737,-0.7414,-0.7451,-0.7495,-0.7536,-0.758,-0.76,-0.76,-0.76,-0.76,-0.76,-0.76,-0.76,-0.7597,-0.7556,-0.7536,-0.7536,-0.7492,-0.7475,-0.7475,-0.7475,-0.7383,-0.7224,-0.6966,-0.68,-0.674,-0.7026,-0.708,-0.7078,0.0,0.0,0.0,0.0,0.0,0.0,0.0,-0.6419,-0.6535,-0.6559,-0.6776,-0.691,-0.6967,-0.6471,-0.5938,-0.5447,-0.4283,-0.3081,-0.1879,-0.1344,0.0,0.0,0.0,0.0,0.0,0.0,0.0,0.0,0.0,0.0,0.0,0.0,0.0,0.0,0.0,0.0,0.0,0.0,0.0,0.0,0.0,0.0,0.0,0.0,0.0,0.0,0.0,0.0,0.0,0.0,0.0,0.0,0.0,0.0,0.0,0.0,0.0,0.0,0.0,0.0,0.0,0.0,0.0,0.0,0.0,0.0,0.0,0.0,0.0,0.0,0.0,0.0,0.0,0.0,-0.665,-0.7058,-0.6997,-0.698,-0.7014,-0.7105,-0.717,-0.7278,-0.7451,-0.7465,-0.7502,-0.7594,-0.76,-0.7628,-0.7685,-0.7689,-0.7719,-0.7784,-0.7784,-0.7784,-0.7784,-0.7784,-0.7784,-0.7784,-0.7784,-0.7784,-0.778,-0.7719,-0.7689,-0.7685,-0.7628,-0.76,-0.76,-0.76,-0.7546,0.0,0.0,0.0,0.0,0.0,-0.6797,-0.6787,0.0,0.0,0.0,0.0,0.0,0.0,0.0,-0.6436,-0.6546,-0.6681,-0.6848,-0.6957,-0.7082,-0.7007,-0.6517,-0.5492,-0.4283,-0.3081,-0.1879,0.0,0.0,0.0,0.0,0.0,0.0,0.0,0.0,0.0,0.0,0.0,0.0,0.0,0.0,0.0,0.0,0.0,0.0,0.0,0.0,0.0,0.0,0.0,0.0,0.0,0.0,0.0,0.0,0.0,0.0,0.0,0.0,0.0,0.0,0.0,0.0,0.0,0.0,0.0,0.0,0.0,0.0,0.0,0.0,0.0,0.0,0.0,0.0,0.0,0.0,0.0,0.0,0.0,0.0,0.0,-0.7122,-0.7221,-0.7373,-0.7456,-0.746,-0.7446,-0.7516,-0.7607,-0.7624,-0.7624,-0.7631,-0.7648,-0.7648,-0.7702,-0.7831,0.0,0.0,0.0,0.0,-0.7988,-0.7988,-0.7988,-0.7988,-0.7988,-0.7988,-0.7988,-0.7985,-0.7899,-0.7838,-0.7831,-0.7702,-0.7648,-0.7648,-0.7648,-0.7638,-0.7607,-0.7438,-0.7288,-0.7105,-0.696,-0.691,-0.6889,0.0,0.0,0.0,0.0,0.0,0.0,0.0,-0.6525,-0.6668,-0.6698,-0.6889,-0.7065,-0.7092,-0.6293,-0.5625,-0.5403,-0.4283,-0.3081,-0.1879,0.0,0.0,0.0,0.0,0.0,0.0,0.0,0.0,0.0,0.0,0.0,0.0,0.0,0.0,0.0,0.0,0.0,0.0,0.0,0.0,0.0,0.0,0.0,0.0,0.0,0.0,0.0,0.0,0.0,0.0,0.0,0.0,0.0,0.0,0.0,0.0,0.0,0.0,0.0,0.0,0.0,0.0,0.0,0.0,0.0,0.0,0.0,0.0,0.0,0.0,0.0,0.0,0.0,0.0,-0.7125,-0.7326,-0.738,-0.7536,-0.7655,-0.7685,-0.757,-0.7584,-0.7645,-0.7756,-0.777,-0.7821,-0.7894,-0.7904,-0.7917,-0.7944,-0.7944,-0.7961,-0.7988,-0.7988,-0.7988,-0.7988,-0.7988,-0.7988,-0.7988,0.0,0.0,-0.7988,-0.7961,-0.7944,-0.7944,-0.7917,-0.7904,-0.7904,-0.7904,-0.7882,-0.7743,-0.7475,-0.7353,-0.7309,-0.7112,-0.7055,-0.7051,0.0,0.0,0.0,0.0,0.0,0.0,0.0,-0.6512,-0.6702,-0.6702,-0.6913,-0.7095,-0.7095,-0.6605,-0.6248,-0.6248,-0.4639,-0.3081,0.0,-0.0673,0.0,0.0,0.0,0.0,0.0,0.0,0.0,0.0,0.0,0.0,0.0,0.0,0.0,0.0,0.0,0.0,0.0,0.0,0.0,0.0,0.0,0.0,0.0,0.0,0.0,0.0,0.0,0.0,0.0,0.0,0.0,0.0,0.0,0.0,0.0,0.0,0.0,0.0,0.0,0.0,0.0,0.0,0.0,0.0,0.0,0.0,0.0,0.0,0.0,-0.4701,0.0,0.0,-0.662,-0.7366,-0.7485,-0.7536,-0.7685,-0.7767,-0.7784,-0.7712,-0.7773,-0.7848,-0.7919,-0.7877,-0.7907,-0.7985,-0.7988,-0.7988,-0.7988,-0.7988,-0.7988,-0.7988,-0.7988,-0.7988,-0.7988,-0.7988,-0.7988,-0.7988,-0.7988,-0.7988,-0.7988,-0.7988,-0.7988,-0.7988,-0.7988,-0.7988,-0.7988,-0.7988,-0.7944,-0.7902,-0.7678,-0.755,-0.7475,-0.7397,-0.7322,-0.7255,0.0,0.0,0.0,0.0,0.0,0.0,0.0,0.0,-0.6668,-0.6698,-0.6889,-0.7065,-0.7092,-0.7095,-0.7007,-0.6786,-0.4816,0.0,0.0,-0.0673,0.0,0.0,0.0,0.0,0.0,0.0,0.0,0.0,0.0,0.0,0.0,0.0,0.0,0.0,0.0,0.0,0.0,0.0,0.0,0.0,0.0,0.0,0.0,0.0,0.0,0.0,0.0,0.0,0.0,0.0,0.0,0.0,0.0,0.0,0.0,0.0,0.0,0.0,0.0,0.0,0.0,0.0,0.0,0.0,0.0,0.0,-0.2864,-0.4082,-0.5119,-0.5832,-0.5958,-0.6768,-0.7465,-0.7614,-0.7641,-0.7692,-0.7834,-0.7855,-0.7855,-0.7855,-0.7914,-0.7988,-0.7988,-0.7988,-0.7988,-0.7988,-0.7988,-0.7988,-0.7988,-0.7988,-0.7988,-0.7988,-0.7988,-0.7988,-0.7988,-0.7988,-0.7988,-0.7988,-0.7988,-0.7988,-0.7988,-0.7988,-0.7988,-0.7988,-0.7988,-0.7988,-0.7988,-0.7988,-0.7988,-0.7978,-0.7902,-0.7787,-0.7678,-0.7621,-0.7522,-0.7456,0.0,0.0,0.0,0.0,0.0,0.0,0.0,0.0,0.0,-0.6681,-0.6848,-0.6957,-0.7082,-0.7095,-0.6694,-0.5672,0.0,0.0,-0.1879,-0.0673,0.0,0.0,0.0,0.0,0.0,0.0,0.0,0.0,0.0,0.0,0.0,0.0,0.0,0.0,0.0,0.0,0.0,0.0,0.0,0.0,0.0,0.0,0.0,0.0,0.0,0.0,0.0,0.0,0.0,0.0,0.0,0.0,0.0,0.0,0.0,0.0,0.0,0.0,0.0,-0.0762,-0.1612,-0.1612,-0.2503,-0.366,0.0,0.0,-0.5387,-0.672,-0.707,-0.7207,-0.7356,-0.748,-0.7621,-0.7763,-0.7787,-0.7841,-0.7941,-0.7965,-0.7965,-0.7965,-0.7978,-0.7988,-0.7988,-0.7988,-0.7988,-0.7988,-0.7988,-0.7988,-0.7988,-0.7988,-0.7988,-0.7988,-0.7988,-0.7988,-0.7988,-0.7988,-0.7988,-0.7988,-0.7988,-0.7988,-0.7988,-0.7988,-0.7988,-0.7988,-0.7988,-0.7988,-0.7988,-0.7988,-0.7988,-0.7988,-0.7971,-0.7955,-0.7911,-0.7695,-0.759,-0.7553,0.0,0.0,0.0,0.0,0.0,0.0,0.0,0.0,0.0,0.0,-0.6834,-0.694,-0.7082,-0.6517,-0.5938,-0.5447,0.0,0.0,-0.1835,-0.0673,0.0,0.0,0.0,0.0,0.0,0.0,0.0,0.0,0.0,0.0,0.0,0.0,0.0,0.0,0.0,0.0,0.0,0.0,0.0,0.0,0.0,0.0,0.0,0.0,0.0,0.0,0.0,0.0,0.0,0.0,0.0,0.0,0.0,0.0,0.0,0.0,0.0,0.0,-0.0852,0.0,0.0,0.0,-0.3866,-0.4924,-0.5489,-0.5642,-0.5983,-0.7254,-0.7506,-0.755,-0.7695,-0.7723,-0.777,0.0,-0.7894,-0.7917,-0.7982,-0.7988,-0.7988,-0.7988,-0.7988,-0.7988,-0.7988,-0.7988,-0.7988,-0.7988,-0.7988,-0.7988,-0.7988,-0.7988,-0.7988,-0.7988,-0.7988,-0.7988,-0.7988,-0.7988,-0.7988,-0.7988,-0.7988,-0.7988,-0.7988,-0.7988,-0.7988,-0.7988,-0.7988,-0.7988,-0.7988,-0.7988,-0.7988,-0.7988,-0.7988,-0.7988,-0.7975,-0.785,-0.7797,-0.7712,0.0,0.0,0.0,0.0,0.0,0.0,0.0,0.0,0.0,0.0,0.0,-0.6804,-0.6631,-0.5894,-0.5134,0.0,0.0,0.0,0.0,-0.0494,0.0,0.0,0.0,0.0,0.0,0.0,0.0,0.0,0.0,0.0,0.0,0.0,0.0,0.0,0.0,0.0,0.0,0.0,0.0,0.0,0.0,0.0,0.0,0.0,0.0,0.0,0.0,0.0,0.0,0.0,0.0,0.0,0.0,0.0,0.0,0.0,0.0,-0.0274,-0.1504,0.0,0.0,-0.4223,-0.5247,-0.6157,-0.6288,-0.6308,-0.6555,-0.7459,-0.7658,-0.7702,-0.7848,-0.7875,-0.7913,-0.7971,-0.7988,-0.7988,-0.7988,-0.7988,-0.7988,-0.7988,-0.7988,-0.7988,-0.7988,-0.7988,-0.7988,-0.7988,-0.7988,-0.7988,-0.7988,-0.7988,-0.7988,-0.7988,-0.7988,-0.7988,-0.7988,-0.7988,-0.7988,-0.7988,-0.7988,-0.7988,-0.7988,-0.7988,-0.7988,-0.7988,-0.7988,-0.7988,-0.7988,-0.7988,-0.7988,-0.7988,-0.7988,-0.7988,-0.7988,-0.7988,-0.7921,-0.7868,0.0,0.0,0.0,0.0,0.0,0.0,0.0,0.0,0.0,0.0,0.0,0.0,0.0,0.0,0.0,0.0,0.0,0.0,0.0,0.0,0.0,0.0,0.0,0.0,0.0,0.0,0.0,0.0,0.0,0.0,0.0,0.0,0.0,0.0,0.0,0.0,0.0,0.0,0.0,0.0,0.0,0.0,0.0,0.0,0.0,0.0,0.0,0.0,0.0,0.0,0.0,0.0,0.0,0.0,0.0,0.0,0.0,-0.0285,0.0,0.0,-0.4124,-0.54,-0.6638,-0.7547,-0.755,-0.755,-0.7591,-0.7777,-0.7804,-0.7851,-0.7955,-0.7982,-0.7985,-0.7988,-0.7988,-0.7988,-0.7988,-0.7988,-0.7988,-0.7988,-0.7988,-0.7988,0.0,-0.7988,-0.7988,-0.7988,-0.7988,-0.7988,-0.7988,-0.7988,-0.7988,-0.7988,-0.7988,-0.7988,-0.7988,-0.7988,-0.7988,-0.7988,-0.7988,-0.7988,-0.7988,-0.7988,-0.7988,-0.7988,-0.7988,-0.7988,-0.7988,-0.7988,-0.7988,-0.7988,-0.7988,-0.7988,-0.7988,-0.7988,-0.7985,-0.7961,0.0,0.0,0.0,0.0,0.0,0.0,0.0,0.0,0.0,0.0,0.0,0.0,0.0,0.0,0.0,0.0,0.0,0.0,0.0,0.0,0.0,0.0,0.0,0.0,0.0,0.0,0.0,0.0,0.0,0.0,0.0,0.0,0.0,0.0,0.0,0.0,0.0,0.0,0.0,0.0,0.0,0.0,0.0,0.0,0.0,0.0,0.0,0.0,0.0,0.0,0.0,0.0,0.0,0.0,0.0,0.0,-0.0621,-0.1595,-0.286,0.0,-0.5463,-0.6813,-0.7446,-0.7767,-0.7868,-0.7843,-0.7857,-0.7904,-0.7914,-0.7928,-0.7982,-0.7988,-0.7988,-0.7988,-0.7988,-0.7988,-0.7988,-0.7988,-0.7988,-0.7988,-0.7988,0.0,0.0,0.0,0.0,-0.7988,-0.7988,-0.7988,-0.7988,-0.7988,-0.7988,-0.7988,-0.7988,-0.7988,-0.7988,-0.7988,-0.7988,-0.7988,-0.7988,-0.7988,-0.7988,-0.7988,-0.7988,-0.7988,-0.7988,-0.7988,-0.7988,-0.7988,-0.7988,-0.7988,-0.7988,-0.7988,-0.7988,-0.7988,-0.7988,-0.7982,0.0,0.0,0.0,0.0,0.0,0.0,0.0,0.0,0.0,0.0,0.0,0.0,0.0,0.0,0.0,0.0,0.0,0.0,0.0,0.0,0.0,0.0,0.0,0.0,0.0,0.0,0.0,0.0,0.0,0.0,0.0,0.0,0.0,0.0,0.0,0.0,0.0,0.0,0.0,0.0,0.0,0.0,0.0,0.0,0.0,0.0,0.0,0.0,0.0,0.0,0.0,0.0,0.0,0.0,-0.0095,-0.0575,-0.1315,-0.2364,-0.4132,-0.5229,-0.6214,-0.7547,-0.7892,-0.7919,-0.7968,-0.7988,-0.7988,-0.7988,-0.7988,-0.7988,-0.7988,-0.7988,-0.7988,-0.7988,-0.7988,-0.7988,-0.7988,-0.7988,-0.7988,-0.7988,-0.7988,-0.7988,0.0,0.0,0.0,-0.7988,-0.7988,-0.7988,-0.7988,-0.7988,-0.7988,-0.7988,-0.7988,-0.7988,-0.7988,-0.7988,-0.7988,-0.7988,-0.7988,-0.7988,-0.7988,-0.7988,-0.7988,-0.7988,-0.7988,-0.7988,-0.7988,-0.7988,-0.7988,-0.7988,-0.7988,-0.7988,-0.7988,-0.7988,-0.7988,-0.7988,0.0,0.0,0.0,0.0,0.0,0.0,0.0,0.0,0.0,0.0,0.0,0.0,0.0,0.0,0.0,0.0,0.0,0.0,0.0,0.0,0.0,0.0,0.0,0.0,0.0,0.0,0.0,0.0,0.0,0.0,0.0,0.0,0.0,0.0,0.0,0.0,0.0,0.0,0.0,0.0,0.0,0.0,0.0,0.0,0.0,0.0,0.0,0.0,0.0,0.0,0.0,0.0,0.0,0.0,-0.0245,-0.1616,-0.2034,-0.2666,-0.5275,-0.6029,-0.6431,-0.7686,-0.7988,-0.7988,-0.7988,-0.7988,-0.7988,-0.7988,-0.7988,-0.7988,0.0,0.0,-0.7988,-0.7988,-0.7988,-0.7988,-0.7988,-0.7988,-0.7988,0.0,0.0,0.0,0.0,0.0,0.0,-0.7988,0.0,-0.7988,-0.7988,-0.7988,-0.7988,-0.7988,-0.7988,-0.7988,-0.7988,-0.7988,-0.7988,-0.7988,-0.7988,-0.7988,-0.7988,-0.7988,-0.7988,-0.7988,-0.7988,-0.7988,-0.7988,-0.7988,-0.7988,-0.7988,-0.7988,-0.7988,-0.7988,-0.7988,-0.7988,-0.7988,0.0,0.0,0.0,0.0,0.0,0.0,0.0,0.0,0.0,0.0,0.0,0.0,0.0,0.0,0.0,0.0,0.0,0.0,0.0,0.0,0.0,0.0,0.0,0.0,0.0,0.0,0.0,0.0,0.0,0.0,0.0,0.0,0.0,0.0,0.0,0.0,0.0,0.0,0.0,0.0,0.0,0.0,0.0,0.0,0.0,0.0,0.0,0.0,0.0,0.0,0.0,0.0,0.0,0.0,-0.0241,-0.1586,-0.2704,-0.3867,-0.5527,-0.6734,-0.7587,-0.7939,-0.7988,-0.7988,-0.7988,-0.7988,-0.7988,-0.7988,-0.7988,-0.7988,0.0,0.0,0.0,-0.7988,-0.7988,0.0,-0.7988,-0.7988,0.0,-0.7988,0.0,-0.7988,-0.7988,-0.7988,0.0,0.0,-0.7988,-0.7988,-0.7988,-0.7988,-0.7988,-0.7988,-0.7988,-0.7988,-0.7988,-0.7988,-0.7988,-0.7988,-0.7988,-0.7988,-0.7988,-0.7988,-0.7988,-0.7988,-0.7988,-0.7988,-0.7988,-0.7988,-0.7988,-0.7988,-0.7988,-0.7988,-0.7988,-0.7988,-0.7988,-0.7988,0.0,0.0,0.0,0.0,0.0,0.0,0.0,0.0,0.0,0.0,0.0,0.0,0.0,0.0,0.0,0.0,0.0,0.0,0.0,0.0,0.0,0.0,0.0,0.0,0.0,0.0,0.0,0.0,0.0,0.0,0.0,0.0,0.0,0.0,0.0,0.0,0.0,0.0,0.0,0.0,0.0,0.0,0.0,0.0,0.0,0.0,0.0,0.0,0.0,0.0,0.0,0.0,0.0,0.0,-0.0246,-0.1601,0.0,-0.4318,-0.5627,-0.6983,-0.7988,-0.7988,-0.7988,-0.7988,-0.7988,-0.7988,-0.7988,-0.7988,-0.7988,0.0,0.0,0.0,0.0,0.0,0.0,0.0,-0.7939,-0.7988,-0.7988,0.0,-0.7988,0.0,-0.7988,-0.7988,-0.7988,0.0,-0.7988,-0.7988,-0.7988,-0.7988,-0.7988,-0.7988,-0.7988,-0.7988,-0.7988,-0.7988,-0.7988,-0.7988,-0.7988,-0.7988,-0.7988,-0.7988,-0.7988,-0.7988,-0.7988,-0.7988,-0.7988,-0.7988,-0.7988,-0.7988,-0.7988,-0.7988,-0.7988,-0.7988,-0.7988,-0.7988,0.0,0.0,0.0,0.0,0.0,0.0,0.0,0.0,0.0,0.0,0.0,0.0,0.0,0.0,0.0,0.0,0.0,0.0,0.0,0.0,0.0,0.0,0.0,0.0,0.0,0.0,0.0,0.0,0.0,0.0,0.0,0.0,0.0,0.0,0.0,0.0,0.0,0.0,0.0,0.0,0.0,0.0,0.0,0.0,0.0,0.0,0.0,0.0,0.0,0.0,0.0,0.0,0.0,0.0,-0.0252,-0.161,-0.2815,-0.4067,-0.5575,-0.6833,-0.7786,-0.7939,-0.7889,-0.7739,-0.7739,-0.7584,-0.7534,-0.7686,0.0,-0.7789,-0.7988,-0.6883,-0.6431,-0.7786,0.0,-0.6481,-0.7789,-0.7988,-0.7988,-0.7988,-0.7988,-0.7988,-0.7988,-0.7988,-0.7988,-0.7988,-0.7988,-0.7988,-0.7988,-0.7988,-0.7988,-0.7988,-0.7988,-0.7988,-0.7988,-0.7988,-0.7988,-0.7988,-0.7988,-0.7988,-0.7988,-0.7988,-0.7988,-0.7988,-0.7988,-0.7988,-0.7988,-0.7988,-0.7988,-0.7988,-0.7988,-0.7988,-0.7988,-0.7988,-0.7988,-0.7988,0.0,0.0,0.0,0.0,0.0,0.0,0.0,0.0,0.0,0.0,-0.0118,0.0,0.0,0.0,0.0,0.0,0.0,0.0,0.0,0.0,0.0,0.0,0.0,0.0,0.0,0.0,0.0,0.0,0.0,0.0,0.0,0.0,0.0,0.0,0.0,0.0,0.0,0.0,0.0,0.0,0.0,0.0,0.0,0.0,0.0,0.0,0.0,0.0,0.0,0.0,0.0,0.0,0.0,0.0,-0.0247,-0.1604,-0.2163,-0.2865,-0.5325,-0.6179,-0.6631,-0.7736,-0.7182,-0.6331,-0.6331,-0.5472,0.0,0.0,-0.6331,-0.6681,-0.7789,-0.6883,0.0,-0.7786,0.0,0.0,0.0,0.0,-0.7988,0.0,0.0,0.0,0.0,0.0,0.0,0.0,0.0,-0.7988,-0.7988,-0.7988,-0.7988,-0.7988,-0.7988,-0.7988,-0.7988,-0.7988,-0.7988,-0.7988,-0.7988,-0.7988,-0.7988,-0.7988,-0.7988,-0.7988,-0.7988,0.0,-0.7988,-0.7988,-0.7988,-0.7988,-0.7988,-0.7988,-0.7988,-0.7988,-0.7988,-0.7988,0.0,0.0,0.0,0.0,0.0,0.0,0.0,-0.18,-0.0628,-0.0079,0.0,0.0,0.0,0.0,0.0,0.0,0.0,0.0,0.0,0.0,0.0,0.0,0.0,0.0,0.0,0.0,0.0,0.0,0.0,0.0,0.0,0.0,0.0,0.0,0.0,0.0,0.0,0.0,0.0,0.0,0.0,0.0,0.0,0.0,0.0,0.0,0.0,0.0,0.0,0.0,0.0,0.0,0.0,0.0,-0.015,-0.0754,-0.146,-0.2264,-0.3568,-0.4422,-0.5122,-0.5772,-0.542,-0.497,-0.497,0.0,0.0,0.0,-0.497,-0.517,-0.5822,0.0,0.0,0.0,0.0,0.0,0.0,0.0,0.0,0.0,0.0,0.0,0.0,0.0,0.0,0.0,0.0,-0.7988,-0.7988,-0.7988,-0.7988,-0.7988,-0.7988,-0.7988,-0.7988,-0.7988,-0.7988,-0.7988,-0.7988,-0.7988,-0.7988,-0.7988,-0.7988,-0.7988,-0.7988,-0.7988,-0.7988,-0.7988,-0.7988,-0.7988,-0.7988,-0.7988,-0.7988,-0.7988,-0.7988,-0.7988,0.0,0.0,0.0,0.0,0.0,0.0,0.0,-0.2034,-0.0941,-0.0118,0.0,0.0,0.0,0.0,0.0,0.0,0.0,0.0,0.0,0.0,0.0,0.0,0.0,0.0,0.0,0.0,0.0,0.0,0.0,0.0,0.0,0.0,0.0,0.0,0.0,0.0,0.0,0.0,0.0,0.0,0.0,0.0,0.0,0.0,0.0,0.0,0.0,0.0,0.0,0.0,0.0,0.0,0.0,0.0,0.0,0.0,-0.0756,-0.1611,-0.1913,-0.2764,-0.3615,-0.3915,-0.3765,-0.3565,-0.3565,-0.3366,0.0,0.0,-0.3565,-0.3665,-0.3966,0.0,0.0,0.0,0.0,0.0,0.0,0.0,0.0,0.0,0.0,0.0,0.0,0.0,0.0,0.0,0.0,-0.7686,-0.7988,-0.7988,-0.7889,-0.7587,-0.7839,-0.7839,-0.7587,-0.7587,-0.7736,-0.7988,-0.7431,-0.7282,-0.7587,-0.7282,-0.7129,-0.7129,-0.7129,-0.7285,-0.7587,-0.7587,-0.7587,-0.7587,-0.7889,-0.7637,-0.7232,-0.7789,-0.7637,-0.7182,0.0,0.0,0.0,0.0,0.0,0.0,0.0,-0.1409,-0.0118,0.0,0.0,0.0,0.0,0.0,0.0,0.0,0.0,0.0,0.0,0.0,0.0,0.0,0.0,0.0,0.0,0.0,0.0,0.1657,0.0539,0.0,0.0,0.0,0.0,0.0,0.0,0.0,0.0,0.0,0.0,0.0,0.0,0.0,0.0,0.0,0.0,0.0,0.0,0.0,0.0,0.0,0.0,0.0,0.0,0.0,0.0,0.0,0.0,0.0,-0.1661,-0.2113,-0.2464,-0.3715,-0.3065,-0.2163,-0.2163,0.0,0.0,-0.1913,-0.2163,-0.2564,-0.3765,-0.3015,-0.2966,0.0,0.0,-0.3516,0.0,0.0,0.0,0.0,0.0,0.0,0.0,0.0,0.0,0.0,0.0,-0.6731,-0.7939,-0.7988,-0.7437,-0.6229,-0.7385,-0.7434,-0.6179,-0.6179,-0.6783,-0.7988,-0.552,-0.502,-0.6129,-0.492,-0.4366,-0.4366,-0.4366,-0.507,0.0,-0.6179,-0.6179,-0.6282,-0.7537,-0.6526,-0.4668,-0.708,-0.6476,-0.4518,0.0,0.0,0.0,0.0,0.0,0.0,-0.3085,-0.1331,0.0,0.0,0.0,0.0,0.0,0.0,0.0,0.0,0.0,0.0,0.0,0.0,0.0,0.0,0.0,0.0,0.0,0.0,0.1299,0.179,0.0583,0.0,0.0,0.0,0.0,0.0,0.0,0.0,0.0,0.0,0.0,0.0,0.0,0.0,0.0,0.0,0.0,0.0,0.0,0.0,0.0,0.0,0.0,0.0,0.0,0.0,0.0,0.0,0.0,-0.0101,-0.0656,-0.0807,-0.0907,-0.146,-0.1209,-0.0807,-0.0807,0.0,-0.0151,-0.0706,-0.0807,-0.0958,-0.1511,-0.1812,-0.2063,-0.2365,0.0,0.0,0.0,0.0,0.0,0.0,0.0,0.0,0.0,0.0,0.0,0.0,0.0,-0.502,-0.557,-0.557,-0.537,-0.482,-0.532,-0.532,-0.482,-0.482,-0.507,-0.557,-0.4516,-0.4268,-0.477,-0.4268,-0.4016,-0.4016,-0.4016,-0.4316,0.0,-0.482,-0.482,-0.487,-0.537,-0.4918,-0.4116,-0.522,-0.4918,-0.4066,0.0,0.0,0.0,0.0,0.0,-0.3085,-0.3085,-0.1331,0.0,0.0,0.0,0.0,0.0,0.0,0.0,0.0,0.0,0.0,0.0,0.0,0.0,0.0,0.0,0.0,0.0,0.0,0.2504,0.2861,0.1657,0.0897,0.0,0.0,0.0,0.0,0.0,0.0,0.0,0.0,0.0,0.0,0.0,0.0,0.0,0.0,0.0,0.0,0.0,0.0,0.0,0.0,0.0,0.0,0.0,0.0,0.0,0.0,0.0,0.0,0.0,0.0,0.0,0.0,0.0,0.0,0.0,0.0,0.0,0.0,0.0,0.0,0.0,-0.0756,-0.1209,-0.0656,0.0,-0.2916,0.0,0.0,0.0,0.0,0.0,0.0,0.0,0.0,0.0,0.0,0.0,-0.3416,-0.3416,-0.3015,-0.3015,-0.3416,-0.3815,-0.3815,-0.3416,-0.3416,-0.3615,-0.3966,-0.3215,-0.3015,-0.3416,-0.3015,-0.2815,-0.2815,-0.2815,-0.3065,0.0,-0.3416,-0.3416,-0.3466,-0.3865,-0.3516,-0.2914,-0.3715,-0.3515,-0.2864,0.0,0.0,0.0,0.0,0.0,0.0,-0.3085,-0.1331,0.0,0.0,0.0,0.0,0.0,0.0,0.0,0.0,0.0,0.0,0.0,0.0,0.0,0.0,0.0,0.0,0.0,0.0,0.415,0.5359,0.415,0.2948,0.179,0.179,0.1165,0.0,0.0,0.0,0.0,0.0,0.0,0.0,0.0,0.0,0.0,0.0,0.0,0.0,0.0,0.0,0.0,0.0,0.0,0.0,0.0,0.0,0.0,0.0,0.0,0.0,0.0,0.0,0.0,0.0,0.0,0.0,0.0,0.0,0.0,0.0,0.0,0.0,0.0,0.0,-0.0454,-0.1762,-0.0907,0.0,0.0,0.0,0.0,0.0,0.0,0.0,0.0,0.0,0.0,0.0,0.0,0.0,-0.2013,-0.0756,-0.0656,-0.1962,-0.3316,-0.3364,-0.2013,-0.2013,-0.2665,-0.3966,-0.131,-0.0756,-0.1962,-0.0656,-0.0051,-0.0051,-0.0051,-0.0807,0.0,-0.2013,-0.2013,-0.2163,-0.3465,-0.2363,-0.0353,-0.3015,-0.2314,-0.0252,0.0,0.0,0.0,0.0,0.0,0.0,0.0,-0.1331,0.0,0.0,0.0,0.0,0.0,0.0,0.0,0.0,0.0,0.0,0.0,0.0,0.0,0.0,0.0,0.0,0.0,0.0,0.4881,0.5403,0.4194,0.3392,0.2992,0.2191,0.1612,0.121,0.0359,0.0,0.0,0.0,0.0,0.0,0.0,0.0,0.0,0.0,0.0,0.0,0.0,0.0,0.0,0.0,0.0,0.0,0.0,0.0,0.0,0.0,0.0,0.0,0.0,0.0,0.0,0.0,0.0,0.0,0.0,0.0,0.0,0.0,0.0,0.0,0.0,0.0,-0.0151,-0.0555,-0.1058,0.0,0.0,0.0,0.0,0.0,0.0,0.0,0.0,0.0,0.0,0.0,0.0,-0.0656,-0.0656,-0.0252,-0.0202,-0.0605,-0.1058,-0.1058,-0.0656,-0.0656,-0.0857,-0.126,-0.0404,-0.0202,-0.0605,-0.0202,0.0,0.0,0.0,-0.0252,-0.0656,-0.0656,-0.0656,-0.0656,-0.1109,-0.0756,-0.0101,-0.0958,-0.0706,-0.005,0.0,0.0,0.0,0.0,0.0,0.0,0.0,-0.1331,0.0,0.0,0.0,0.0,0.0,0.0,0.0,0.0,0.0,0.0,0.0,0.0,0.0,0.0,0.0,0.0,0.5018,0.5531,0.5835,0.5958,0.5245,0.4683,0.4283,0.3528,0.2904,0.2413,0.121,0.0673,0.0,0.0,0.0,0.0,0.0,0.0,0.0,0.0,0.0,0.0,0.0,0.0,0.0,0.0,0.0,0.0,0.0,0.0,0.0,0.0,0.0,0.0,0.0,0.0,0.0,0.0,0.0,0.0,0.0,0.0,0.0,0.0,0.0,0.0,0.0,0.0,0.0,0.0,-0.0706,0.0,0.0,0.0,0.0,0.0,0.0,0.0,0.0,0.0,0.0,0.0,-0.0454,0.0,0.0,0.0,0.0,0.0,0.0,0.0,0.0,0.0,0.0,0.0,0.0,0.0,0.0,0.0,0.0,0.0,0.0,0.0,0.0,0.0,0.0,0.0,0.0,0.0,0.0,0.0,0.0,0.0,0.0,0.0,0.0,0.0,0.0,0.0,0.0,-0.1331,0.0,0.0,0.0,0.0,0.0,0.0,0.0,0.0,0.0,0.0,0.0,0.0,0.0,0.0,0.0,0.0,0.502,0.6244,0.6866,0.6886,0.7018,0.6552,0.5536,0.5447,0.4821,0.3659,0.2458,0.1924,0.1835,0.0628,0.0135,0.0135,0.0045,0.0,0.0,0.0,0.0,0.0,0.0,0.0,0.0,0.0,0.0,0.0,0.0,0.0,0.0,0.0,0.0,0.0,0.0,0.0,0.0,0.0,0.0,0.0,0.0,0.0,0.0,0.0,0.0,0.0,0.0,0.0,0.0,0.0,0.0,0.0,0.0,0.0,0.0,0.0,0.0,0.0,0.0,0.0,0.0,-0.0101,0.0,0.0,0.0,0.0,0.0,0.0,0.0,0.0,0.0,0.0,0.0,0.0,0.0,0.0,0.0,0.0,0.0,0.0,0.0,0.0,0.0,0.0,0.0,0.0,0.0,0.0,0.0,0.0,0.0,0.0,0.0,0.0,0.0,0.0,0.0,0.0,0.0,0.0,0.0,0.0,0.0,0.0,0.0,0.0,0.0,0.0,0.0,0.0,0.0,0.0,0.0,0.0,0.0,0.0,0.6104,0.6421,0.6695,0.6886,0.692,0.6857,0.6694,0.5802,0.527,0.4912,0.3705,0.317,0.3081,0.1879,0.1389,0.1299,0.0359,0.0,0.0,0.0,0.0,0.0,0.0,0.0,0.0,0.0,0.0,0.0,0.0,0.0,0.0,0.0,0.0,0.0,0.0,0.0,0.0,0.0,0.0,0.0,0.0,0.0,0.0,0.0,0.0,0.0,0.0,0.0,0.0,0.0,0.0,0.0,0.0,0.0,0.0,0.0,0.0,0.0,0.0,0.0,0.0,0.0,0.0,0.0,0.0,0.0,0.0,0.0,0.0,0.0,0.0,0.0,0.0,0.0,0.0,0.0,0.0,0.0,0.0,0.0,0.0,0.0,0.0,0.0,0.0,0.0,0.0,0.0,0.0,0.0,0.0,0.0,0.0,0.0,0.0,0.0,0.0,0.0,0.0,0.0,0.0,0.0,0.0,0.0,0.0,0.0,0.0,0.0,0.0,0.0,0.0,0.0,0.0,0.0,0.0,0.574,0.6412,0.6477,0.6586,0.6824,0.6852,0.6957,0.7095,0.647,0.616,0.6115,0.4954,0.4105,0.3525,0.2324,0.179,0.1701,0.0494,0.0,0.0,0.0,0.0,0.0,0.0,0.0,0.0,0.0,0.0,0.0,0.0,0.0,0.0,0.0,0.0,0.0,0.0,0.0,0.0,0.0,0.0,0.0,0.0,0.0,0.0,0.0,0.0,0.0,0.0,0.0,0.0,0.0,0.0,0.0,0.0,0.0,0.0,0.0,0.0,0.0,0.0,0.0,0.0,0.0,0.0,0.0,0.0,0.0,0.0,0.0,0.0,0.0,0.0,0.0,0.0,0.0,0.0,0.0,0.0,0.0,0.0,0.0,0.0,0.0,0.0,0.0,0.0,0.0,0.0,0.0,0.0,0.0,0.0,0.0,0.0,0.0,0.0,0.0,0.0,0.0,0.0,0.0,0.0,0.0,0.0,0.0,0.0,0.0,0.0,0.0,0.0,0.0,0.0,0.0,0.0,0.0,0.5825,0.63,0.63,0.6419,0.6555,0.6664,0.6817,0.6923,0.7065,0.7085,0.7095,0.7051,0.6071,0.5087,0.4059,0.286,0.2236,0.1969,0.0763,0.0,0.0,0.0,0.0,0.0,0.0,0.0,0.0,0.0,0.0,0.0,0.0,0.0,0.0,0.0,0.0,0.0,0.0,0.0,0.0,0.0,0.0,0.0,0.0,0.0,0.0,0.0,0.0,0.0,0.0,0.0,0.0,0.0,0.0,0.0,0.0,0.0,0.0,0.0,0.0,0.0,0.0,0.0,0.0,0.0,0.0,0.0,0.0,0.0,0.0,0.0,0.0,0.0,0.0,0.0,0.0,0.0,0.0,0.0,0.0,0.0,0.0,0.0,0.0,0.0,0.0,0.0,0.0,0.0,0.0,0.0,0.0,0.0,0.0,0.0,0.0,0.0,0.0,0.0,0.0,0.0,0.0,0.0,0.0,0.0,0.0,0.0,0.0,0.0,0.0,0.0,0.0,0.0,0.0,0.0,0.0,0.6022,0.6222,0.63,0.63,0.632,0.6402,0.6549,0.6661,0.6814,0.692,0.7041,0.7095,0.7095,0.6918,0.6738,0.647,0.5356,0.4241,0.3213,0.2013,0.0,0.0,0.0,0.0,0.0,0.0,0.0,0.0,0.0,0.0,0.0,0.0,0.0,0.0,0.0,0.0,0.0,0.0,0.0,0.0,0.0,0.0,0.0,0.0,0.0,0.0,0.0,0.0,0.0,0.0,0.0,0.0,0.0,0.0,0.0,0.0,0.0,0.0,0.0,0.0,0.0,0.0,0.0,0.0,0.0,0.0,0.0,0.0,0.0,0.0,0.0,0.0,0.0,0.0,0.0,0.0,0.0,0.0,0.0,0.0,0.0,0.0,0.0,0.0,0.0,0.0,0.0,0.0,0.0,0.0,0.0,0.0,0.0,0.0,0.0,0.0,0.0,0.0,0.0,0.0,0.0,0.0,0.0,0.0,0.0,0.0,0.0,0.0,0.0,0.0,0.0,0.0,0.0,0.0,0.0,0.4924,0.5434,0.5983,0.63,0.63,0.63,0.6368,0.6511,0.6624,0.678,0.6889,0.7031,0.7095,0.7095,0.7095,0.7095,0.7007,0.5891,0.4688,0.357,0.0,0.0,0.0,0.0,0.0,0.0,0.0,0.0,0.0,0.0,0.0,0.0,0.0,0.0,0.0,0.0,0.0,0.0,0.0,0.0,0.0,0.0,0.0,0.0,0.0,0.0,0.0,0.0,0.0,0.0,0.0,0.0,0.0,0.0,0.0,0.0,0.0,0.0,0.0,0.0,0.0,0.0,0.0,0.0,0.0,0.0,0.0,0.0,0.0,0.0,0.0,0.0,0.0,0.0,0.0,0.0,0.0,0.0,0.0,0.0,0.0,0.0,0.0,0.0,0.0,0.0,0.0,0.0,0.0,0.0,0.0,0.0,0.0,0.0,0.0,0.0,0.0,0.0,0.0,0.0,0.0,0.0,0.0,0.0,0.0,0.0,0.0,0.0,0.0,0.0,0.0,0.0,0.0,0.0,0.0,0.0,0.5079,0.5079,0.5867,0.63,0.63,0.63,0.6368,0.6511,0.6624,0.6797,0.6937,0.7045,0.7095,0.7095,0.7095,0.7095,0.7051,0.616,0.5132,0.4016,0.0,0.0,0.0,0.0,0.0,0.0,0.0,0.0,0.0,0.0,0.0,0.0,0.0,0.0,0.0,0.0555,0.0454,0.0404,0.0101,0.0,0.0,0.0,0.0,0.0,0.0,0.0,0.0,0.0,0.0,0.0,0.0,0.0,0.0,0.0,0.0,0.0,0.0,0.0,-0.1511,-0.1511,-0.0605,0.0,0.0,0.0,0.0,0.0,0.0,0.0,0.0,0.0,0.0,0.0,0.0,0.0,0.0,0.0,0.0,0.0,0.0,0.0,0.0,0.0,0.0,0.0,0.0,0.0,0.0,0.0,0.0,0.0,0.0,0.0,0.0,0.0,0.0,0.0,0.0,0.0,0.0,0.0,0.0,0.0,0.0,0.0,0.0,0.0,0.0,0.0,0.0,0.0,0.0,0.0,0.0,0.0,0.0,0.0,0.618,0.618,0.6261,0.63,0.63,0.63,0.6368,0.6511,0.6624,0.6848,0.7082,0.7092,0.7095,0.7095,0.7095,0.7095,0.7095,0.7007,0.6337,0.527,0.527,0.0,0.0,0.0,0.0,0.0,0.0,0.0,0.0,0.0,0.0,0.0,0.0,0.0,0.3465,0.2213,0.1862,0.1561,0.0353,0.0,0.0,0.0,0.0,0.0,0.0,0.0,0.0,0.0,0.0,0.0,0.0,0.0,0.0,0.0,0.0,0.0,0.0,0.0,-0.0151,-0.0151,-0.005,0.0,0.0,0.0,0.0,0.0,0.0,0.0,0.0,0.0,0.0,0.0,0.0,0.0,0.0,0.0,0.0,0.0,0.0,0.0,0.0,0.0,0.0,0.0,0.0,0.0,0.0,0.0,0.0,0.0,0.0,0.0,0.0,0.0,0.0,0.0,0.0,0.0,0.0,0.0,0.0,0.0,0.0,0.0,0.0,0.0,0.0,0.0,0.0,0.0,0.0,0.0,0.0,0.0,0.0,0.4491,0.5589,0.6261,0.63,0.63,0.63,0.63,0.6368,0.6511,0.6722,0.6903,0.7095,0.7095,0.7095,0.7095,0.7095,0.7095,0.7095,0.7095,0.6428,0.5447,0.616,0.5758,0.0,0.0,0.0,0.0,0.0,0.0,0.0,0.0,0.4016,0.4016,0.4016,0.4016,0.3915,0.3416,0.2665,0.1913,0.136,0.0656,0.0,0.0,0.0,0.0,0.0,0.0,0.0,0.0,0.0,0.0,0.0,0.0,0.0,0.0,0.0,0.0,0.0,0.0,0.0,0.0,0.0,0.0,0.0,0.0,0.0,0.0,0.0,0.0,0.0,0.0,0.0,0.0,0.0,0.0,0.0,0.0,0.0,0.0,0.0,0.0,0.0,0.0,0.0,0.0,0.0,0.0,0.0,0.0,0.0,0.0,0.0,0.0,0.0,0.0,0.0,0.0,0.0,0.0,0.0,0.0,0.0,0.0,0.0,0.0,0.0,0.0,0.0,0.0,0.0,0.0,0.0,0.0,0.0,0.0,0.3554,0.4608,0.555,0.6261,0.63,0.63,0.63,0.63,0.6392,0.6546,0.6848,0.7001,0.7095,0.7095,0.7095,0.7095,0.7095,0.7095,0.7095,0.7095,0.665,0.6027,0.6786,0.6678,0.0,0.0,0.0,0.0,0.0,0.0,0.0,0.0,0.527,0.527,0.527,0.527,0.5168,0.477,0.3667,0.2514,0.2113,0.1008,0.0,0.0,0.0,0.0,0.0,0.0,0.0,0.0,0.0,0.0,0.0,0.0,0.0,0.0,0.0,0.0,0.0,0.0,0.0,0.0,0.0,0.0,0.0,0.0,0.0,0.0,0.0,0.0,0.0,0.0,0.0,0.0,0.0,0.0,0.0,0.0,0.0,0.0,0.0,0.0,0.0,0.0,0.0,0.0,0.0,0.0,0.0,0.0,0.0,0.0,0.0,0.0252,0.0656,0.0656,0.0854,0.1199,0.0,0.0,0.0,0.0,0.0,0.0,0.0,0.0,0.0,0.0,0.0,0.0,0.0,0.0,0.0,0.0,0.0,0.0,0.4647,0.5709,0.63,0.63,0.63,0.63,0.63,0.6303,0.645,0.6702,0.6953,0.7095,0.7095,0.7095,0.7095,0.7095,0.7095,0.7095,0.7095,0.7095,0.7095,0.7095,0.7095,0.7234,0.7436,0.0,0.0,0.0,0.0,0.0,0.0,0.0,0.7988,0.7988,0.7988,0.7988,0.7739,0.6431,0.5072,0.3715,0.2363,0.1008,0.0,0.0,0.0,0.0,0.0,0.0,0.0,0.0,0.0,0.0,0.0,0.0,0.0,0.0,0.0,0.0,0.0,0.0,0.0,0.0,0.0,0.0,0.0,0.0,0.0,0.0,0.0,0.0,0.0,0.0,0.0,0.0,0.0,0.0,0.0,0.0,0.0,0.0,0.0,0.0,0.0,0.0,0.0,0.0,0.0,0.0,0.0,0.0,0.0,0.0,0.0051,0.0857,0.2012,0.2012,0.2782,0.3811,0.0,0.0,0.0,0.0,0.0,0.0,0.0,0.0,0.0,0.0,0.0,0.0,0.0,0.0,0.0,0.0,0.0,0.0,0.4569,0.5002,0.5512,0.6261,0.63,0.63,0.63,0.6504,0.6614,0.6702,0.6953,0.7095,0.7095,0.7095,0.7095,0.7095,0.7095,0.7095,0.7095,0.7095,0.7095,0.7095,0.7095,0.7234,0.7436,0.0,0.0,0.0,0.0,0.0,0.0,0.0,0.0,0.0,0.7988,0.7988,0.7939,0.7537,0.5772,0.3915,0.3516,0.0,0.0,0.0,0.0,0.0,0.0,0.0,0.0,0.0,0.0,0.0,0.0,0.0,0.0,0.0,0.0,0.0,0.0,0.0,0.0,0.0,0.0,0.0,0.0,0.0,0.0,0.0,0.0,0.0,0.0,0.0,0.0,0.0,0.0,0.0,0.0,0.0,0.0,0.0,0.0,0.0,0.0,0.0,0.0,0.0,0.0,0.0,0.005,0.1008,0.141,0.1511,0.2465,0.2992,0.3254,0.3254,0.3458,0.3639,0.0,0.0,0.0,0.0,0.0,0.0,0.0,0.0,0.0,0.0,0.0,0.0,0.0,0.0,0.0,0.0,0.0,0.0,0.0,0.5354,0.5628,0.6261,0.63,0.6327,0.6381,0.658,0.6729,0.6793,0.6984,0.7095,0.7095,0.7095,0.7095,0.7095,0.7095,0.7095,0.7095,0.7095,0.7095,0.7095,0.7095,0.7268,0.7472,0.0,0.0,0.0,0.0,0.0,0.0,0.0,0.0,0.0,0.7988,0.7988,0.7889,0.7385,0.5672,0.3865,0.3364,0.0,0.0,0.0,0.0,0.0,0.0,0.0,0.0,0.0,0.0,0.0,0.0,0.0,0.0,0.0,0.0,0.0,0.0,0.0,0.0,0.0,0.0,0.0,0.0,0.0,0.0,0.0,0.0,0.0,0.0,0.0,0.0,0.0,0.0,0.0,0.0,0.0,0.0,0.0,0.0,0.0,0.0,0.0,0.0,0.0049,0.0493,0.0986,0.1477,0.2312,0.2655,0.2704,0.3537,0.4096,0.4538,0.4538,0.4769,0.5109,0.0,0.0,0.0,0.0,0.0,0.0,0.0,0.0,0.0,0.0,0.0,0.0,0.0,0.0,0.0,0.0,0.0,0.0,0.0,0.0,0.63,0.63,0.6313,0.6385,0.6528,0.6644,0.6797,0.6906,0.7034,0.7095,0.7095,0.7095,0.7095,0.7095,0.7095,0.7095,0.7095,0.7095,0.7095,0.7098,0.7112,0.7339,0.76,0.7614,0.0,0.0,0.0,0.0,0.0,0.0,0.0,0.0,0.7988,0.7988,0.7736,0.6531,0.5222,0.3867,0.2564,0.0,0.0,0.0,0.0,0.0,0.0,0.0,0.0,0.0,0.0,0.0,0.0,0.0,0.0,0.0,0.0,0.0,0.0,0.0,0.0,0.0,0.0,0.0,0.0,0.0,0.0,0.0,0.0,0.0,0.0,0.0,0.0,0.0,0.0,0.0,0.0,0.0,0.0,0.0,0.0095,0.0143,0.0143,0.0146,0.0242,0.0381,0.1475,0.2566,0.3607,0.3749,0.3794,0.3796,0.3938,0.4688,0.5766,0.5766,0.6444,0.7395,0.0,0.0,0.0,0.0,0.0,0.0,0.0,0.0,0.0,0.0,0.0,0.0,0.0,0.0,0.0,0.0,0.0,0.0,0.0,0.0,0.63,0.63,0.6405,0.6538,0.6647,0.68,0.6906,0.7051,0.7082,0.7095,0.7095,0.7095,0.7095,0.7095,0.7095,0.7095,0.7095,0.7095,0.7095,0.7105,0.7272,0.7431,0.7611,0.7723,0.7879,0.0,0.0,0.0,0.0,0.0,0.0,0.0,0.7988,0.7988,0.7939,0.7637,0.6631,0.5275,0.0,0.2614,0.0,0.0,0.0,0.0,0.0,0.0,0.0,0.0,0.0,0.0,0.0,0.0,0.0,0.0,0.0,0.0,0.0,0.0,0.0,0.0,0.0,0.0,0.0,0.0,0.0,0.0,0.0,0.0,0.0,0.0,0.0,0.0,0.0,0.0,0.0,0.0,0.0,0.0,0.0952,0.1416,0.1396,0.1424,0.191,0.2849,0.3086,0.337,0.3701,0.4742,0.5166,0.5261,0.6311,0.6864,0.6998,0.6998,0.7089,0.7146,0.0,0.0,0.0,0.0,0.0,0.0,0.0,0.0,0.0,0.0,0.0,0.0,0.0,0.0,0.0,0.0,0.0,0.0,0.0,0.0,0.633,0.6399,0.6474,0.6576,0.6803,0.6846,0.6953,0.7095,0.7095,0.7095,0.7095,0.7095,0.7095,0.7095,0.7095,0.7095,0.7095,0.7095,0.7095,0.7102,0.7227,0.7397,0.7607,0.7682,0.7848,0.7988,0.7988,0.0,0.0,0.0,0.0,0.0,0.0,0.0,0.7889,0.7235,0.6531,0.5727,0.0,0.0,0.0,0.0,0.0,0.0,0.0,0.0,0.0,0.0,0.0,0.0,0.0,0.0,0.0,0.0,0.0,0.0,0.0,0.0,0.0,0.0,0.0,0.0,0.0,0.0,0.0,0.0,0.0,0.0,0.0,0.0,0.0,0.0,0.0,0.0,0.0,0.0,0.0278,0.0879,0.148,0.239,0.3498,0.294,0.3321,0.4472,0.4472,0.4793,0.5344,0.6033,0.631,0.6402,0.7099,0.7333,0.7261,0.7261,0.721,0.7095,0.0,0.0,0.0,0.0,0.0,0.0,0.0,0.0,0.0,0.0,0.0,0.0,0.0,0.0,0.0,0.0,0.0,0.0,0.0,0.0,0.0,0.6504,0.6538,0.6644,0.6879,0.691,0.6977,0.7095,0.7095,0.7095,0.7095,0.7095,0.7095,0.7095,0.7095,0.7095,0.7095,0.7095,0.7095,0.7098,0.7125,0.735,0.7604,0.7628,0.7804,0.7988,0.7988,0.7988,0.7988,0.7988,0.0,0.0,0.0,0.0,0.7786,0.6681,0.6331,0.6077,0.0,0.0,0.0,0.0,0.0,0.0,0.0,0.0,0.0,0.0,0.0,0.0,0.0,0.0,0.0,0.0,0.0,0.0,0.0,0.0,0.0,0.0,0.0,0.0,0.0,0.0,0.0,0.0,0.0,0.0,0.0,0.0,0.0,0.0,0.0,0.009,0.0314,0.0314,0.0897,0.2102,0.2325,0.3573,0.5669,0.4639,0.473,0.5672,0.5672,0.6248,0.7095,0.7095,0.7095,0.7095,0.7095,0.7095,0.7095,0.7095,0.7095,0.7095,0.0,0.0,0.0,0.0,0.0,0.0,0.0,0.0,0.0,0.0,0.0,0.0,0.0,0.0,0.0,0.0,0.0,0.0,0.63,0.0,0.0,0.6504,0.66,0.6753,0.6883,0.7004,0.7078,0.7095,0.7095,0.7095,0.0,0.0,0.7095,0.7095,0.7095,0.7095,0.7095,0.7095,0.7095,0.7109,0.7285,0.7444,0.7614,0.7736,0.7889,0.7988,0.7988,0.7988,0.7988,0.7988,0.7988,0.0,0.0,0.0,0.7988,0.7789,0.7739,0.7434,0.0,0.0,0.0,0.0,0.0,0.0,0.0,0.0,0.0,0.0,0.0,0.0,0.0,0.0,0.0,0.0,0.0,0.0,0.0,0.0,0.0,0.0,0.0,0.0,0.0,0.0,0.0,0.0,0.0,0.0,0.0,0.0,0.0,0.0,0.0,0.0494,0.1567,0.1567,0.2147,0.3393,0.4421,0.5625,0.6874,0.6694,0.6738,0.6874,0.6874,0.6962,0.7095,0.7095,0.7095,0.7095,0.7095,0.7095,0.7095,0.7095,0.7095,0.7095,0.0,0.0,0.0,0.0,0.0,0.0,0.0,0.0,0.0,0.0,0.0,0.0,0.0,0.0,0.0,0.6261,0.63,0.63,0.63,0.6375,0.6484,0.6593,0.6746,0.6856,0.7001,0.7065,0.7095,0.7095,0.7095,0.0,0.0,0.7095,0.7095,0.0,0.0,0.7095,0.7095,0.7095,0.7095,0.7102,0.7214,0.7333,0.7489,0.7638,0.7784,0.7874,0.7958,0.7988,0.7988,0.7988,0.7988,0.7988,0.7988,0.0,0.0,0.0,0.0,0.0,0.0,0.0,0.0,0.0,0.0,0.0,0.0,0.0,0.0,0.0,0.0,0.0,0.0,0.0,0.0,0.0,0.0,0.0,0.0,0.0,0.0,0.0,0.0,0.0,0.0,0.0,0.0,0.0,0.0,0.0,0.0,0.0628,0.1031,0.1031,0.1657,0.2281,0.2814,0.2815,0.3393,0.4641,0.5802,0.6605,0.7095,0.7095,0.7095,0.7095,0.7095,0.7095,0.7095,0.7095,0.7095,0.7095,0.7095,0.7095,0.7095,0.7095,0.7095,0.7095,0.0,0.0,0.0,0.0,0.0,0.0,0.0,0.0,0.0,0.0,0.0,0.0,0.0,0.0,0.0,0.0,0.63,0.6317,0.6351,0.6453,0.6559,0.6749,0.6868,0.6953,0.7092,0.7095,0.7095,0.7095,0.0,0.0,0.7095,0.7095,0.7095,0.0,0.7095,0.7095,0.0,0.0,0.7095,0.7095,0.7095,0.7234,0.7429,0.7499,0.7631,0.7777,0.7877,0.7931,0.7938,0.0,0.7988,0.7988,0.7988,0.7988,0.0,0.0,0.0,0.0,0.0,0.0,0.0,0.0,0.0,0.0,0.0,0.0,0.0,0.0,0.0,0.0,0.0,0.068,0.0359,0.0045,0.0,0.0,0.0,0.0,0.0,0.0,0.0,0.0,0.0,0.0,0.0135,0.0449,0.0449,0.0583,0.0897,0.179,0.2236,0.2236,0.3126,0.3748,0.4061,0.4328,0.4952,0.5849,0.6694,0.7095,0.7095,0.7095,0.7095,0.7095,0.7095,0.7095,0.7095,0.7095,0.7095,0.7095,0.7095,0.7095,0.7095,0.7095,0.7095,0.7095,0.0,0.0,0.0,0.0,0.0,0.0,0.0,0.0,0.0,0.0,0.0,0.0,0.4688,0.567,0.63,0.63,0.63,0.6358,0.6494,0.6508,0.6607,0.6862,0.6883,0.0,0.7092,0.7095,0.7095,0.0,0.0,0.0,0.7095,0.7095,0.7095,0.7095,0.7095,0.7095,0.7095,0.0,0.0,0.0,0.0,0.0,0.7415,0.7426,0.7478,0.7631,0.7773,0.0,0.0,0.0,0.0,0.0,0.0,0.0,0.0,0.0,0.0,0.0,0.0,0.0,0.0,0.0,0.0,0.0,0.0,0.0,0.0,0.0,0.0,0.0,0.0,0.2459,0.1344,0.018,0.0,0.0,0.0,0.0,0.0,0.0,0.0,0.0,0.0,0.0,0.0494,0.1612,0.1701,0.2191,0.3349,0.3481,0.3525,0.3525,0.357,0.415,0.5314,0.6381,0.6959,0.7007,0.7051,0.7095,0.7095,0.7095,0.7095,0.7095,0.7095,0.7095,0.7095,0.7095,0.7095,0.7095,0.7095,0.7095,0.7095,0.7095,0.7095,0.7095,0.0,0.0,0.0,0.0,0.0,0.0,0.0,0.0,0.0,0.0,0.0,0.0,0.0,0.606,0.63,0.63,0.6381,0.6457,0.6508,0.6658,0.6814,0.6879,0.697,0.7045,0.7095,0.7841,0.8233,0.0,0.0,0.9353,0.9309,0.858,0.8233,0.8233,0.7445,0.7095,0.7095,0.7095,0.0,0.0,0.0,0.0,0.0,0.0,0.0,0.0,0.0,0.0,0.0,0.0,0.0,0.0,0.0,0.0,0.0,0.0,0.0,0.0,0.0,0.0,0.0,0.0,0.0,0.0,0.0,0.0,0.0,0.0,0.0,0.0,0.0,0.3749,0.2815,0.237,0.2324,0.2324,0.2324,0.2324,0.2324,0.2324,0.2324,0.2324,0.2324,0.2324,0.2503,0.2903,0.2948,0.3126,0.357,0.433,0.4776,0.4776,0.5487,0.6068,0.6473,0.6915,0.7095,0.7095,0.7095,0.7095,0.7095,0.7095,0.7095,0.7095,0.7095,0.7095,0.7095,0.7095,0.7095,0.7095,0.7095,0.7095,0.7095,0.7095,0.7095,0.7095,0.0,0.0,0.0,0.0,0.0,0.0,0.0,0.0,0.0,0.5237,0.0,0.0,0.0,0.0,0.632,0.6368,0.6457,0.6555,0.6617,0.6817,0.6906,0.6953,0.7439,0.7709,0.7709,0.8783,0.9386,0.0,0.0,0.0,0.0,0.9449,0.889,0.8846,0.7621,0.7095,0.0,0.0,0.0,0.7095,0.0,0.0,0.7105,0.0,0.0,0.0,0.0,0.0,0.0,0.0,0.0,0.0,0.0,0.0,0.0,0.0,0.0,0.0,0.0,0.0,0.0,0.0,0.0,0.0,0.0,0.0,0.0,0.0,0.0,0.0,0.0,0.0,0.4505,0.3748,0.3614,0.3614,0.3614,0.3614,0.3614,0.3614,0.3614,0.3614,0.3614,0.3614,0.3748,0.4194,0.4194,0.0,0.4772,0.5534,0.5983,0.5983,0.6694,0.7095,0.7095,0.7095,0.7095,0.7095,0.7095,0.7095,0.7095,0.7095,0.7095,0.7095,0.7095,0.7095,0.7095,0.7095,0.7095,0.7095,0.7095,0.7095,0.7095,0.7095,0.7095,0.7139,0.0,0.0,0.0,0.0,0.0,0.0,0.0,0.0,0.63,0.63,0.0,0.0,0.0,0.0,0.0,0.6501,0.6521,0.661,0.6866,0.6889,0.6997,0.7132,0.8277,0.8934,0.8934,0.9814,1.0398,1.0654,1.0441,1.0446,1.0697,0.0,0.8934,0.889,0.7665,0.7095,0.7095,0.0,0.7095,0.7095,0.0,0.7095,0.7095,0.0,0.0,0.0,0.7312,0.7412,0.0,0.7543,0.0,0.0,0.0,0.0,0.0,0.0,0.0,0.0,0.0,0.0,0.0,0.0,0.0,0.0,0.0,0.0,0.0,0.0,0.0,0.0,0.0,0.0,0.6334,0.4059,0.3703,0.3703,0.3703,0.3703,0.3703,0.3703,0.3703,0.3703,0.3703,0.3703,0.4194,0.5359,0.5447,0.5938,0.7051,0.7095,0.7095,0.7095,0.7095,0.7095,0.7095,0.7095,0.7095,0.7095,0.7095,0.7095,0.7095,0.7095,0.7095,0.7095,0.7095,0.7095,0.7095,0.7095,0.7095,0.7095,0.7095,0.7139,0.7139,0.7139,0.7183,0.736,0.0,0.0,0.0,0.0,0.0,0.0,0.6293,0.63,0.63,0.0,0.0,0.0,0.63,0.6392,0.647,0.6508,0.6675,0.6841,0.6879,0.698,0.7446,0.8364,0.8715,0.9279,1.0091,1.1187,1.1747,1.1809,1.2614,1.3056,1.3082,1.109,1.0139,0.0,0.8009,0.7095,0.7095,0.7095,0.0,0.7095,0.7095,0.7095,0.0,0.0,0.0,0.0,0.0,0.7275,0.7426,0.0,0.7509,0.76,0.0,0.0,0.0,0.0,0.0,0.0,0.9917,0.0,0.0,0.0,0.0,0.0,0.0,0.0,0.0,0.0,0.0,0.0,0.0,0.0,0.0,0.6245,0.611,0.611,0.611,0.611,0.611,0.611,0.611,0.611,0.611,0.611,0.629,0.0,0.665,0.6782,0.7095,0.7095,0.7095,0.7095,0.7095,0.7095,0.7095,0.7095,0.7095,0.7095,0.7095,0.7095,0.7095,0.7095,0.7095,0.7095,0.7095,0.7095,0.7095,0.7095,0.7095,0.7095,0.7095,0.7621,0.8408,0.8408,0.8925,0.9657,0.0,0.0,0.0,0.0,0.0,0.63,0.63,0.63,0.63,0.0,0.0,0.0,0.6381,0.6518,0.6593,0.6658,0.6824,0.691,0.697,0.7526,0.8145,0.8846,0.9792,1.0611,1.1295,1.2312,1.2915,1.3069,1.3613,1.3968,1.4046,1.2206,1.1295,1.1209,0.0,0.0,0.0,0.0,0.0,0.0,0.7095,0.0,0.0,0.7095,0.7095,0.0,0.0,0.0,0.7275,0.7275,0.7336,0.0,0.0,0.0,0.0,0.0,0.0,0.0,0.0,0.0,0.0,0.0,0.0,0.0,0.7969,0.7841,0.7709,0.0,0.7095,0.0,0.0,0.0,0.0,0.7095,0.7095,0.7095,0.7095,0.7095,0.7095,0.7095,0.7095,0.7095,0.7095,0.7095,0.7095,0.7095,0.7095,0.7095,0.7095,0.7095,0.7095,0.7095,0.7095,0.7095,0.7095,0.7095,0.7095,0.7095,0.7095,0.7095,0.7095,0.7095,0.7095,0.7095,0.7095,0.7404,0.7841,0.7841,0.7533,0.7139,0.7665,0.8277,0.8978,0.9449,1.0009,1.0654,0.0,0.0,0.0,0.6276,0.63,0.63,0.63,0.63,0.6338,0.0,0.6465,0.6531,0.6678,0.6716,0.678,0.6873,0.7028,0.7177,0.7305,0.8408,0.9148,0.9279,1.1209,1.237,1.2504,1.3262,1.378,1.4088,1.378,1.3828,1.4088,1.2851,1.2285,1.22,0.0,0.0,0.0,0.0,0.0,0.7316,0.7316,0.7228,0.0,0.0,0.7095,0.7095,0.7095,0.7095,0.7095,0.7095,0.7095,0.0,0.0,0.0,0.0,0.0,0.9966,0.0,0.0,0.0,0.0,0.0,0.0,0.0,0.9323,0.9104,0.8798,0.7705,0.7489,0.0,0.0,0.0,0.0,0.7139,0.7228,0.7272,0.7139,0.7095,0.7095,0.7095,0.7095,0.7095,0.7095,0.7095,0.7095,0.7095,0.7095,0.7095,0.7095,0.7095,0.7095,0.7095,0.7095,0.7095,0.7095,0.7095,0.7095,0.7095,0.7095,0.7095,0.7095,0.7095,0.7183,0.7316,0.7316,0.7969,0.9104,0.9104,0.8448,0.7577,0.8671,0.9148,0.9405,1.0438,1.0869,1.1128,0.0,0.0,0.0,0.6293,0.63,0.63,0.63,0.63,0.6606,0.7403,0.7598,0.7748,0.8004,0.7328,0.6852,0.6883,0.7895,0.8503,0.854,0.9623,1.0697,1.1595,1.2066,1.2766,1.373,1.3937,1.4028,1.4088,1.4028,1.4035,1.4088,1.2851,1.2285,1.2242,0.0,0.0,0.0,0.0,0.0,0.854,0.854,0.0,0.7095,0.7095,0.7095,0.7095,0.7095,0.7095,0.7095,0.7095,0.7095,0.7139,0.0,0.0,0.0,1.0178,0.0,0.0,0.0,0.0,0.0,0.0,0.0,0.0,1.0308,1.0269,1.0178,0.0,0.9918,0.0,0.0,0.0,0.0,0.0,0.7929,0.8189,0.7228,0.7095,0.7095,0.7095,0.7095,0.7095,0.7095,0.7095,0.7095,0.7095,0.7095,0.7095,0.7095,0.7095,0.7095,0.7095,0.7095,0.7095,0.7095,0.7095,0.7095,0.7095,0.7095,0.7095,0.7095,0.7095,0.7621,0.854,0.854,0.9192,1.0269,1.0269,1.0135,0.9961,1.0178,1.0826,1.1638,1.1895,1.2595,1.3434,0.0,0.0,0.0,0.6945,0.7061,0.7215,0.7706,0.7783,0.8004,0.8676,0.8511,0.8403,0.8534,0.7621,0.6991,0.6991,0.8186,0.889,0.889,1.0481,1.1681,1.2285,1.2893,1.347,1.4088,1.4088,1.4088,1.4088,1.4088,1.4088,1.4088,1.347,1.2893,1.2237,1.1123,0.0,0.0,0.0,0.941,0.8846,0.8237,0.0,0.7095,0.7095,0.7095,0.7095,0.7095,0.7095,0.7095,0.7095,0.7095,0.0,0.7797,0.8017,0.8448,0.0,1.1466,1.1858,0.0,0.0,0.0,1.3203,0.0,0.0,0.0,1.1466,1.1295,1.074,1.0611,1.0438,0.9836,0.0,0.0,0.9052,0.9357,0.9531,0.8921,0.7837,0.7095,0.7095,0.7095,0.7095,0.7095,0.7095,0.7095,0.7095,0.7095,0.7095,0.7095,0.7095,0.7095,0.7095,0.7095,0.7095,0.7095,0.7709,0.8017,0.8017,0.8575,0.8834,0.8834,0.8834,0.9183,0.9749,0.9749,1.0394,1.1466,1.1466,1.1815,1.2297,1.1686,1.1809,1.237,1.2984,1.3561,1.4088,0.6641,0.0,0.0,0.7897,0.8084,0.8351,0.9183,0.9332,0.9496,0.9795,0.9325,0.8916,0.8743,0.7759,0.7095,0.7095,0.8189,0.8978,0.9192,1.1171,1.2413,1.2638,1.3561,1.4088,1.4088,1.4088,1.4088,1.4088,1.4088,1.4088,1.4088,1.4088,1.3561,1.2589,1.1429,0.0,0.0,0.0,0.0,0.9104,0.0,0.7316,0.7095,0.7095,0.7095,0.7095,0.7095,0.7095,0.7095,0.7095,0.7272,0.7621,0.8584,0.8233,0.0,0.0,0.0,0.0,0.0,0.0,0.0,0.0,0.0,1.3822,0.0,0.0,0.0,1.1472,0.0,0.0,0.0,0.0,0.0,0.0,0.0,0.0,0.0,0.8939,0.0,0.7793,0.7793,0.7793,0.7793,0.7577,0.7356,0.7095,0.7095,0.7183,0.7448,0.7445,0.7533,0.7749,0.7793,0.7793,0.7793,0.8755,0.9235,0.9235,1.0183,1.0611,1.0611,1.0611,1.074,1.0907,1.0907,1.1601,1.2632,1.2632,1.3209,1.3997,1.3027,1.2632,1.2766,1.373,1.4088,1.4088,0.7821,0.7633,0.0,0.0,0.915,0.9188,0.9296,0.9502,0.9815,1.0269,1.0163,0.9729,0.0,0.0,0.0,0.0,0.0,0.0,1.0351,0.0,1.2766,1.3864,1.4046,1.4088,1.4088,1.4088,1.4088,1.4088,1.4088,1.4088,1.4088,1.4088,1.4046,1.3822,1.2638,0.0,0.0,0.0,1.0524,0.0,0.9144,0.8061,0.0,0.7095,0.7095,0.7095,0.7095,0.7095,0.7095,0.0,0.7797,0.8715,0.0,0.8803,0.9192,1.1595,0.0,0.0,0.0,0.0,0.0,0.0,1.4088,0.0,1.3913,0.0,1.387,1.3737,0.0,0.0,0.0,0.0,0.0,0.0,0.0,0.0,1.0432,1.0233,1.0221,1.0221,1.0221,1.0221,1.0221,0.9274,0.8233,0.7183,0.7095,0.7577,0.8627,0.8715,0.9148,1.0178,1.0221,1.0221,1.0221,1.0351,1.0394,1.0394,1.0524,1.0611,1.0611,1.0611,1.1166,1.2114,1.2114,1.2808,1.3913,1.3913,1.3997,1.4088,1.3955,1.3913,1.3906,1.4039,1.4088,1.4088,0.877,0.8656,0.0,0.0,1.0153,1.0428,1.1191,1.1691,1.2041,0.0,0.0,0.0,0.0,0.0,0.0,0.0,0.0,0.9366,0.0,0.0,0.0,1.4039,1.4088,1.4088,1.4088,1.4088,1.4088,1.4088,1.4088,1.4088,1.4088,1.4088,1.373,1.2984,1.1815,0.0,1.1997,0.0,1.0611,0.0,0.0,0.0,0.0,0.736,0.7095,0.7095,0.7095,0.7095,0.7095,0.0,0.7885,0.0,0.0,0.0,0.0,1.1037,0.0,0.0,0.0,0.0,0.0,0.0,0.0,0.0,1.3955,0.0,1.4088,0.0,0.0,0.0,0.0,0.0,0.0,0.0,1.2965,0.0,0.0,0.0,1.2126,0.0,0.0,0.0,1.0611,1.0028,0.9495,0.917,0.8996,0.9102,0.962,0.9662,0.9776,1.0065,1.006,1.006,1.006,1.0767,1.1211,1.1348,1.2032,1.2457,1.265,1.265,1.2905,1.3336,1.3336,1.3646,1.4088,1.4088,1.4088,1.4088,1.4088,1.4088,1.4088,1.4088,1.4088,1.4088,1.0121,0.0,0.0,0.0,0.0,0.0,1.2855,0.0,0.0,0.0,0.0,0.0,1.1858,1.0096,0.0,0.0,0.8584,0.8886,0.0,0.0,1.2376,0.0,0.0,0.0,1.4088,1.4088,1.4088,1.4088,1.4088,1.4088,1.4088,1.4088,1.3646,1.2723,0.0,1.1257,1.152,0.0,1.108,1.108,1.108,1.0394,0.9187,0.7661,0.7316,0.7577,0.7577,0.7793,0.8053,0.8053,0.8838,0.0,0.8786,0.9696,1.1128,0.0,0.0,0.0,1.3779,0.0,0.0,0.0,0.0,0.0,0.0,0.0,0.0,0.0,0.0,0.0,0.0,0.0,0.0,0.0,0.0,1.4055,0.0,0.0,0.0,0.0,0.0,0.0,0.0,1.07,1.0507,1.0376,1.0156,1.0191,1.0522,1.0564,1.0567,1.0646,1.064,1.064,1.064,1.153,1.2073,1.2261,1.3101,1.3641,1.3848,1.3928,1.3968,1.3968,1.4048,1.4088,1.4088,1.4088,1.4088,1.4088,1.4088,1.4292,1.4489,1.4208,1.4088,1.413,1.2187,1.1428,0.0,0.0,0.0,0.0,0.0,0.0,0.0,0.0,0.0,0.0,0.0,0.0,0.0,0.0,0.0,0.7665,0.889,0.0,1.1171,0.0,0.0,1.4088,0.0,1.4088,1.4088,1.4088,1.4088,1.4088,1.4088,1.4088,1.4088,1.3997,1.2766,1.2899,1.3913,1.2723,1.2242,1.2242,1.2242,1.1552,1.0308,0.0,0.7841,0.8846,0.8846,0.0,0.0,1.0481,1.1252,1.2194,1.2151,0.0,0.0,0.0,0.0,0.0,0.0,0.0,0.0,1.4088,0.0,0.0,0.0,0.0,1.4088,0.0,0.0,0.0,0.0,0.0,0.0,0.0,0.0,0.0,0.0,0.0,0.0,0.0,0.0,0.0,0.0,1.1607,1.0974,0.9806,0.972,1.0242,1.1416,1.1456,1.1942,1.3048,1.3088,1.3088,1.3088,1.3127,1.3134,1.3141,1.3187,1.3227,1.3247,1.3487,1.362,1.3633,1.3961,1.4088,1.4088,1.4088,1.4088,1.4088,1.4088,1.4734,1.5538,1.4489,1.4088,1.425,0.0,0.0,0.0,0.0,0.0,0.0,0.0,1.3808,0.0,0.0,1.2285,0.0,0.0,0.9579,0.889,0.0,0.0,0.7921,0.9879,1.0394,0.0,0.0,0.0,1.4088,0.0,0.0,0.0,1.4088,1.4088,1.4088,1.413,1.4817,1.4776,1.4088,0.0,1.325,0.0,0.0,0.0,0.0,0.0,1.1638,1.0524,0.0,0.9662,1.0009,1.0009,1.0269,1.0611,1.0611,1.1338,1.2157,1.1423,1.2254,1.3421,1.3027,1.3203,1.3561,1.3997,1.3512,1.3118,1.3906,0.0,0.0,0.0,0.0,0.0,0.0,0.0,0.0,0.0,0.0,0.0,0.0,0.0,0.0,0.0,0.0,0.0,0.0,0.0,0.0,0.0,0.0,1.2258,1.201,1.1851,1.1942,1.2337,1.2376,1.2453,1.2619,1.2612,1.2612,1.2612,1.2612,1.2705,1.2945,1.2945,1.3013,1.3213,1.3273,1.342,1.3613,1.3706,1.3908,1.4088,1.4088,1.4531,1.5179,1.5179,1.5827,1.6642,1.5545,1.5628,1.6281,1.2951,0.0,0.0,0.0,0.0,0.0,0.0,0.0,0.0,0.0,1.2285,0.0,1.1295,0.0,0.9666,0.0,0.9008,0.9008,1.0481,1.0999,0.0,1.3379,1.3864,0.0,0.0,0.0,0.0,0.0,0.0,1.4859,1.5269,1.5951,1.591,1.5228,0.0,1.4211,1.3467,0.0,1.2942,0.0,0.0,1.251,0.0,0.0,1.1563,1.1209,1.1209,1.1472,1.1826,1.1826,1.2339,1.2814,1.2083,1.2863,1.3955,1.316,1.347,1.4088,1.4088,1.3512,1.3118,1.3906,1.3512,0.0,1.3913,0.0,1.4088,0.0,0.0,0.0,0.0,0.0,0.0,0.0,0.0,0.0,0.0,1.4364,0.0,0.0,0.0,0.0,0.0,0.0,1.2672,1.2872,1.2699,1.2623,0.0,1.2623,1.2536,1.2311,1.2305,1.2305,1.2305,1.2305,1.2398,1.2623,1.2623,1.2692,1.2893,1.3343,1.365,1.3845,1.4448,1.4818,1.502,1.5177,1.5628,1.6273,1.6273,1.6927,1.7787,1.6683,1.6968,1.7908,0.0,0.0,0.0,0.0,1.348,0.0,0.0,0.0,1.3688,0.0,1.2285,1.2285,1.2237,1.1252,1.1037,1.2109,1.1214,1.0611,1.0697,1.1681,0.0,0.0,1.347,1.4088,1.4088,0.0,0.0,0.0,0.0,0.0,1.7302,1.7374,1.7334,1.7261,1.6273,0.0,1.5613,1.4608,1.413,1.4088,1.4088,1.4088,1.4088,1.4088,1.3379,1.237,1.237,1.3118,1.4088,1.4088,1.4088,1.4088,1.4088,1.4088,1.4088,1.4088,1.4088,1.4088,1.4088,1.4088,1.4088,1.4088,1.4088,1.4088,0.0,0.0,1.4088,0.0,0.0,0.0,0.0,0.0,0.0,0.0,0.0,0.0,0.0,0.0,0.0,0.0,0.0,0.0,0.0,1.2509,1.2305,1.2305,1.2305,0.0,0.0,1.2305,1.2305,1.2305,1.2342,1.2372,1.2372,1.2372,1.2372,1.2372,1.2372,1.2372,1.2422,1.3665,1.4261,1.4351,1.5979,1.6678,1.6719,1.7145,1.7334,1.7374,1.7374,1.8069,1.8957,1.7859,1.8149,1.9076,1.3493,1.3768,1.4192,0.0,1.4441,1.4001,0.0,0.0,0.0,0.0,1.2285,1.198,1.1123,1.0783,1.074,1.0999,1.0783,0.0,0.0,0.0,0.0,1.3603,1.3913,1.4088,1.4088,1.4088,1.4615,1.5696,0.0,0.0,1.7334,1.8189,1.8109,1.7334,0.0,0.0,1.5696,1.5421,1.4817,1.4088,1.4088,1.4088,1.4088,0.0,1.3906,1.3646,1.3646,1.3822,1.4088,1.4088,1.4088,1.4088,1.4088,1.4088,1.4088,1.4088,1.4088,1.4088,1.4088,1.4088,1.4088,1.4088,1.4088,1.4088,1.4088,1.4088,1.4088,0.0,0.0,0.0,0.0,0.0,0.0,0.0,0.0,0.0,0.0,0.0,0.0,1.4948,0.0,0.0,1.256,1.2345,1.2305,1.2305,1.2305,0.0,0.0,0.0,1.2305,1.2305,1.2989,1.3346,1.3346,1.3346,1.3346,1.3346,1.3346,1.3346,1.339,1.4436,1.5045,1.5282,1.6019,1.6478,1.6719,1.7145,1.7787,1.8559,1.8559,1.9234,2.0157,1.9874,1.9952,2.0206,1.4434,0.0,0.0,1.6273,0.0,0.0,1.4817,1.4412,0.0,1.2456,1.2285,0.0,1.1423,1.1338,1.1558,1.2083,1.2126,0.0,1.3033,0.0,0.0,1.4088,1.4088,1.4088,1.4088,1.4088,0.0,1.6396,0.0,0.0,1.8749,1.9392,0.0,0.0,0.0,1.8301,0.0,1.6108,1.5095,1.4088,1.4088,1.4088,0.0,1.4088,1.4088,1.4088,1.4088,1.4088,1.4088,1.4088,1.4088,1.4088,1.4088,1.4088,1.4088,1.4088,1.4088,1.4088,1.4088,1.4088,1.4088,1.4088,1.4088,1.4088,1.4088,1.4088,1.4088,1.4088,1.4088,1.4088,1.4088,0.0,0.0,0.0,0.0,0.0,0.0,0.0,0.0,0.0,1.5287,1.4772,1.3658,1.3164,1.3091,1.352,1.3164,0.0,0.0,0.0,1.3557,1.3557,1.3629,1.3918,1.435,1.3918,1.3918,1.4343,1.4343,1.4343,1.4386,1.5376,1.5902,1.6098,1.7128,1.765,1.7861,1.8469,1.9116,1.9678,1.9678,2.0079,2.0605,2.0605,2.0605,2.0605,1.5703,0.0,0.0,0.0,0.0,0.0,0.0,1.4901,0.0,1.2681,0.0,1.2547,1.2547,1.2547,1.2942,1.3997,0.0,1.4088,1.4088,1.4088,1.4088,1.4088,1.4088,1.4173,1.4292,1.4292,1.5345,0.0,0.0,0.0,0.0,0.0,0.0,0.0,0.0,0.0,0.0,1.6797,1.5387,1.4538,1.4538,1.4538,1.4538,1.4538,1.4412,1.4292,1.4292,1.4208,1.4088,1.4088,1.4088,1.4088,1.4088,1.4088,1.4088,1.4088,1.4088,1.4088,1.4088,1.4088,1.4088,1.4088,1.4208,1.4292,1.4292,1.4412,1.4538,1.4538,1.4461,1.4434,1.4434,0.0,0.0,0.0,0.0,0.0,0.0,0.0,0.0,0.0,0.0,0.0,1.5552,1.4557,1.4279,1.5128,1.4386,0.0,0.0,0.0,1.5199,1.5199,1.445,1.4486,1.5376,1.4522,1.4522,1.5376,1.5376,1.5376,1.5411,1.6358,1.6802,1.6963,1.8593,1.9316,1.9434,2.0273,2.0605,2.0605,2.0605,2.0605,2.0605,2.075,2.0712,2.0605,0.0,0.0,0.0,0.0,0.0,1.5985,1.6887,1.5352,1.3997,1.3822,1.3779,1.3779,1.3779,1.3779,1.3864,1.4088,1.4088,0.0,0.0,0.0,0.0,1.4088,1.4088,1.4489,1.5421,1.5421,1.6519,0.0,0.0,0.0,0.0,0.0,0.0,0.0,0.0,0.0,1.8917,1.7577,0.0,1.6731,1.6731,1.6731,1.6731,1.6731,1.6198,1.5421,1.5421,1.4852,1.4088,1.4088,1.4088,1.4088,1.4088,1.4088,1.4088,1.4088,1.4088,1.4088,1.4088,1.4088,1.4088,1.4088,1.4776,1.5421,1.5421,1.6116,1.6731,1.6731,1.6492,1.6238,1.6238,1.6785,0.0,0.0,0.0,0.0,0.0,0.0,0.0,0.0,0.0,1.751,1.751,1.5948,1.5021,0.0,0.0,0.0,0.0,0.0,1.5199,0.0,1.579,1.6175,0.0,1.6175,1.6175,1.6349,1.6349,1.6349,1.6393,1.732,1.7943,1.8299,1.899,1.9482,1.9844,2.039,2.0605,2.0605,2.0605,2.0605,2.0673,2.1479,2.126,2.0605,0.0,0.0,0.0,0.0,0.0,0.0,0.0,1.6322,1.4734,1.4166,1.4088,1.4088,1.4088,1.4088,1.4088,1.4088,1.4088,1.4088,1.4088,1.4088,1.4334,1.4894,1.4936,1.5421,1.6519,1.6519,1.7334,1.8997,0.0,0.0,0.0,0.0,0.0,0.0,0.0,2.0001,0.0,0.0,1.7827,1.7302,1.7302,1.7302,1.7302,1.7302,1.6968,1.6519,1.6519,1.6198,1.5594,1.4496,1.4454,1.4936,1.4936,1.4936,1.5061,1.5594,1.576,1.576,1.576,1.576,1.576,1.576,1.5978,1.6236,1.6236,1.6421,1.6647,1.6647,1.646,1.6434,1.6791,1.7105,1.756,1.8205,0.0,0.0,0.0,0.0,0.0,0.0,0.0,0.0,0.0,0.0,0.0,0.0,0.0,0.0,0.0,0.0,1.6655,0.0,0.0,0.0,1.732,1.6853,1.6853,1.732,1.732,1.732,1.7354,1.7794,1.8208,1.8627,1.9102,1.9531,1.9979,2.0926,2.1336,2.1375,2.1897,2.2113,2.2151,2.2627,2.2489,2.2113,0.0,2.0001,0.0,0.0,1.9717,1.8997,1.8997,1.7334,1.5662,1.4573,1.425,1.4088,1.4088,1.4088,1.4088,1.4088,1.4292,1.4454,1.4454,1.4657,1.5144,1.5985,1.6026,1.656,1.7626,1.7666,1.823,0.0,0.0,0.0,0.0,0.0,0.0,0.0,0.0,0.0,0.0,0.0,1.8829,1.798,1.798,1.798,1.798,1.798,1.7859,1.7666,1.7666,1.7666,1.7383,1.5436,1.5345,1.6026,1.6026,1.6026,1.6191,1.705,1.7302,1.7302,1.7302,1.7244,1.7178,1.7178,1.7056,1.6899,1.6899,1.6779,1.6682,1.6682,1.6623,1.6684,1.7126,1.7206,1.7389,1.792,0.0,0.0,0.0,0.0,0.0,0.0,0.0,0.0,1.8008,0.0,0.0,0.0,0.0,0.0,1.7974,0.0,0.0,0.0,1.7285,1.7251,1.7974,1.7285,1.7285,1.8008,1.8008,1.8008,1.8008,1.8008,1.8385,1.9098,1.9455,2.0002,2.0764,2.1853,2.2328,2.2403,2.3184,2.3514,2.3514,2.3745,2.3672,2.3551,0.0,0.0,0.0,0.0,0.0,1.8997,1.8997,1.794,1.6764,1.5703,1.4692,1.4088,1.4088,1.4088,1.4088,1.4088,1.4977,1.5538,1.5538,1.6445,1.7058,1.7139,1.7139,1.7658,1.8838,1.8838,1.9362,0.0,0.0,2.0489,0.0,0.0,0.0,0.0,0.0,2.0527,2.044,2.044,2.0401,2.0284,2.0284,2.0284,2.0284,2.0284,1.9678,1.8838,1.8838,1.8838,1.863,1.7415,1.7058,1.7139,1.7139,1.7139,1.718,1.7253,1.7302,1.7302,1.7302,1.7046,1.6743,1.6743,1.7184,1.7605,1.7605,1.8332,1.8976,1.8976,1.8632,1.8273,1.7963,1.7895,1.792,1.7983,0.0,0.0,0.0,0.0,1.8008,1.8008,0.0,0.0,0.0,1.8721,0.0,0.0,1.8361,0.0,0.0,0.0,0.0,1.8008,1.7906,1.7906,1.8008,1.7906,1.7906,1.8008,1.8008,1.8008,1.8008,1.8008,1.8957,2.0586,2.0628,2.16,2.3154,2.332,2.3368,2.3368,2.3478,2.3514,2.3599,2.4528,2.4264,2.377,0.0,0.0,0.0,0.0,0.0,0.0,0.0,1.9036,1.8189,1.7738,1.6731,1.5794,1.5137,1.5628,1.6,1.6,1.6396,1.6642,1.6642,1.705,1.7626,1.831,1.831,1.8838,1.9923,1.9962,2.0157,0.0,0.0,0.0,0.0,0.0,0.0,2.0605,2.0605,2.0605,2.0605,2.0605,2.0605,2.0605,2.0605,2.0605,2.0605,2.0605,2.0323,1.9962,1.9962,1.9962,1.9883,1.9432,1.8868,1.831,1.831,1.831,1.8386,1.8737,1.8868,1.8813,1.8576,1.8393,1.8264,1.8264,1.8267,1.8231,1.8231,1.8373,1.8525,1.8525,1.8389,1.8178,1.8037,1.8008,1.8008,1.8008,1.8008,0.0,0.0,0.0,0.0,1.8008,0.0,1.8008,0.0,1.8787,0.0,0.0,0.0,0.0,0.0,1.8787,1.8529,1.8008,0.0,1.8236,1.8787,1.8269,1.8269,1.8787,1.8236,1.8269,1.8787,1.8787,1.9768,2.1561,2.2152,2.283,2.3562,2.4156,2.4409,2.4445,2.5063,2.5311,2.5358,2.5769,2.5652,2.5429,2.0605,0.0,2.0605,0.0,2.0605,2.0605,2.0605,1.9962,1.9362,1.9036,1.859,1.7738,1.6314,1.6846,1.7302,1.7302,1.7626,1.7779,1.7779,1.8109,1.863,1.9441,1.9481,0.0,2.0566,2.0605,2.0605,2.0605,2.0605,0.0,0.0,2.0605,2.0605,2.0605,2.0605,2.0605,2.0605,2.0605,2.0605,2.0605,2.0605,2.0605,2.0605,2.0605,2.0605,2.0605,2.0605,2.0605,2.0605,2.0605,2.0079,1.9481,1.9481,1.9397,1.9357,1.9763,1.9824,1.9668,1.9365,1.9189,1.9092,1.9092,1.8769,1.8422,1.8422,1.8188,1.8008,1.8008,1.8008,1.8008,1.8008,1.8008,1.8008,1.8008,1.8008,0.0,0.0,1.8008,0.0,0.0,1.8236,1.8371,1.8371,1.9398,0.0,0.0,0.0,0.0,0.0,1.9694,1.9398,1.8787,1.8754,1.9044,1.9694,1.9077,1.9077,1.965,1.9044,1.9077,1.9694,2.027,2.1308,2.2742,2.3907,2.4397,2.4433,2.5146,2.5441,2.5511,2.6233,2.6499,2.6499,2.6499,2.6499,2.6499,2.0605,2.0605,2.0605,2.0605,2.0605,2.0605,2.0605,2.0605,2.0206,1.9155,1.9923,1.9717,1.7536,1.7293,1.7302,1.7302,1.831,1.8997,1.8997,1.9962,2.0566,0.0,0.0,2.0605,2.0605,2.0605,2.0605,2.0605,0.0,2.0605,2.0605,2.0605,2.0605,2.0605,2.0605,2.0605,2.0605,2.0605,2.0605,2.0605,2.0605,2.0605,2.0605,2.0605,2.0605,2.0605,2.0605,2.0605,2.0605,2.0605,2.0605,2.0566,2.0566,2.0264,1.9884,1.9912,1.9619,1.9297,1.9287,1.8975,1.8607,1.8607,1.8295,1.8018,1.8018,1.8018,1.8008,1.8008,1.8008,1.8008,1.8008,1.8008,1.8008,1.8008,1.8008,0.0,0.0,1.8008,0.0,1.8008,1.8754,1.9266,1.9266,2.0846,0.0,0.0,0.0,0.0,0.0,2.059,2.059,2.0558,2.0558,2.0558,2.059,2.0558,2.0558,2.059,2.0558,2.0558,2.0656,2.2575,2.3764,2.4367,2.5834,2.6452,2.6452,2.6499,2.6487,2.6487,2.6499,2.6499,2.6499,2.6499,2.6499,2.6499,2.0605,2.0605,2.0605,2.0605,2.0605,2.0605,2.0605,2.0605,2.0479,2.0118,2.0401,2.0323,1.9638,1.955,1.955,0.0,1.9874,2.0079,0.0,2.0401,2.0605,2.0605,2.0605,2.0605,2.0605,2.0605,2.0605,2.0605,2.0605,2.0605,2.0605,2.0605,2.0605,2.0605,2.0605,2.0605,2.0644,2.1298,2.1555,2.1593,2.2301,2.2563,2.2563,2.2563,2.2151,2.1555,2.1555,2.1555,2.1555,2.1555,2.1753,2.2043,2.2043,2.1038,1.9795,1.9182,1.8909,1.8744,1.8496,1.8311,1.8178,1.8178,1.8105,1.8008,1.8008,1.8008,1.8008,1.8008,1.8008,1.8008,1.8008,1.8008,1.8008,1.8008,1.8496,1.8888,1.8888,0.0,1.9781,1.9781,2.0009,2.0171,2.0171,2.1239,0.0,0.0,0.0,0.0,2.1553,2.1491,2.1195,2.0623,2.059,2.0878,2.1491,2.091,2.091,2.1491,2.0878,2.1092,2.2116,2.4058,2.5012,2.5231,2.6133,2.6499,2.6499,2.6499,2.6499,2.6499,2.6499,2.6499,2.6499,2.6499,2.6499,2.6499,2.0605,2.0605,2.0605,2.0605,2.0605,2.0605,2.0605,2.0605,2.0605,2.0605,2.0605,2.0605,2.0605,2.0605,2.0605,2.0605,2.0605,2.0605,2.0605,2.0605,2.0605,2.0605,2.0605,2.0605,2.0605,2.0934,2.1116,2.1116,2.1116,2.1116,2.1116,2.1116,2.1116,2.1155,2.1527,2.168,2.1707,2.2291,2.2553,2.2627,2.3257,2.3514,2.3514,2.3514,2.311,2.2553,2.2553,2.2553,2.252,2.2348,2.2455,2.2613,2.2245,2.1317,2.0262,1.9733,1.9455,1.9294,1.905,1.8977,1.8977,1.8977,1.8977,1.8977,1.8977,1.8721,1.8496,1.8496,1.8754,1.8877,1.8563,1.8754,1.8977,1.8977,1.9431,1.9781,1.9781,2.0268,2.059,0.0,0.0,2.1101,2.1101,2.1846,2.2353,0.0,0.0,0.0,2.2384,2.2353,2.2094,2.1542,2.1542,2.1803,2.2353,2.1803,2.1803,2.2353,2.2036,2.2543,2.3827,2.5041,2.5711,2.5971,2.6336,2.6499,2.6499,2.6499,2.6499,2.6499,2.6499,2.6499,2.6521,2.685,2.6939,2.7007,2.0605,2.0605,2.0605,2.0605,2.0605,2.0605,2.0605,2.0605,2.0605,2.0605,2.0605,2.0605,2.0605,2.0644,2.0712,2.0712,2.0712,2.0712,2.0712,2.075,2.0789,2.0789,2.0789,2.0789,2.0789,2.1669,2.2103,2.2103,2.2103,2.2103,2.2103,2.2103,2.2103,2.214,2.3073,2.3514,2.3514,2.3551,2.3588,2.3599,2.3661,2.3697,2.3697,2.3697,2.3661,2.3588,2.3588,2.3565,2.3475,2.2979,2.2812,2.2622,2.17,2.1384,2.1318,2.1185,2.0872,2.059,2.059,2.059,2.059,2.059,2.059,2.059,2.059,1.9977,1.9398,1.9398,2.0042,2.0365,1.9529,2.0042,2.059,2.059,2.0655,2.0687,2.0687,2.0751,2.0782,2.0782,2.1491,2.197,2.197,2.2659,2.3108,2.3108,0.0,0.0,2.3108,2.3108,2.3108,2.3108,2.3108,2.3108,2.3108,2.3108,2.312,2.317,2.3778,2.4594,2.5598,2.5636,2.5984,2.6499,2.6499,2.6499,2.6499,2.6555,2.6589,2.6589,2.6658,2.6692,2.6748,2.7517,2.7802,2.792,2.0605,2.0605,2.0605,2.0605,2.0605,2.0605,2.0605,2.0605,2.0605,2.0605,2.0605,2.0605,2.0605,2.1221,2.1669,2.1669,2.1669,2.1669,2.1669,2.2376,2.2813,2.2813,2.2813,2.2813,2.2813,2.3036,2.3147,2.3147,2.3147,2.3147,2.3147,2.3147,2.3147,2.3147,2.3404,2.3514,2.3562,2.4337,2.4636,2.4707,2.5464,2.5791,2.5791,2.5791,2.5323,2.4636,2.4636,2.439,2.3991,2.3874,2.3764,2.3655,2.3399,2.3032,2.2399,2.1113,2.068,2.059,2.059,2.059,2.059,2.059,2.059,2.059,2.059,2.043,2.0301,2.0301,2.0462,2.0526,2.0333,2.0462,2.059,2.059,2.1164,2.1585,2.1585,2.2125,2.2506,2.2506,2.2689,2.2823,2.2823,2.2975,2.3108,2.3108,0.0,2.3108,2.3108,2.3108,2.3108,2.3108,2.3108,2.3108,2.3108,2.3108,2.3333,2.3803,2.4356,2.4971,2.5611,2.6084,2.6361,2.6499,2.6499,2.6499,2.6555,2.7162,2.7417,2.7484,2.8149,2.8395,2.8427,2.862,2.8684,2.8716,2.0605,2.0605,2.0605,2.0605,2.0605,2.0605,2.0605,2.0972,2.1221,2.1221,2.1642,2.1935,2.1935,2.2366,2.2702,2.2702,2.2702,2.2702,2.2702,2.3184,2.3514,2.3514,2.3514,2.3514,2.3514,2.3963,2.4409,2.4874,2.4409,2.4192,2.4192,2.4192,2.4192,2.4228,2.466,2.4874,2.4909,2.5429,2.5699,2.5734,2.628,2.6499,2.6499,2.6499,2.6164,2.5699,2.5699,2.531,2.481,2.4545,2.4262,2.3954,2.369,2.3358,2.2914,2.2021,2.1741,2.1741,2.1741,2.1741,2.1741,2.1741,2.1479,2.1302,2.1678,2.1447,2.1207,2.1207,2.1491,2.1635,2.127,2.1479,2.1741,2.1741,2.2156,2.2445,2.2445,2.2823,2.3108,2.3108,2.3108,2.3108,2.3108,2.3108,2.3108,2.3108,2.3108,2.3108,2.3108,2.3108,2.3108,2.3108,2.3108,2.3108,2.3108,2.3358,2.3816,2.4381,2.4921,2.5646,2.6565,2.6886,2.704,2.7061,2.7484,2.7417,2.7095,2.7953,2.8298,2.833,2.8812,2.9002,2.9066,2.9442,2.9597,2.9659,2.1011,2.1049,2.1049,2.1049,2.1049,2.1049,2.1049,2.1697,2.2215,2.2215,2.2962,2.3514,2.3514,2.3635,2.3745,2.3745,2.3854,2.3891,2.3745,2.3879,2.3952,2.3952,2.3952,2.3952,2.3952,2.4779,2.5629,2.6499,2.5629,2.5229,2.5229,2.5229,2.5229,2.5264,2.6129,2.6499,2.6499,2.6499,2.6499,2.6499,2.6499,2.6499,2.6499,2.6499,2.6499,2.6487,2.6399,2.5996,2.5398,2.4838,2.433,2.3778,2.3258,2.3108,2.3108,2.3108,2.3108,2.3108,2.3108,2.3108,2.3108,2.3108,2.258,2.2261,2.2944,2.2567,2.2063,2.2063,2.2628,2.2884,2.2199,2.2641,2.3108,2.3108,2.3108,2.3108,2.3108,2.3108,2.3108,2.3108,2.3108,2.3108,2.3108,2.3215,2.3275,2.3275,2.3275,2.3275,2.3275,2.3275,2.3275,2.3275,2.3155,2.3145,2.3233,2.3753,2.4381,2.5127,2.557,2.6528,2.7887,2.7887,2.7887,2.7953,2.8684,2.8588,2.7953,2.8844,2.9192,2.9223,2.9317,2.938,2.9473,3.0208,3.0494,3.0584,2.2888,2.3036,2.3036,2.3036,2.3036,2.3036,2.3036,2.3184,2.3257,2.3257,2.3404,2.3514,2.3514,2.4264,2.4755,2.4755,2.5546,2.5687,2.4814,2.5546,2.6013,2.6013,2.6013,2.6013,2.6013,2.6198,2.6349,2.6499,2.6349,2.628,2.628,2.628,2.628,2.628,2.6418,2.6499,2.6499,2.6499,2.6499,2.6499,2.6499,2.6499,2.6499,2.6499,2.6499,2.6436,2.59,2.5385,2.4825,2.4305,2.374,2.3221,2.3133,2.3108,2.3108,2.3108,2.3108,2.3108,2.3108,2.3108,2.3108,2.3108,2.3017,2.2957,2.3078,2.3005,2.2914,2.2914,2.3017,2.3078,2.2944,2.3005,2.3108,2.3108,2.3108,2.3108,2.3108,2.3108,2.3108,2.3108,2.3108,2.3108,2.3108,2.3708,2.4118,2.4118,2.4118,2.4118,2.4118,2.4118,2.4118,2.4118,2.3454,2.3333,2.3866,2.3954,2.4861,2.6587,2.6679,2.7458,2.8812,2.8812,2.8812,2.8812,2.8939,2.8907,2.8876,2.9735,3.0103,3.0178,3.0837,3.1117,3.1117,3.1248,3.1307,3.1322,2.3404,2.3514,2.3514,2.3514,2.3514,2.3514,2.3514,2.3963,2.4301,2.4301,2.4767,2.5134,2.5134,2.5546,2.5804,2.5804,2.6245,2.6314,2.5838,2.6245,2.6499,2.6499,2.6499,2.6499,2.6499,2.6499,2.6499,2.6499,2.6499,2.6499,2.6499,2.6499,2.6499,2.6499,2.6499,2.6499,2.6499,2.6499,2.6499,2.6499,2.6499,2.6499,2.6499,2.6499,2.6499,2.648,2.6273,2.5859,2.5368,2.5227,2.4813,2.4323,2.4323,2.4076,2.3738,2.3738,2.3454,2.3108,2.3108,2.3108,2.3108,2.3108,2.3108,2.3108,2.3108,2.3108,2.3108,2.3108,2.3108,2.3108,2.3108,2.3108,2.3108,2.3108,2.3108,2.3108,2.3108,2.3108,2.3245,2.3679,2.3738,2.3901,2.4295,2.4667,2.4908,2.4908,2.4908,2.4908,2.4908,2.4908,2.5043,2.5426,2.5079,2.5007,2.5286,2.594,2.6711,2.761,2.7904,2.8601,2.969,2.969,2.969,2.9721,3.0178,3.0103,2.9766,3.0614,3.097,3.097,3.1351,3.1511,3.1511,3.1511,3.1511,3.1511,2.4145,2.4217,2.4217,2.4217,2.4217,2.4217,2.4217,2.485,2.5335,2.5335,2.6025,2.6499,2.6499,2.6499,2.6499,2.6499,2.6499,2.6499,2.6499,2.6499,2.6499,2.6499,2.6499,2.6499,2.6499,2.6499,2.6499,2.6499,2.6499,2.6499,2.6499,2.6499,2.6589,2.6782,2.6782,2.6871,2.7061,2.685,2.6782,2.6748,2.6589,2.6624,2.6782,2.6782,2.6905,2.7072,2.6873,2.6569,2.6199,2.6048,2.5728,2.5398,2.5398,2.5007,2.4567,2.4567,2.4105,2.3649,2.3649,2.3649,2.3649,2.3649,2.3649,2.3649,2.3649,2.3649,2.3649,2.3649,2.3649,2.3649,2.3649,2.3649,2.3649,2.3649,2.3649,2.3649,2.3649,2.3649,2.3872,2.4481,2.4567,2.4794,2.5342,2.5563,2.5646,2.5646,2.5646,2.5716,2.5883,2.5883,2.6273,2.7131,2.679,2.6687,2.6811,2.7725,2.8358,2.868,2.9125,2.9766,3.0584,3.0584,3.0584,3.0614,3.1219,3.1161,3.0614,3.1248,3.1511,3.1511,3.1511,3.1511,3.1511,3.1511,3.1511,3.1511,2.6094,2.6267,2.6267,2.6267,2.6267,2.6267,2.6267,2.6349,2.6383,2.6383,2.6452,2.6499,2.6499,2.6499,2.6499,2.6499,2.6499,2.6499,2.6499,2.6499,2.6499,2.6499,2.6499,2.6499,2.6499,2.6499,2.6499,2.6499,2.6499,2.6499,2.6499,2.6499,2.6905,2.7604,2.7604,2.8051,2.8748,2.7953,2.7604,2.7537,2.6816,2.6939,2.7604,2.7604,2.8117,2.8661,2.7556,2.7145,2.6925,2.5825,2.5439,2.5398,2.5398,2.537,2.5315,2.5315,2.5287,2.5231,2.5231,2.5231,2.5231,2.5231,2.5231,2.5231,2.5231,2.5231,2.5231,2.5231,2.5231,2.5231,2.5231,2.5231,2.5231,2.5231,2.5231,2.5231,2.5231,2.5231,2.5259,2.5315,2.5315,2.5342,2.5398,2.6014,2.6431,2.6431,2.6431,2.6675,2.7318,2.7347,2.7952,2.9312,2.7997,2.7492,2.8058,2.8155,2.8841,3.0136,3.0179,3.0614,3.1409,3.1409,3.1409,3.1409,3.1467,3.1467,3.1409,3.1467,3.1511,3.1511,3.1511,3.1511,3.1511,3.1511,3.1511,3.1511,2.6418,2.6499,2.6499,2.6499,2.6499,2.6499,2.6499,2.6499,2.6499,2.6499,2.6499,2.6499,2.6499,2.6499,2.6499,2.6499,2.6499,2.6714,2.7196,2.6782,2.6499,2.6499,2.6499,2.6499,2.6499,2.7007,2.7229,2.7229,2.7802,2.8051,2.8051,2.8051,2.8214,2.8524,2.8524,2.8684,2.8971,2.8652,2.8524,2.8492,2.8182,2.8247,2.8524,2.8524,2.8716,2.8899,2.8143,2.7881,2.7783,2.7021,2.6745,2.6745,2.6745,2.6443,2.6095,2.6095,2.6095,2.6176,2.6654,2.6108,2.5398,2.5398,2.5398,2.5398,2.5398,2.5398,2.5398,2.5398,2.5398,2.5398,2.5398,2.5398,2.5398,2.5398,2.5398,2.5398,2.5398,2.5398,2.5563,2.6041,2.6095,2.6256,2.6733,2.7034,2.734,2.7768,2.7797,2.8078,2.8769,2.9153,2.9603,3.0148,2.9999,2.9828,2.9638,3.0046,3.0499,3.1029,3.1029,3.119,3.1511,3.1511,3.1511,3.1511,3.1511,3.1511,3.1511,3.1511,3.1768,3.216,3.216,3.2449,3.2783,3.2783,3.2783,3.2783,2.6499,2.6499,2.6499,2.6499,2.6499,2.6499,2.6499,2.6714,2.6871,2.6871,2.7129,2.7284,2.7284,2.7284,2.7284,2.7284,2.7284,2.7517,2.8084,2.7571,2.7162,2.6871,2.6871,2.7007,2.7297,2.7835,2.8117,2.8117,2.8716,2.9002,2.9002,2.9002,2.916,2.9411,2.9411,2.9535,2.9766,2.9504,2.9411,2.938,2.9097,2.916,2.9411,2.9411,2.9566,2.9716,2.9175,2.8867,2.8645,2.8092,2.7779,2.76,2.76,2.7255,2.6852,2.6852,2.6852,2.6956,2.7458,2.6864,2.6081,2.6081,2.6081,2.6081,2.6081,2.6081,2.6081,2.6081,2.6081,2.6081,2.6081,2.6081,2.6081,2.6081,2.6081,2.6081,2.6081,2.6081,2.6269,2.68,2.6852,2.7034,2.7534,2.7794,2.8109,2.8562,2.8801,2.919,2.9834,3.0477,3.0821,3.0821,3.1256,3.1271,3.0808,3.1271,3.1511,3.1511,3.1511,3.1511,3.1511,3.1511,3.1511,3.1511,3.1511,3.164,3.1853,3.1853,3.2272,3.2922,3.2922,3.3198,3.3582,3.3582,3.3582,3.3582,2.6499,2.6499,2.6499,2.6499,2.6499,2.6499,2.6521,2.7196,2.7703,2.7703,2.846,2.9002,2.9002,2.9002,2.9002,2.9002,2.9002,2.9002,2.9002,2.9002,2.862,2.7769,2.7703,2.8117,2.8971,2.9002,2.9002,2.9002,2.9034,2.9034,2.9034,2.9034,2.9473,3.0299,3.0299,3.0748,3.1438,3.0644,3.0299,3.0238,2.938,2.9535,3.0299,3.0299,3.0807,3.1406,3.0746,3.0103,2.9517,2.8831,2.8169,2.7625,2.7625,2.7625,2.7625,2.76,2.76,2.76,2.76,2.76,2.76,2.76,2.76,2.76,2.76,2.76,2.76,2.76,2.76,2.76,2.76,2.76,2.76,2.76,2.76,2.76,2.76,2.76,2.76,2.76,2.76,2.76,2.76,2.8203,2.8607,2.8607,2.9247,2.9891,3.0477,3.1165,3.1511,3.1511,3.1511,3.1511,3.1511,3.1511,3.1511,3.1511,3.1511,3.1511,3.1511,3.1511,3.1496,3.1511,3.1511,3.1923,3.2629,3.2629,3.2986,3.3608,3.3608,3.3608,3.3624,3.3624,3.3624,3.3624,2.6499,2.6499,2.6692,2.7229,2.7351,2.7537,2.8149,2.846,2.862,2.862,2.8844,2.9002,2.9002,2.9002,2.9002,2.9002,2.9002,2.9002,2.9002,2.9566,2.9797,2.9535,2.8939,2.8716,2.9002,2.9597,2.9919,2.9919,3.0494,3.0748,3.0748,3.0748,3.0896,3.1161,3.1161,3.1278,3.1467,3.1248,3.1161,3.1117,3.0866,3.0896,3.1161,3.1161,3.1278,3.1406,3.0746,3.0103,2.9517,2.8831,2.8435,2.8238,2.8238,2.8238,2.814,2.771,2.76,2.76,2.76,2.76,2.76,2.76,2.76,2.76,2.76,2.76,2.76,2.76,2.76,2.76,2.76,2.76,2.76,2.76,2.76,2.76,2.76,2.76,2.76,2.76,2.8019,2.8293,2.8293,2.8918,2.9701,3.063,3.1763,3.2479,3.2667,3.2845,3.2971,3.2971,3.2971,3.2971,3.2971,3.1992,3.1511,3.1511,3.1511,3.1768,3.2272,3.2272,3.2516,3.2971,3.2971,3.3103,3.3287,3.3287,3.371,3.4309,3.4309,3.4592,3.5005,3.5005,3.5005,3.5005,2.7484,2.7484,2.7637,2.8149,2.8214,2.8395,2.8907,2.9286,2.9504,2.9504,2.9797,2.9981,2.9981,2.9981,2.9981,2.9981,2.9981,2.9981,2.9981,3.0494,3.0777,3.0777,3.0269,2.9981,2.9981,3.0524,3.0777,3.0777,3.1248,3.1511,3.1511,3.1511,3.1511,3.1511,3.1511,3.1511,3.1511,3.1511,3.1511,3.1511,3.1511,3.1511,3.1511,3.1511,3.1511,3.148,3.1369,3.0919,3.0346,2.9889,2.9335,2.885,2.885,2.885,2.8779,2.8424,2.8304,2.8304,2.8304,2.8304,2.8255,2.8018,2.7785,2.76,2.76,2.76,2.76,2.76,2.76,2.76,2.76,2.76,2.7675,2.7934,2.7959,2.8042,2.8295,2.8559,2.8737,2.8737,2.9354,2.9786,2.9786,3.0402,3.1223,3.2327,3.3153,3.3582,3.3582,3.3582,3.3582,3.3582,3.3582,3.3582,3.3582,3.2772,3.2324,3.2324,3.2324,3.2555,3.3002,3.3002,3.3224,3.3582,3.3582,3.3761,3.3987,3.3987,3.4382,3.5005,3.5005,3.523,3.56,3.56,3.56,3.56,2.9002,2.9002,2.9034,2.9097,2.9129,2.9129,2.9223,2.9889,3.0419,3.0419,3.1058,3.1511,3.1511,3.1511,3.1511,3.1511,3.1511,3.1511,3.1511,3.1553,3.1582,3.1582,3.1668,3.1682,3.1682,3.1553,3.1511,3.1511,3.1511,3.1524,3.1582,3.1582,3.164,3.1682,3.1682,3.1682,3.1682,3.1682,3.1682,3.1682,3.1682,3.1682,3.1682,3.1682,3.1682,3.1796,3.2449,3.226,3.1665,3.1525,3.0635,2.9576,2.9489,2.9473,2.9473,2.9406,2.9406,2.9406,2.9406,2.9406,2.9271,2.8724,2.8174,2.7735,2.7625,2.7685,2.776,2.7685,2.771,2.776,2.776,2.776,2.7944,2.8487,2.8629,2.8873,2.9412,3.014,3.0596,3.0596,3.1245,3.1678,3.1678,3.2345,3.3019,3.3636,3.3735,3.3786,3.3786,3.3786,3.3786,3.3786,3.3786,3.3786,3.3786,3.3786,3.371,3.3582,3.3582,3.3633,3.3684,3.3684,3.371,3.3786,3.3786,3.4137,3.4688,3.4688,3.5052,3.56,3.56,3.56,3.56,3.56,3.56,3.56,2.9002,2.9002,2.9223,2.9889,3.0011,3.0238,3.0866,3.1117,3.1248,3.1248,3.138,3.1511,3.1511,3.1511,3.1511,3.1511,3.1511,3.1511,3.1511,3.2035,3.2355,3.2355,3.2853,3.3156,3.3156,3.2061,3.1511,3.1511,3.1511,3.1796,3.2355,3.2355,3.2652,3.3156,3.3156,3.3156,3.3156,3.3156,3.3156,3.3156,3.3156,3.3156,3.3156,3.3156,3.3156,3.3182,3.3339,3.2946,3.2276,3.1645,3.121,3.0866,3.0287,3.0086,3.0016,2.954,2.9406,2.9406,2.9406,2.9406,2.9361,2.9248,2.9111,2.8764,2.7835,2.8328,2.8896,2.8391,2.8685,2.9019,2.9019,2.9019,2.9065,2.918,2.9694,3.0114,3.0252,3.0908,3.1357,3.1357,3.1959,3.2392,3.2392,3.3462,3.4243,3.4366,3.4871,3.5161,3.5161,3.5161,3.5161,3.5161,3.5161,3.5161,3.5161,3.5161,3.4633,3.3582,3.3582,3.3887,3.4382,3.4382,3.4664,3.5161,3.5161,3.5253,3.5385,3.5385,3.547,3.56,3.56,3.56,3.56,3.56,3.56,3.56,3.0208,3.0208,3.0329,3.0807,3.0866,3.0999,3.1438,3.1511,3.1511,3.1511,3.1511,3.1511,3.1511,3.1824,3.216,3.2489,3.2516,3.2516,3.2516,3.2853,3.3093,3.3093,3.3417,3.3582,3.3582,3.2864,3.2516,3.2516,3.2516,3.2691,3.3093,3.3093,3.3261,3.3582,3.3582,3.3582,3.3582,3.3582,3.3582,3.3582,3.3582,3.3582,3.3582,3.3582,3.3582,3.3633,3.3962,3.3827,3.3436,3.3023,3.2648,3.2276,3.1909,3.1541,3.1179,3.0868,3.0535,3.0251,3.0251,3.0251,3.0187,2.9892,3.0059,2.9935,2.874,2.895,2.9316,2.8989,2.918,2.9406,2.9406,2.9701,3.0023,3.0308,3.0959,3.1544,3.1852,3.2523,3.2968,3.2968,3.3587,3.4032,3.4032,3.4678,3.5075,3.5075,3.5385,3.56,3.56,3.56,3.56,3.56,3.56,3.56,3.56,3.56,3.5247,3.4544,3.4544,3.4728,3.5075,3.5075,3.5276,3.56,3.56,3.56,3.56,3.56,3.56,3.56,3.56,3.56,3.56,3.56,3.56,3.56,3.1511,3.1511,3.1511,3.1511,3.1511,3.1511,3.1511,3.1511,3.1568,3.1668,3.1697,3.1739,3.1838,3.2394,3.2986,3.3556,3.3582,3.3582,3.3582,3.371,3.3761,3.3761,3.3887,3.3937,3.3937,3.3937,3.3811,3.3582,3.3582,3.3659,3.3761,3.3761,3.3836,3.3937,3.3937,3.3937,3.3937,3.3937,3.3937,3.3937,3.3937,3.3937,3.3937,3.3937,3.3937,3.4012,3.4568,3.4737,3.4675,3.4539,3.4083,3.3575,3.344,3.2983,3.2496,3.2496,3.2056,3.1579,3.1579,3.1579,3.1463,3.0962,3.1206,3.1325,3.031,2.9895,2.9705,2.9746,2.9829,2.9927,3.0057,3.0587,3.1173,3.1654,3.237,3.3023,3.3529,3.4218,3.4692,3.4692,3.5233,3.56,3.56,3.56,3.56,3.56,3.56,3.56,3.56,3.56,3.56,3.56,3.56,3.56,3.56,3.56,3.56,3.56,3.56,3.56,3.56,3.56,3.56,3.56,3.56,3.56,3.56,3.56,3.56,3.56,3.56,3.56,3.56,3.56,3.56,3.5639,3.1511,3.1511,3.1511,3.1511,3.1511,3.1511,3.1511,3.1511,3.171,3.2355,3.2465,3.268,3.3261,3.3401,3.3495,3.3582,3.3582,3.3582,3.3582,3.4137,3.4455,3.4455,3.5028,3.5339,3.5339,3.5339,3.4752,3.3582,3.3582,3.3912,3.4455,3.4455,3.4759,3.5339,3.5339,3.5339,3.5339,3.5339,3.5339,3.5339,3.5339,3.5339,3.5339,3.5339,3.5339,3.5339,3.5447,3.5448,3.5346,3.4726,3.4421,3.4235,3.3609,3.3339,3.3254,3.3254,3.3186,3.3102,3.3102,3.3102,3.3081,3.2997,3.3039,3.306,3.2896,3.1883,3.0985,3.1105,3.1532,3.2101,3.274,3.2942,3.303,3.3111,3.3756,3.4271,3.4353,3.4996,3.5447,3.5447,3.5532,3.56,3.56,3.56,3.56,3.56,3.56,3.56,3.56,3.56,3.56,3.56,3.56,3.56,3.56,3.56,3.56,3.56,3.56,3.56,3.56,3.56,3.56,3.56,3.56,3.56,3.56,3.56,3.56,3.56,3.56,3.56,3.56,3.56,3.56,3.5774,3.1511,3.1511,3.1511,3.1511,3.1511,3.164,3.2064,3.2104,3.2382,3.3066,3.3172,3.3261,3.3572,3.3937,3.4309,3.4681,3.4728,3.4728,3.4728,3.5005,3.5161,3.5161,3.543,3.56,3.56,3.56,3.5316,3.4728,3.4728,3.4871,3.5161,3.5161,3.5316,3.56,3.56,3.56,3.56,3.56,3.56,3.56,3.56,3.56,3.56,3.56,3.56,3.56,3.56,3.56,3.5549,3.5211,3.5115,3.5064,3.4721,3.4353,3.4015,3.4015,3.3728,3.3406,3.3406,3.3406,3.3406,3.3406,3.3406,3.3406,3.3406,3.2899,3.2448,3.2504,3.2715,3.3,3.3339,3.3744,3.4015,3.4015,3.4641,3.5115,3.5115,3.538,3.56,3.56,3.56,3.56,3.56,3.56,3.56,3.56,3.56,3.56,3.56,3.56,3.56,3.56,3.56,3.56,3.56,3.56,3.56,3.56,3.56,3.56,3.56,3.56,3.56,3.56,3.56,3.56,3.56,3.56,3.56,3.56,3.56,3.56,3.5695,3.6446,3.6715,3.6904]}]]